GFSNGP_con_mlcape_000.txt.gz
CAPE
0 0 0 0 0 0 0 0 0 0 0 0 0 0 0 0 0 76 374 356 790 994 1323 1585 1522 1637 1793 1847 1882 1950 2149 2244 2473 2458 2233 1556 871 317 67 0 0 0 0 0
8 1 0 0 0 0 0 0 0 0 0 0 0 0 0 0 0 79 522 338 890 1188 1416 1757 1788 1927 2037 2089 1992 2137 2282 2404 2426 2505 1825 875 604 395 100 0 0 0 0 0
41 64 25 5 0 0 0 0 0 0 0 0 0 0 0 0 18 84 449 354 697 1072 1361 1808 1926 2143 2136 2132 2094 2148 2343 2436 2594 2306 1507 752 568 499 300 3 0 0 0 0
76 132 100 0 0 0 0 0 0 0 0 0 0 0 0 26 13 104 554 737 815 962 1322 1537 1551 1676 1664 1845 1957 2119 2375 2429 2475 1963 1334 968 648 659 336 46 0 22 28 2
49 94 62 2 112 3 0 0 0 0 0 0 0 0 36 43 29 234 671 978 1008 983 1202 1272 1058 1274 1347 1539 1768 2001 2192 2253 1991 1622 1190 928 824 661 606 175 61 246 299 210
110 73 30 350 189 126 160 1 0 0 0 0 0 0 0 110 14 94 473 663 780 703 944 889 785 968 1229 1425 1761 1984 2119 2102 1712 1406 1252 969 1015 874 550 575 357 247 301 261
93 110 122 248 135 289 134 6 0 0 10 16 12 179 281 174 282 452 706 815 827 740 604 706 809 1052 1175 1411 1607 1875 2109 1997 1503 1387 1560 1364 1138 806 778 650 425 490 394 376
95 129 74 71 304 400 363 220 298 263 314 296 272 451 545 567 697 758 645 540 449 663 967 1144 1173 1353 1364 1520 1992 2174 2198 1802 1548 1553 1459 1510 1041 743 535 494 592 480 405 614
56 52 40 1 170 368 440 472 424 387 337 342 306 376 440 439 448 454 410 405 539 912 1293 1575 1808 1822 1920 2543 2417 2288 1892 1642 1538 1398 1229 1200 950 636 578 533 579 466 497 571
160 62 0 1 25 79 208 264 213 246 199 225 210 212 250 330 477 705 873 758 748 836 968 1097 1521 1795 2208 1751 2043 2076 1679 1646 1385 1422 1172 894 847 807 855 837 747 641 684 551
82 2 0 0 0 0 7 59 121 155 160 182 397 540 524 739 803 833 950 931 843 933 1376 1499 1756 1849 1868 1773 1745 1733 1532 1446 1330 1047 989 1230 777 425 802 137 155 370 259 97
36 27 1 0 0 0 0 0 0 2 2 12 55 86 310 562 834 1181 1212 1308 1418 1503 1799 1960 1977 1934 1979 1778 1753 1689 1238 1288 1199 1180 1278 1161 611 69 0 0 0 0 0 44
19 0 0 0 0 0 0 0 0 0 0 0 0 0 0 0 6 31 158 653 1646 1509 1713 1745 1845 1819 1806 1889 1746 1467 1224 1159 1004 862 657 641 603 276 63 0 0 0 0 0
0 0 0 0 0 0 0 0 0 0 0 0 0 0 0 0 0 0 0 109 414 1360 1509 1492 1452 1556 1495 1307 1330 1313 1001 620 624 548 516 353 302 305 302 257 112 0 0 0
0 0 0 0 0 0 0 0 0 0 0 0 0 0 0 0 0 0 0 0 12 215 783 1539 1411 1372 1137 917 779 531 218 188 239 115 65 58 98 127 206 246 168 88 0 0
0 0 0 0 3 0 0 0 0 0 0 0 0 0 0 0 0 0 0 0 0 3 287 789 1427 1161 829 305 60 12 0 0 18 112 214 239 310 246 267 237 269 238 36 0
0 0 0 0 0 0 0 0 0 0 0 0 0 0 0 0 0 0 0 0 44 128 331 828 1253 969 439 96 111 88 96 133 128 202 137 92 103 100 90 129 159 113 120 54
58 14 0 0 0 0 0 0 0 0 0 0 0 0 0 1 0 10 46 103 265 436 666 976 994 782 523 388 167 198 141 72 42 7 25 77 104 178 201 162 125 106 106 0
40 20 2 0 0 0 0 0 0 0 0 0 0 0 5 10 13 39 63 38 276 367 324 652 282 455 525 232 96 43 39 41 82 170 183 120 178 167 204 171 172 148 108 45
7 1 0 0 0 0 0 0 0 0 3 9 12 13 21 29 39 38 88 100 136 163 166 82 259 200 67 5 7 47 123 138 126 81 41 28 46 86 130 85 102 55 38 30
0 1 0 0 0 0 4 0 3 8 19 22 21 23 23 15 22 34 48 37 50 70 51 56 97 97 45 11 34 61 60 49 35 26 20 12 57 27 25 25 11 35 32 11
23 10 7 6 3 2 21 37 23 29 40 40 34 29 17 5 43 41 27 15 29 0 53 41 14 0 0 0 2 0 0 0 0 0 0 0 0 2 2 3 2 2 6 10
20 23 9 5 15 27 25 22 44 62 46 51 48 25 0 3 2 22 37 6 46 2 48 6 0 0 0 0 0 0 0 0 0 0 0 0 0 0 0 0 0 0 0 0
85 48 68 50 33 25 20 15 11 20 40 43 30 24 0 0 14 12 27 6 0 0 26 0 0 0 0 0 0 0 0 0 0 0 0 0 0 0 0 0 0 0 0 0
92 53 43 50 18 14 19 16 18 3 8 53 32 16 7 6 3 4 23 29 3 20 71 3 0 0 0 8 22 16 13 7 6 5 2 1 0 0 0 0 2 3 2 0
0 8 12 12 16 13 15 21 24 21 3 17 22 30 21 21 26 10 23 5 6 14 3 49 59 31 35 38 33 36 28 21 11 6 0 0 2 0 0 0 0 0 0 0
0 0 0 0 0 0 0 3 4 9 1 0 1 15 3 4 2 0 0 9 25 30 35 38 41 39 33 25 28 35 26 22 11 5 10 5 4 1 0 0 0 0 0 0

GFSNGP_con_mlcape_003.txt.gz
CAPE
0 0 0 0 0 0 0 0 0 0 3 5 6 10 0 0 0 0 0 134 549 706 989 1168 984 1215 1189 975 1198 1360 2007 2175 2725 3144 2755 2591 2662 2884 2246 1639 962 350 117 74
0 0 0 0 0 0 0 0 0 0 0 0 0 7 1 0 0 0 0 0 530 969 1090 1738 1533 1819 1821 1691 1822 1962 2542 2603 2998 3362 2942 2615 2752 2573 1719 1316 657 209 4 0
13 14 37 15 0 0 0 0 0 0 0 0 0 0 4 0 0 0 0 0 146 915 1260 1645 1734 2205 2175 2363 2156 2419 2755 3033 3350 3637 3138 2641 2467 1964 1450 909 585 159 0 19
25 94 52 0 0 7 6 1 0 0 0 0 0 0 0 0 0 0 0 0 12 750 1385 1866 1867 1899 1978 2357 2662 2928 3104 3188 3416 3535 3039 2252 1682 1484 1224 1153 872 349 98 21
43 121 94 67 424 257 294 48 4 1 0 0 0 0 0 0 0 0 0 11 170 1075 1445 2165 2122 2343 2517 2560 2817 2990 3054 3261 3484 3544 2822 2074 1525 1336 1412 1427 1307 532 176 69
141 64 49 12 504 371 242 4 1 9 8 0 0 21 0 0 0 177 220 89 512 1290 1612 2293 2340 2333 2480 2404 2608 2881 3035 3205 3433 3231 2418 1856 1398 1306 1481 1720 1341 649 347 355
9 48 48 640 318 413 151 161 799 589 311 102 0 4 390 318 248 269 291 974 1677 1560 2137 2180 2151 1935 2119 2141 2309 2415 2575 2803 3016 2517 1910 1582 1462 1566 1372 1333 955 501 331 607
21 40 35 371 367 338 720 597 750 740 591 656 3 404 535 658 663 703 862 1208 1363 1571 1785 1697 1729 1870 1957 2029 2298 2506 2604 2675 2360 1931 1695 1692 1550 1347 1083 911 944 812 727 973
38 53 547 445 547 622 619 663 791 849 786 746 867 759 858 989 1224 1291 1277 1305 1221 1170 1273 1296 1652 1945 2156 2631 2707 2756 2832 2344 1920 1774 1807 1952 1765 1537 1134 1086 885 882 1010 761
237 330 306 373 355 366 410 546 609 822 890 929 982 910 793 674 606 542 666 856 977 1152 1567 1974 1920 2013 2842 2916 2858 2920 2445 1865 1693 1738 1720 1591 1729 1173 754 653 769 942 980 1039
385 144 58 31 69 76 168 247 242 400 630 811 756 759 864 951 961 861 812 766 943 1246 1616 1880 2286 2716 2505 2805 2872 2297 1990 1924 2163 1832 1586 1458 924 646 970 866 522 887 864 744
267 156 45 0 0 0 0 0 0 1 18 155 422 549 895 1065 1073 1045 1012 1031 1134 1171 1583 1967 2236 2359 2374 2472 2583 2393 2161 2118 1979 1660 1824 1170 601 149 0 0 0 0 0 54
4 0 0 0 0 0 0 0 0 0 0 0 0 0 3 40 123 229 754 834 1016 1073 1424 1809 2047 2346 2387 2441 2510 2193 2062 1898 1785 1532 1409 1182 931 840 495 0 0 0 0 0
0 1 1 0 0 0 0 0 0 0 0 0 0 0 0 0 0 0 8 142 727 1018 1401 1636 1726 1971 2309 2267 2170 2077 1704 1351 1263 1413 1078 966 877 629 314 120 44 7 0 0
0 1 1 1 0 0 0 0 0 0 0 0 0 0 0 0 0 0 0 0 3 285 979 1094 1399 1529 1595 1803 1878 1700 1193 879 956 719 615 448 358 215 250 346 232 37 0 0
1 1 2 2 0 0 0 0 0 0 0 0 0 0 0 0 0 0 0 0 0 6 167 743 1195 1401 1353 1299 1169 776 579 480 545 335 199 166 168 139 148 181 156 118 57 0
0 0 0 0 0 1 0 0 0 0 1 0 0 4 1 7 2 17 19 3 9 9 53 414 1170 1362 1186 721 324 137 71 154 141 277 125 149 132 120 106 110 110 108 138 27
1 0 0 0 5 22 3 11 11 36 29 7 9 45 52 48 45 36 29 19 63 66 173 574 1180 1069 891 581 464 194 180 166 172 152 46 8 44 76 80 76 90 119 26 2
1 9 19 30 25 37 42 22 17 38 27 12 16 42 48 80 65 71 116 125 191 154 517 954 692 828 799 611 371 268 138 91 44 17 36 38 76 96 77 97 118 108 86 98
15 4 4 14 14 26 35 14 17 23 40 34 45 46 13 8 14 119 176 165 280 245 324 461 533 625 693 320 46 91 83 98 84 115 124 127 74 37 27 21 56 43 38 13
25 14 13 25 7 14 13 29 10 19 25 20 25 16 13 12 11 25 46 70 185 275 165 223 203 159 159 50 52 147 123 100 85 82 72 32 21 14 39 46 16 12 22 25
39 20 20 23 18 18 23 18 50 65 49 54 47 15 13 22 45 83 83 76 105 22 62 72 30 0 37 13 79 75 26 37 39 38 23 6 1 1 13 21 25 18 15 15
34 23 22 21 32 33 40 25 26 44 67 74 20 5 2 9 26 37 37 45 79 3 7 0 0 0 0 2 12 8 6 1 1 0 0 0 0 0 0 0 0 0 0 0
40 72 106 51 38 28 40 7 22 10 1 62 8 0 0 1 7 23 26 4 0 0 0 0 0 0 0 2 3 3 0 0 0 0 0 0 0 0 0 0 0 0 0 0
97 68 88 73 41 69 71 55 59 28 41 95 81 40 27 16 18 18 5 40 2 0 15 0 0 0 0 0 11 26 20 12 8 8 5 2 1 1 0 0 0 0 1 1
59 41 56 45 50 33 25 31 25 17 19 19 19 37 54 44 43 37 51 28 38 23 15 48 42 15 14 12 19 37 39 45 22 11 2 1 0 1 5 1 0 0 0 0
3 2 11 7 6 3 4 2 19 13 15 4 0 6 37 35 26 27 24 28 17 18 22 40 29 56 26 46 46 31 31 47 24 20 21 18 17 14 12 10 6 0 0 0

GFSNGP_con_mlcape_006.txt.gz
CAPE
0 0 0 0 0 0 0 0 0 0 0 7 0 35 12 0 0 4 9 226 161 510 631 898 988 1083 1123 1238 1479 1720 2480 2963 3029 3203 3099 3093 3031 3135 3065 3173 3052 2804 1919 1390
0 0 0 0 0 0 0 0 0 0 0 0 0 0 81 1 0 2 0 0 454 312 780 1359 1216 1208 1138 1060 1249 1428 1840 2499 2813 3129 3375 3225 3097 3211 3222 3399 3083 2658 1500 962
0 0 0 0 0 0 0 0 0 0 0 0 0 6 80 171 8 19 8 0 3 784 933 1327 1819 1367 1223 1161 1340 1331 1796 2366 2511 3007 3488 3345 3261 3220 3420 3247 2700 1981 1159 573
0 1 6 0 0 0 0 0 0 0 0 0 0 0 0 0 0 6 44 0 0 0 1135 1502 2108 1842 1668 1550 1508 1528 2322 2499 2755 3250 3637 3486 3353 3271 3383 2879 2344 1786 963 319
11 41 0 6 12 54 22 3 0 0 0 0 0 0 0 0 0 0 0 94 9 0 76 1434 1895 2025 2323 2068 1748 2608 2364 3234 3280 4019 3996 3741 3432 3211 2939 2490 2055 1696 971 321
30 28 0 15 315 283 233 97 580 569 406 244 15 1 0 0 1 3 0 0 46 227 361 1562 2177 2256 2423 2754 2564 2324 3218 3589 4078 4397 3972 3385 2954 2542 2171 1836 1703 1750 1326 562
10 6 0 233 306 149 217 192 728 703 700 638 353 318 331 577 536 677 45 76 130 755 1820 2192 2543 2660 2597 2778 3103 3014 3740 3887 4329 4194 3582 2743 2278 1869 1532 1664 2069 1615 898 555
49 102 96 392 26 12 513 648 583 532 610 554 550 497 402 676 706 270 671 409 1211 2408 2625 3070 2946 3062 3222 3233 3508 3677 3769 4002 4186 3525 2751 2189 1800 1729 1834 1547 1298 1056 758 573
0 0 2 660 912 699 594 572 821 961 806 444 412 584 971 986 1182 1218 1100 1373 1878 2850 3041 3045 3171 3124 3056 3117 3182 3304 3414 3759 3456 2734 2153 1840 1885 1544 1317 1283 1189 972 912 939
17 68 697 600 442 393 493 872 934 991 1149 1308 1201 1079 1116 1222 1376 1498 1730 1923 2090 2188 2370 2650 2693 2928 3138 3026 3176 3221 3344 2914 2420 2119 2097 2079 1955 1609 1435 1319 1221 996 1142 706
86 749 612 530 432 441 419 535 505 260 260 392 870 933 1308 1329 1496 1743 1760 2083 2416 2527 2884 2933 3479 3263 3381 3508 3494 3097 2600 2267 1951 1885 1895 1972 963 844 1027 264 441 1076 791 625
474 518 248 148 129 13 0 36 4 0 0 0 20 38 180 810 971 1365 1657 1874 2100 2407 2632 2561 2841 2999 3222 3306 2909 2563 2250 1848 1946 1798 1638 933 490 124 0 3 0 0 0 326
1 21 0 0 0 0 0 0 0 0 0 0 0 0 0 33 103 835 1350 1644 2014 2265 2565 2638 2670 2622 2766 2837 2441 2146 2106 2311 1916 1722 1526 1130 697 467 213 0 0 0 0 0
0 3 0 0 0 0 0 0 0 0 0 0 0 0 0 0 0 60 315 1161 1503 1802 1931 2259 2245 2432 2410 2480 2302 2183 2183 1823 1820 1697 1815 1606 1412 1048 734 128 0 0 0 0
14 1 4 7 0 0 0 0 0 0 0 0 0 0 0 0 0 0 0 0 588 1180 1610 1942 2370 2521 2472 2458 2459 2551 2046 1867 1728 1733 1658 1401 1183 973 875 279 122 0 0 0
0 0 2 1 0 0 0 0 0 0 0 0 0 9 0 0 14 49 22 0 251 769 1363 1344 1543 2071 2079 1930 1734 1640 1312 1271 1311 428 608 751 623 353 239 195 34 1 0 0
2 0 0 0 0 0 0 0 0 0 0 0 0 0 17 53 83 5 6 46 46 104 314 837 1068 1297 1407 1542 1242 1142 793 682 396 285 377 248 189 124 136 131 161 96 52 0
1 0 0 0 0 0 0 0 0 0 0 0 5 76 100 106 85 24 90 229 211 400 485 1038 1171 996 938 781 790 388 201 313 330 268 73 141 135 70 48 39 38 102 94 0
0 5 12 17 16 0 0 2 8 38 36 28 43 77 61 66 37 78 156 310 153 245 479 968 729 894 1000 643 380 174 115 73 121 16 36 32 43 120 109 62 80 59 0 0
11 0 3 10 0 0 0 17 24 45 26 51 33 42 27 31 64 124 71 92 172 86 269 386 386 624 680 578 163 165 61 63 50 51 38 66 92 129 67 25 68 52 78 79
32 31 29 26 6 23 16 14 35 22 27 34 34 27 26 33 105 108 89 44 97 52 9 63 208 261 354 128 20 113 26 93 82 75 92 30 9 9 36 54 21 18 30 32
66 50 44 61 83 72 59 61 47 43 79 3 7 2 1 20 12 40 39 8 3 0 0 0 0 0 0 0 81 11 7 44 28 25 42 45 25 7 24 28 27 29 22 18
94 84 126 57 33 37 13 54 30 60 69 8 6 8 5 14 52 21 5 0 0 0 0 0 0 0 0 0 3 36 46 10 21 10 1 0 0 0 0 0 0 1 8 2
90 66 22 103 52 82 53 31 17 13 75 27 7 0 3 2 18 51 6 0 0 0 0 0 0 0 0 0 0 3 0 0 0 0 0 0 0 0 0 0 0 0 0 0
13 27 54 23 0 0 1 0 0 0 22 3 2 0 26 5 7 9 16 4 0 5 4 0 0 0 0 0 0 0 6 12 8 7 6 2 0 1 1 0 0 0 0 1
17 3 0 0 0 0 0 0 0 0 0 8 0 0 7 11 0 8 15 0 2 4 16 42 48 11 10 10 8 6 8 16 23 29 19 7 1 0 0 5 1 1 0 0
0 0 1 0 0 0 0 0 0 0 0 0 0 0 1 2 0 0 0 1 1 6 2 1 0 16 4 4 16 18 15 41 20 16 16 6 15 16 11 12 14 8 1 0

GFSNGP_con_mlcape_009.txt.gz
CAPE
0 0 0 0 0 0 0 0 0 0 0 0 0 0 23 52 41 2 13 222 460 596 651 1013 1240 1352 1414 1605 1923 2761 3061 3206 2974 2889 2929 3039 3025 3040 2288 2577 2443 2151 1500 1192
0 0 0 0 0 0 0 0 0 0 0 0 0 0 0 122 36 2 45 217 282 570 641 715 1009 1206 1406 1589 1881 2209 2846 2999 2920 2931 2974 3072 3105 3040 3035 2523 2637 2367 2045 1607
0 0 0 0 0 0 0 0 0 0 0 0 0 0 0 4 82 4 2 317 467 413 873 785 867 1048 1308 1499 1658 2031 2452 2851 2890 2766 2950 2945 3037 2972 3035 3013 2878 2777 2314 1872
0 0 0 0 0 0 0 0 0 0 0 0 0 0 0 0 0 1 1 0 135 152 414 1267 1024 1007 1178 1375 1680 1867 1988 2564 2735 2899 2801 3055 3075 3045 3123 3103 3069 2817 2437 1859
0 0 0 0 0 0 0 0 14 19 16 0 0 0 0 0 0 0 0 0 0 145 330 470 1470 1229 1088 1231 1480 1607 1712 1958 2493 2618 2957 3206 3217 3175 3215 3136 2829 2652 2078 1576
0 0 0 0 7 209 87 27 483 269 154 49 82 0 1 85 574 34 0 0 0 0 3 437 1336 1626 1372 1197 1277 1301 1436 1723 2241 2471 2853 3399 3337 3280 3072 2731 2250 1986 1757 1074
14 0 0 38 97 174 115 257 407 359 320 292 111 204 209 104 500 630 542 96 5 0 0 298 1062 1805 1724 1474 1277 1457 1363 2309 2676 3038 3530 3402 3134 2851 2341 2239 2153 1952 1569 1012
41 50 53 281 271 246 411 617 559 606 670 286 234 161 164 420 620 755 636 460 1545 498 233 524 1585 2153 2228 1793 1722 2127 2662 3242 3610 3554 3263 2989 2680 2347 2285 1989 1751 1564 1363 851
0 25 62 84 381 91 421 752 845 755 1161 897 745 1306 1486 1195 1025 1095 1441 1815 2220 2494 2749 2643 2358 2554 2932 3257 3045 3038 3705 3725 3309 3043 2958 2549 1993 1798 1642 1395 1262 1083 883 706
0 0 22 86 48 681 390 155 199 762 844 729 723 937 988 1173 1562 1840 2107 2613 2713 2893 3238 3381 3374 3295 3336 3574 3608 3729 3515 3237 2856 2714 2190 1740 1477 1374 1348 1253 1084 942 813 651
6 257 575 511 352 396 223 44 0 54 230 421 547 479 601 783 990 1514 2167 2571 2760 2882 3139 3254 3345 3393 3422 3525 3560 3309 2969 2377 2188 1999 1850 1052 419 691 832 316 833 922 1025 801
53 89 121 62 5 15 1 0 0 0 19 0 4 80 121 164 149 308 562 494 2577 3042 3228 3304 3333 3249 3125 2908 2761 2614 2206 2014 1956 1645 885 569 410 142 0 7 11 215 331 427
19 0 0 0 0 0 0 0 0 0 0 0 0 0 0 12 3 3 20 0 837 1995 2420 2584 2682 2705 2593 2484 2422 2314 2163 1929 1712 1238 980 799 597 540 288 0 0 0 0 2
0 0 0 0 0 0 0 0 0 0 0 0 0 0 0 0 0 0 0 0 564 1401 1920 1961 2250 2798 2601 2507 2376 2249 2110 1746 1690 1412 1209 937 717 445 223 80 3 0 0 0
0 0 0 0 0 0 0 0 0 0 0 0 0 0 0 0 0 0 0 7 720 1757 2376 2182 2211 2322 2352 2174 1999 2024 1970 1840 1757 1614 1313 1017 781 538 184 23 0 0 0 0
47 0 0 0 0 0 0 0 0 0 0 0 0 0 0 0 0 0 3 48 226 509 958 1741 2286 2278 2354 2281 2260 2083 1958 1799 1724 1616 1318 1203 902 849 465 114 0 0 0 0
1 0 0 0 0 0 0 0 0 0 0 0 0 0 0 0 0 1 0 96 74 369 752 891 847 954 1018 1199 894 1004 792 720 617 994 805 782 708 581 455 145 5 0 0 0
0 0 0 0 0 0 0 0 0 0 0 0 0 0 1 0 0 0 11 8 1 83 398 350 541 510 285 119 75 353 501 269 202 196 209 57 34 32 13 30 18 18 6 0
10 3 0 0 0 0 0 0 0 0 0 0 6 0 0 0 1 0 0 0 0 0 0 164 507 478 351 74 120 72 140 84 88 52 28 14 2 4 0 14 39 30 0 0
36 29 6 16 20 33 6 26 18 48 33 19 12 4 12 42 60 73 85 81 67 87 77 136 270 296 60 30 78 74 66 34 36 36 2 8 8 6 1 0 1 0 0 0
1 29 33 47 27 47 49 43 30 13 35 17 12 20 67 70 48 36 29 42 21 42 36 14 33 101 60 52 50 46 43 17 25 35 34 16 5 1 8 4 5 24 8 0
55 52 86 66 50 9 0 36 49 45 12 18 23 12 37 39 44 20 2 0 0 0 0 0 0 0 0 3 6 0 7 10 1 5 5 0 4 4 0 0 1 8 43 33
49 79 50 26 67 38 44 29 7 43 42 41 0 2 12 63 38 6 0 0 0 0 0 0 0 0 0 0 1 16 0 4 1 2 0 0 0 0 0 0 0 0 1 1
4 5 3 0 0 0 0 4 6 7 1 0 0 0 0 9 26 36 11 0 0 0 0 0 0 0 0 0 0 0 40 12 0 1 0 0 0 0 0 0 0 0 0 0
10 1 0 0 0 0 0 3 0 0 0 0 0 0 0 1 1 27 13 0 0 1 22 0 0 0 0 0 0 0 0 0 0 2 1 1 0 0 0 0 0 0 0 0
0 0 0 0 0 0 0 0 0 0 0 0 0 0 0 0 0 0 0 0 1 3 19 17 1 0 0 0 0 0 0 0 2 0 0 0 9 1 1 0 0 0 0 0
0 0 0 0 0 0 0 0 0 0 0 0 0 0 0 0 0 0 0 0 0 0 0 0 0 0 0 0 0 0 0 0 0 0 0 0 0 1 1 0 0 0 0 0

GFSNGP_con_mlcape_012.txt.gz
CAPE
0 0 0 0 0 0 0 0 0 0 0 0 0 0 0 0 5 56 101 0 0 39 220 509 786 880 1164 1521 1804 2126 2242 2390 2266 2287 2415 2410 2202 1846 1745 1845 1448 1441 1176 1120
0 0 0 0 0 0 0 0 0 0 0 0 0 0 0 0 0 2 7 0 21 86 285 505 822 915 1068 1462 2012 2201 2375 2375 2473 2532 2584 2566 2597 2446 1988 1962 2078 1730 1380 1074
0 0 0 0 0 0 0 0 0 0 0 0 0 0 0 0 0 0 0 0 81 227 428 605 889 1012 1053 1440 1958 2383 2389 2615 2725 2619 2612 2643 2702 2715 2609 2229 2091 2071 1832 1584
0 0 0 0 0 0 0 0 0 0 0 0 0 0 0 0 0 0 0 4 91 427 542 740 934 1099 1177 1321 1784 2301 2412 2594 2862 2797 2637 2683 2737 2748 2733 2729 2395 2313 2036 1909
0 0 0 0 0 0 0 0 0 0 0 0 0 0 0 0 0 0 0 0 74 459 658 631 822 1035 1267 1365 1591 1879 2249 2413 2641 2768 2623 2705 2670 2782 2710 2787 2644 2660 2383 2048
0 0 0 0 0 1 0 21 161 0 0 0 0 0 0 0 9 0 0 0 0 0 33 491 677 851 1016 1261 1511 1654 1907 2173 2495 2666 2593 2583 2714 2757 2785 2810 2808 2574 2427 1920
0 0 0 3 16 81 12 48 141 42 3 0 0 0 0 0 133 213 78 0 0 0 0 3 527 865 815 975 1222 1463 1731 1982 2223 2587 2605 2594 2770 2824 2898 2765 2740 2535 2082 1620
0 0 58 0 72 53 180 696 384 298 231 113 234 270 594 272 402 407 155 244 399 12 0 0 84 599 744 810 931 1246 1528 1727 1758 2309 2522 2750 2850 2792 2695 2531 2476 2032 1709 1404
0 0 0 0 49 711 745 578 541 403 394 273 282 480 952 1250 1562 1702 1548 1303 1355 795 330 279 363 803 762 916 1041 1073 1229 1498 1773 2240 2593 2697 2639 2621 2281 2179 1886 1816 1649 1245
0 0 0 436 516 300 319 389 347 304 273 270 275 655 789 930 1016 1138 1340 1464 1344 1901 2417 1339 1138 1104 1335 1152 1233 1367 1792 2343 2486 2381 2358 2396 2150 2046 1707 1741 1599 1275 1190 966
0 0 0 94 186 51 12 42 90 144 257 284 273 247 452 645 717 804 585 207 79 82 316 755 2194 2349 2462 2312 2537 2408 2337 2390 2231 1785 1999 1409 675 753 974 651 1028 1060 761 685
4 0 0 0 0 0 0 0 0 0 0 0 28 55 59 60 2 0 0 0 0 0 0 0 67 561 3326 3090 2644 2327 2137 2168 2058 1187 672 474 281 40 0 15 300 558 572 483
4 0 0 0 0 0 0 0 0 0 0 0 0 0 0 0 0 0 0 0 0 0 0 0 60 8 1563 2369 2297 2453 2335 1975 1278 941 635 143 149 72 365 0 0 55 332 228
2 1 0 0 0 0 0 0 0 0 2 0 0 0 0 0 0 0 24 141 150 51 52 176 58 55 893 1199 1360 1855 1489 705 593 443 294 217 223 234 101 160 169 6 0 0
14 0 0 0 0 0 0 0 0 0 0 0 0 0 0 0 0 0 71 205 324 227 710 589 639 937 1135 1277 1428 1446 1325 1032 737 533 439 366 196 73 20 9 0 0 0 0
2 0 0 0 0 0 0 0 0 0 0 0 0 0 0 0 0 0 0 27 201 282 398 630 881 1081 1277 1421 1294 1408 1378 1091 1124 949 709 528 218 89 12 0 0 0 0 0
0 0 0 0 0 0 0 0 0 0 0 0 0 0 0 0 0 0 0 0 0 0 23 196 201 46 40 433 1063 1023 1129 1355 1242 1141 1091 852 683 277 26 0 0 0 1 0
0 0 0 0 0 0 0 0 0 0 0 0 0 0 0 0 0 0 0 0 0 0 0 149 79 69 30 0 0 0 113 168 72 430 520 538 350 129 146 30 9 3 0 0
0 1 0 0 0 1 3 4 7 4 4 2 0 0 2 0 2 0 0 0 0 0 0 1 1 0 9 13 9 31 0 1 9 2 0 49 59 24 128 81 44 0 0 0
14 13 31 46 16 8 43 62 56 42 14 10 16 25 3 7 14 5 1 1 1 9 11 0 0 0 0 8 33 54 21 4 7 0 0 0 0 1 7 72 75 26 1 0
41 75 55 35 52 50 62 46 19 14 14 24 39 25 9 13 1 0 0 0 0 0 0 0 0 0 2 10 42 43 23 5 13 17 4 0 1 4 6 20 44 23 2 0
11 28 33 27 32 13 26 24 2 7 1 0 6 28 5 0 0 0 0 0 0 0 0 0 0 0 0 11 34 39 51 55 28 9 3 0 0 0 1 0 8 8 5 0
0 0 0 0 0 0 0 0 0 0 0 0 0 0 4 0 0 0 0 0 0 0 0 0 0 0 0 0 2 10 14 16 18 5 1 0 0 0 0 0 0 0 10 3
0 0 0 0 0 0 0 0 0 0 0 0 0 0 0 1 0 0 0 0 0 0 0 0 0 0 0 0 0 0 0 1 0 0 0 0 0 0 0 0 0 0 0 0
0 0 0 0 0 0 0 0 0 0 0 0 0 0 0 0 0 0 0 0 0 0 0 0 0 0 0 0 0 0 0 0 0 0 0 0 0 0 0 0 0 0 0 0
0 0 0 0 0 0 0 0 0 0 0 0 0 0 0 0 0 0 0 0 0 0 0 0 0 0 0 0 0 0 0 0 0 0 0 0 0 0 0 0 0 0 0 0
0 0 0 0 0 0 0 0 0 0 0 0 0 0 0 0 0 0 0 0 0 0 0 0 0 0 0 0 0 0 0 0 0 0 0 0 0 0 0 0 0 0 0 0

GFSNGP_con_mlcape_015.txt.gz
CAPE
0 0 0 0 0 0 0 0 0 0 0 0 0 0 0 0 0 0 0 0 0 0 0 2 13 173 461 724 1067 1099 1166 1412 1398 1429 1496 1502 1397 1302 1276 1244 1237 1132 1070 1032
0 0 0 0 0 0 0 0 0 0 0 0 0 0 0 0 0 0 0 0 0 8 14 22 75 207 415 869 1119 1364 1381 1445 1611 1649 1706 1733 1722 1612 1463 1372 1410 1214 1141 1007
0 0 0 0 0 0 0 0 0 0 0 0 0 0 0 0 0 0 0 0 0 0 0 18 124 323 443 862 1150 1590 1576 1703 1842 1817 1847 1933 1978 1903 1746 1580 1585 1292 1156 1054
0 0 0 0 0 0 0 0 0 0 0 0 0 0 0 0 0 0 0 0 0 0 0 59 222 492 583 922 1258 1551 1741 1854 2057 2093 1947 2090 2228 2145 2037 1824 1816 1547 1307 1132
0 0 0 0 0 0 0 0 0 0 0 0 0 0 0 0 0 0 0 0 0 0 12 147 348 650 833 901 1256 1713 1827 1996 2178 2281 2217 2310 2288 2368 2368 2195 1896 1883 1582 1452
0 0 0 0 0 0 0 0 0 0 0 0 0 0 0 0 0 0 0 0 0 0 39 257 542 884 974 1002 1269 1618 1953 2049 2264 2445 2406 2399 2416 2416 2496 2508 2203 1986 2001 1822
0 0 0 0 0 5 0 0 0 0 0 0 0 0 0 0 2 35 1 0 0 0 109 385 643 963 1115 1166 1178 1455 1837 2144 2337 2547 2596 2501 2470 2476 2568 2583 2470 2270 2250 2089
0 0 0 0 36 84 108 30 94 0 0 0 6 10 57 168 448 562 492 742 1423 1357 714 200 63 574 1012 1150 1233 1349 1591 1827 2227 2394 2668 2602 2514 2488 2579 2642 2639 2566 2387 1842
0 0 1 0 11 92 104 308 265 238 275 211 226 230 225 289 455 568 660 586 349 542 560 761 1826 396 476 776 1138 1353 1462 1549 1677 2094 2460 2463 2489 2561 2648 2734 2692 2506 1974 1539
26 0 4 12 5 37 38 127 100 114 268 325 436 478 436 496 422 433 596 662 401 295 204 91 0 1436 1564 1309 1110 955 1228 1429 1551 1796 2213 2346 2543 2646 2638 2619 2458 2037 1519 1144
38 15 7 0 13 0 0 0 13 21 113 319 278 126 61 51 74 66 39 48 224 411 313 90 0 0 6 454 1191 1114 1027 1196 1388 1754 2279 2358 1790 2301 2416 1813 1731 1319 966 728
11 5 1 0 0 0 0 0 0 3 1 0 17 35 4 1 0 0 0 0 0 0 0 0 0 4 90 82 62 1476 1308 1559 1854 1975 1109 882 985 722 179 409 621 471 96 0
184 34 0 0 8 0 0 0 0 0 0 0 0 0 0 0 4 21 7 2 28 118 51 75 278 120 0 0 0 555 1644 2040 1473 701 665 849 911 871 547 149 14 0 29 126
8 7 0 0 0 0 0 0 0 0 0 0 0 0 0 22 57 121 75 58 221 412 412 527 516 166 0 0 0 0 3 107 479 487 579 580 495 182 0 0 0 0 0 0
12 27 0 0 0 8 0 0 0 0 0 0 0 0 0 0 0 3 28 89 182 244 188 316 336 402 0 0 38 34 33 0 2 97 98 4 3 0 0 0 1 0 6 1
0 0 0 0 0 1 0 0 0 0 0 0 0 0 0 0 0 0 0 5 71 65 0 0 16 30 151 192 6 1 36 67 95 6 36 0 0 0 3 42 63 46 57 4
5 0 0 0 0 0 0 0 0 0 0 0 0 0 0 0 0 0 0 0 0 0 0 0 0 0 0 137 121 218 233 125 64 44 37 17 37 73 54 36 53 18 0 0
0 0 0 0 0 0 0 0 0 0 0 0 0 0 0 0 0 0 0 0 0 0 0 0 0 0 0 0 0 17 266 391 337 274 226 201 116 41 7 1 0 0 0 0
0 0 0 0 0 0 0 0 0 0 0 0 2 3 0 0 0 0 0 0 0 0 0 0 0 0 0 5 0 0 0 0 72 275 201 83 69 32 6 1 0 0 0 0
12 4 1 0 3 3 22 18 7 12 30 26 22 5 0 0 0 0 0 0 0 0 0 0 0 0 0 0 7 13 7 3 0 0 0 1 1 0 2 2 0 0 1 0
20 21 12 12 18 7 0 0 6 16 21 26 0 0 0 0 0 0 0 0 0 0 0 0 0 0 0 0 0 0 0 0 0 0 0 0 0 0 0 0 1 0 6 0
0 0 3 0 0 0 0 0 0 0 7 7 7 0 0 0 0 0 0 0 0 0 0 0 0 0 0 6 1 0 1 5 0 5 1 0 0 0 0 0 0 0 0 0
0 0 0 0 0 0 0 0 0 0 0 0 0 0 0 0 0 0 0 0 0 0 0 0 0 0 0 0 0 0 2 5 1 0 0 0 0 0 0 0 0 2 0 0
0 0 0 0 0 0 0 0 0 0 0 0 0 0 0 0 0 0 0 0 0 0 0 0 0 0 0 0 0 0 0 0 0 0 0 0 0 0 1 0 0 0 0 0
0 0 0 0 0 0 0 0 0 0 0 0 0 0 0 0 0 0 0 0 0 0 0 0 0 0 0 0 0 0 0 0 0 0 0 0 0 0 0 0 0 0 0 0
0 0 0 0 0 0 0 0 0 0 0 0 0 0 0 0 0 0 0 0 0 0 0 0 0 0 0 0 0 0 0 0 0 0 0 0 0 0 0 0 0 0 0 0
0 0 0 0 0 0 0 0 0 0 0 0 0 0 0 0 0 0 0 0 0 0 0 0 0 0 0 0 0 0 0 0 0 0 0 0 0 0 0 0 0 0 0 0

GFSNGP_con_mlcape_018.txt.gz
CAPE
0 0 0 0 0 0 0 0 0 0 0 0 0 0 0 0 0 0 0 0 0 0 0 0 0 11 53 109 285 515 617 676 759 862 857 901 1030 997 964 918 926 938 896 1043
0 0 0 0 0 0 0 0 0 0 0 0 0 0 0 0 0 0 0 0 0 0 0 0 0 45 143 196 349 559 714 737 892 1038 1085 1024 984 1053 1081 1048 1090 1015 929 966
0 0 0 0 0 0 0 0 0 0 0 0 0 0 0 0 0 0 0 0 0 0 0 0 5 123 191 313 514 666 773 925 1090 1215 1285 1312 1239 1135 1097 1119 1123 1116 1078 1004
0 0 0 0 0 0 0 0 0 0 0 0 0 0 0 0 0 0 0 0 0 0 0 0 11 78 246 331 598 858 935 1035 1257 1424 1437 1479 1517 1371 1283 1236 1173 1206 1196 1118
0 0 0 0 0 0 0 0 0 0 0 0 0 0 0 0 0 0 0 0 0 0 0 0 0 69 188 388 660 904 1142 1239 1352 1530 1592 1629 1687 1638 1595 1498 1367 1383 1302 1205
0 0 0 0 0 0 0 0 0 0 0 0 0 0 0 0 0 0 0 0 0 0 0 0 0 1 164 413 717 884 1309 1424 1547 1650 1692 1722 1877 1890 1849 1755 1619 1579 1400 1285
0 0 0 0 0 3 0 0 0 0 0 0 0 0 0 0 0 2 16 0 0 0 0 0 32 246 372 528 719 974 1336 1666 1770 1849 1944 1945 2005 2148 2164 2104 1979 1797 1635 1480
0 0 0 0 3 16 0 0 1 0 0 0 0 0 0 0 79 286 394 762 468 115 191 94 59 422 651 751 828 1034 1319 1624 1838 2054 2184 2212 2263 2233 2343 2402 2392 2120 1866 1841
0 0 0 0 1 25 0 10 1 0 0 0 0 0 6 107 266 201 172 108 5 23 208 741 1231 167 483 836 855 815 1110 1431 1896 2115 2303 2325 2428 2417 2493 2510 2483 2323 2120 2100
8 0 0 9 28 10 3 0 1 18 43 34 98 137 124 67 70 40 1 0 0 0 0 0 0 0 0 1 947 1377 888 987 1458 2011 2291 2543 2576 2534 2572 2614 2576 2289 2228 2120
0 0 23 49 19 22 19 3 41 32 39 30 0 0 0 0 0 0 0 0 0 0 0 0 0 0 0 0 0 22 621 937 1124 1421 1833 2328 2507 2554 2610 2684 2592 2493 2233 1429
0 0 7 5 26 0 50 23 3 11 6 4 16 26 17 20 0 2 16 1 13 70 36 49 41 0 0 0 0 0 0 190 695 1180 1487 2090 1459 1271 1200 2165 2066 1757 1150 740
7 55 30 79 11 19 50 19 0 19 4 11 25 49 21 2 0 9 43 77 85 138 312 265 240 52 0 0 0 0 0 267 889 1070 1240 1043 1258 1316 1272 427 569 432 463 270
13 5 174 115 85 56 8 0 0 2 0 9 20 12 24 12 12 83 91 67 85 117 196 268 281 204 75 100 19 18 7 25 1109 1157 857 831 711 760 570 500 201 0 0 0
2 5 123 70 64 22 0 0 0 0 0 0 0 0 0 0 2 5 35 19 0 0 3 32 171 229 181 328 251 0 1 1 64 120 41 426 264 237 67 12 0 0 0 0
8 0 0 8 29 0 0 0 0 0 0 0 0 0 0 0 0 0 0 7 59 10 0 0 0 6 86 208 35 0 0 0 0 0 0 0 1 0 1 0 0 0 0 0
3 0 43 10 13 3 0 0 0 0 0 6 0 0 0 0 0 0 0 0 0 0 0 0 0 0 0 101 179 57 0 0 0 14 16 0 0 9 1 0 0 0 0 0
17 0 0 0 0 1 0 3 0 8 5 15 2 0 0 0 0 0 0 0 0 0 0 0 0 0 0 0 10 55 17 2 2 0 1 0 0 0 0 0 0 1 1 0
3 0 0 0 0 6 16 2 1 14 3 0 0 0 0 0 0 0 0 0 0 0 0 0 0 0 1 0 0 0 0 7 4 1 5 6 2 0 0 0 0 0 0 0
6 3 0 0 0 0 1 1 3 0 0 0 0 0 0 0 0 0 0 0 0 0 0 0 0 0 2 0 1 3 2 0 20 34 22 6 17 11 4 3 2 0 0 0
1 0 0 0 0 0 0 0 0 0 0 0 0 0 0 0 0 0 0 0 0 0 0 0 0 0 0 0 0 1 2 2 0 0 0 3 2 17 2 0 0 0 0 0
0 0 0 0 0 0 0 0 0 0 0 0 0 0 0 0 0 0 0 0 0 0 0 0 0 0 0 0 0 0 0 0 0 1 0 2 1 3 0 0 0 1 0 0
0 0 0 0 0 0 0 0 0 0 0 0 0 0 0 0 0 0 0 0 0 0 0 0 0 0 0 0 0 0 0 0 0 0 1 0 8 17 7 8 5 0 0 0
0 0 0 0 0 0 0 0 0 0 0 0 0 0 0 0 0 0 0 0 0 0 0 0 0 0 0 0 0 0 0 0 0 0 0 0 0 0 0 0 0 0 0 0
0 0 0 0 0 0 0 0 0 0 0 0 0 0 0 0 0 0 0 0 0 0 0 0 0 0 0 0 0 0 0 0 0 0 0 0 0 0 0 0 0 0 0 0
0 0 0 0 0 0 0 0 0 0 0 0 0 0 0 0 0 0 0 0 0 0 0 0 0 0 0 0 0 0 0 0 0 0 0 0 0 0 0 0 0 0 0 0
0 0 0 0 0 0 0 0 0 0 0 0 0 0 0 0 0 0 0 0 0 0 0 0 0 0 0 0 0 0 0 0 0 0 0 0 0 1 0 0 0 0 0 0

GFSNGP_con_mlcape_021.txt.gz
CAPE
0 0 0 0 0 0 0 0 0 0 0 0 0 0 0 0 0 0 0 0 0 0 0 0 5 118 216 333 634 767 981 1001 1141 1345 1457 1525 1514 1466 1475 1488 1384 1356 1371 1472
0 0 0 0 0 0 0 0 0 0 0 0 0 0 0 0 0 0 0 0 0 0 0 0 1 52 196 284 499 754 946 922 1076 1363 1533 1568 1600 1571 1542 1490 1484 1466 1412 1442
0 0 0 0 0 0 0 0 0 0 0 0 0 0 0 0 0 0 0 0 0 0 0 0 0 20 176 314 536 707 838 1095 1236 1301 1438 1554 1614 1648 1543 1551 1510 1493 1454 1494
0 0 0 0 0 0 0 0 0 0 0 0 0 0 0 0 0 0 0 0 0 0 0 0 0 52 271 429 505 666 880 1099 1264 1325 1393 1537 1536 1599 1690 1713 1619 1610 1513 1509
0 0 0 0 0 0 0 0 0 0 0 0 0 0 0 0 0 0 0 0 0 0 0 0 0 0 294 454 590 744 826 995 1186 1350 1400 1571 1641 1614 1705 1776 1856 1781 1800 1655
0 0 0 0 0 0 0 0 0 0 0 0 0 0 0 0 0 0 0 0 0 0 0 0 0 0 179 438 721 747 888 1100 1483 1652 1685 1686 1823 1966 1955 1868 1829 1860 1892 1815
0 0 0 0 0 40 0 0 0 0 0 0 0 0 0 0 0 0 0 0 0 0 0 0 8 11 37 283 468 893 1301 1532 1654 1753 1823 1902 2042 2087 2206 2203 2116 2034 1967 1922
0 0 0 0 0 0 17 8 0 0 0 0 0 27 0 0 0 2 7 0 0 0 0 137 340 576 602 696 1121 1429 1556 1722 1912 1937 2003 2142 2229 2363 2419 2361 2289 2291 2172 2136
0 0 0 0 0 0 46 15 24 6 1 1 4 94 0 2 244 428 301 277 846 494 52 83 471 935 949 1075 1056 1289 1552 1743 2014 2250 2363 2414 2493 2510 2561 2581 2415 2403 2221 2078
2 0 0 0 0 5 32 0 18 9 18 15 123 39 157 211 139 70 0 0 0 0 25 125 267 416 644 842 1640 1565 1480 1766 2096 2267 2472 2673 2718 2789 2766 2633 2562 2543 2411 2169
8 0 0 0 0 4 13 0 27 17 2 6 16 9 0 0 0 0 0 0 0 14 14 4 12 1 0 0 0 8 436 1119 1439 2023 2352 2660 2820 2938 2871 2892 2728 2542 2580 2420
0 1 4 0 1 32 3 38 29 0 7 3 6 0 0 0 1 0 11 135 237 397 300 159 0 0 0 6 0 0 0 15 289 848 1489 2090 2503 2896 1838 1789 2474 2363 2366 2345
0 0 0 1 0 0 23 119 39 25 39 16 2 1 1 15 48 29 62 89 72 147 200 349 458 387 417 339 295 132 79 55 261 1073 1124 1057 1897 2535 2053 1295 1104 1846 1844 1347
11 1 0 0 0 47 107 122 76 24 4 2 3 30 80 64 45 49 67 52 64 76 211 434 365 208 257 448 80 92 10 29 217 20 42 367 717 1061 1345 930 1076 750 472 634
0 0 0 1 6 21 18 66 15 3 0 0 0 1 1 2 3 4 34 49 5 0 0 9 80 117 221 409 108 6 13 60 32 0 0 0 0 0 0 72 509 32 4 2
1 11 14 2 10 0 24 9 0 0 0 0 0 0 0 0 0 0 0 1 9 0 0 6 0 4 110 282 328 83 42 0 9 40 0 0 0 0 0 0 0 0 1 0
1 1 4 2 22 20 9 7 0 1 2 0 0 0 0 0 0 0 0 0 0 0 0 0 1 11 11 154 287 176 45 46 0 5 5 2 0 0 0 0 0 0 8 0
4 6 0 0 9 37 14 0 1 8 1 0 0 0 0 0 0 0 0 0 0 0 0 1 1 34 27 1 75 96 16 6 3 3 2 2 0 0 0 1 2 3 0 0
4 0 0 32 62 60 53 20 18 1 0 0 0 0 0 0 0 0 0 0 0 0 0 0 0 0 0 0 0 0 30 14 0 2 4 3 4 3 2 2 0 0 0 1
2 2 9 2 1 1 3 1 0 0 0 0 0 0 0 0 0 0 0 0 1 0 0 0 0 0 0 0 0 0 1 2 1 3 7 4 6 4 2 2 3 5 4 1
1 2 2 0 0 0 0 0 0 0 0 0 0 0 0 0 0 0 0 0 0 0 0 0 0 0 0 0 0 0 0 0 0 0 0 0 3 1 0 0 1 2 2 2
0 1 1 0 0 0 0 0 0 0 0 0 0 0 0 0 0 0 0 0 0 0 0 0 0 0 0 0 0 0 0 0 0 0 0 0 0 0 0 0 0 0 0 0
0 0 0 0 0 0 0 0 0 0 0 0 0 0 0 0 0 0 0 0 0 0 0 0 0 0 0 0 0 0 0 0 0 0 0 0 0 0 0 0 0 1 1 1
0 0 0 0 0 0 0 0 0 0 0 0 0 0 0 0 0 0 0 0 0 0 0 0 0 0 0 0 0 0 0 0 0 0 0 0 0 0 0 0 0 0 1 0
0 0 0 0 0 0 0 0 0 0 0 0 0 0 0 0 0 0 0 0 0 0 0 0 0 0 0 0 0 0 0 0 0 0 0 0 0 0 0 0 0 0 0 0
0 0 0 0 0 0 0 0 0 0 0 0 0 0 0 0 0 0 0 0 0 0 0 0 0 0 0 0 0 0 0 0 0 0 0 2 1 0 0 0 0 0 0 0
0 0 0 0 0 0 0 0 0 0 0 0 0 0 0 0 0 0 0 0 0 0 0 0 0 0 0 0 0 0 0 0 0 0 0 0 0 0 0 1 2 2 0 0

GFSNGP_con_mlcape_024.txt.gz
CAPE
0 0 0 0 0 0 0 0 0 0 0 0 0 0 0 0 0 0 0 0 0 0 38 334 363 803 1374 1277 1058 1104 1407 1518 2005 2277 2487 2428 2373 2483 2450 2545 2507 2520 2456 2532
0 0 0 0 0 0 0 0 0 0 0 0 0 0 0 0 0 0 0 0 0 0 0 0 129 626 848 1199 1055 1228 1519 1667 1891 2310 2524 2518 2564 2574 2562 2540 2625 2595 2429 2554
0 0 0 0 0 0 0 0 0 0 0 0 0 0 0 0 0 0 0 0 0 0 0 0 0 240 574 997 1094 1281 1517 1905 2029 2293 2441 2588 2595 2659 2584 2585 2645 2633 2639 2609
0 0 0 0 0 0 0 0 0 0 0 0 0 0 0 0 0 0 0 0 0 0 0 0 0 0 415 865 1289 1296 1784 1894 2156 2219 2417 2532 2641 2691 2733 2729 2604 2712 2764 2708
0 0 0 0 0 0 0 0 0 0 0 0 0 0 0 0 0 0 0 0 0 0 0 0 0 0 46 880 1236 1375 1749 1750 2007 2119 2175 2406 2696 2763 2830 2735 2770 2803 2862 2869
0 0 0 0 0 0 0 0 0 0 0 0 2 0 0 0 0 0 0 0 0 0 0 0 0 0 185 604 1019 1422 1768 1919 2105 2296 2406 2380 2589 2826 2898 2879 2811 2618 2737 2862
0 0 0 0 0 22 0 29 7 0 0 0 20 29 163 171 29 0 0 0 0 0 0 0 89 99 122 652 903 1558 1827 1862 2116 2468 2562 2580 2727 2935 2864 2804 2548 2814 2843 2921
0 0 0 0 0 0 15 23 3 3 0 0 53 268 276 356 424 49 0 49 402 0 0 376 906 856 478 738 1342 1777 1916 2002 2304 2608 2544 2412 2943 3083 2914 2851 2879 2830 2905 2929
0 0 0 0 0 0 0 0 0 0 0 0 0 81 375 692 456 317 447 828 1079 451 1241 1590 1801 1835 1748 1787 1802 1909 2083 2203 2427 2716 2751 2601 2959 3043 3025 3083 2737 2877 2768 2825
1 0 0 0 0 0 0 0 0 0 0 0 0 11 522 740 718 857 616 701 896 1342 1283 1620 2421 2650 2847 2578 2389 2507 2632 2780 2826 2990 3017 2916 2767 2884 2892 2861 3051 2819 2833 2944
18 13 1 0 0 0 0 2 0 0 0 0 0 0 595 783 580 371 242 343 741 829 869 904 860 747 703 838 1268 2589 2685 2675 2828 2853 2897 2975 3115 2842 2853 2968 2882 3099 2991 2876
4 1 2 2 3 0 4 0 0 0 0 2 7 35 12 37 188 427 617 799 894 848 787 492 499 710 989 954 1010 869 717 656 922 1236 1511 2128 2362 2831 2218 2214 2027 2153 2189 2653
11 34 45 36 22 0 0 0 0 0 5 6 41 45 43 59 143 105 236 306 423 494 936 934 332 277 425 1038 895 896 936 875 974 973 1388 1228 1326 1595 1859 2093 2298 2144 2070 1882
3 3 4 4 2 0 1 1 3 8 65 0 47 17 48 124 252 300 330 337 435 571 684 674 283 216 544 552 665 750 547 321 457 435 635 886 926 773 732 754 930 1325 1237 668
0 0 0 6 6 0 1 68 57 17 1 7 154 214 76 62 32 74 22 1 6 40 75 108 286 482 263 836 751 577 461 436 203 1 0 0 6 1 0 0 0 20 1 0
0 0 2 17 6 0 8 18 0 6 1 6 32 77 49 13 6 3 2 0 0 1 7 46 176 105 338 415 453 352 214 0 11 215 155 135 89 37 0 0 6 2 0 0
5 3 3 18 33 16 8 0 0 2 5 4 6 0 0 0 0 0 0 0 0 2 4 3 50 90 66 324 216 170 172 57 0 3 6 10 29 1 1 2 0 8 6 0
2 0 26 65 8 0 1 16 40 38 15 0 0 0 0 0 0 0 0 1 0 0 2 4 11 14 7 125 159 195 133 49 20 7 7 3 5 5 10 9 16 4 1 0
3 3 28 48 8 13 7 2 1 0 0 0 0 0 0 0 0 1 0 0 0 0 0 0 0 0 0 0 7 17 47 178 76 64 48 3 4 3 4 4 3 1 2 0
1 3 2 0 1 2 1 2 2 0 6 1 0 0 0 3 1 0 0 0 0 0 0 0 0 0 0 0 0 0 0 5 4 5 3 12 11 8 5 0 3 1 0 0
2 1 0 1 3 3 2 1 0 0 0 1 0 0 0 0 0 0 0 0 0 0 0 0 0 0 0 0 0 0 0 0 1 4 6 6 5 5 6 4 2 2 2 1
0 0 2 0 0 0 0 0 0 0 0 0 0 0 0 0 0 0 0 0 0 0 0 0 0 0 0 0 0 0 0 0 0 0 0 1 0 0 1 2 3 1 2 3
0 0 0 0 0 0 0 0 0 0 0 0 0 0 0 0 0 0 0 0 0 0 0 0 0 0 0 0 0 0 0 0 0 0 0 0 0 0 0 0 1 1 0 1
0 0 0 0 0 0 0 0 0 0 0 0 0 0 0 0 0 0 0 0 0 0 0 0 0 0 0 0 0 0 0 0 0 0 0 0 0 0 0 0 0 0 0 0
0 0 0 0 0 0 0 0 0 0 0 0 0 0 0 0 0 0 0 0 0 0 0 0 0 0 0 0 0 0 0 0 0 0 0 0 0 0 0 0 0 0 0 0
0 0 0 0 0 0 0 0 0 0 0 0 0 0 0 0 0 0 0 0 0 0 0 0 0 0 0 0 0 0 0 0 0 0 0 0 0 0 0 0 0 1 1 0
0 0 0 0 0 0 0 0 0 0 0 0 0 0 0 0 0 0 0 0 0 0 0 0 0 0 0 0 0 0 0 0 0 0 0 0 0 0 0 0 0 0 0 0

GFSNGP_con_mlcape_027.txt.gz
CAPE
0 0 0 0 0 0 0 0 0 0 0 0 0 0 0 0 0 0 0 0 0 0 20 100 528 1386 1690 1560 1726 1852 2151 2264 2375 2819 3087 3141 3078 3037 3178 3151 3197 3188 3127 3098
0 0 0 0 0 0 0 0 0 0 0 0 0 0 0 0 0 0 0 0 0 0 0 177 325 972 1372 1990 1702 1631 2220 2258 2453 2725 3168 3312 3318 3320 3439 3264 3371 3377 3251 3110
0 0 0 0 0 0 0 0 0 0 0 0 0 0 0 0 0 0 0 0 0 0 0 0 153 339 740 1552 1896 1761 1847 2472 2353 2746 3034 3382 3570 3542 3497 3533 3521 3478 3394 3358
1 0 0 0 0 0 0 0 0 0 0 0 0 0 0 0 0 0 0 0 0 0 0 0 0 0 233 528 1749 2081 2231 2235 2637 2570 3109 3404 3575 3603 3684 3667 3551 3581 3593 3564
0 0 0 0 0 0 0 0 0 0 0 0 0 0 0 0 0 0 0 0 0 0 0 0 0 0 0 477 1204 1983 2165 2610 2489 2849 3051 3440 3518 3595 3712 3696 3700 3588 3672 3655
0 0 5 0 0 0 0 0 0 0 0 0 0 0 1 177 86 21 1 0 0 0 0 0 0 0 0 0 561 1854 2333 2552 2881 3052 3179 3435 3571 3610 3720 3764 3734 3654 3626 3674
0 0 0 0 5 3 0 105 92 4 2 3 2 93 356 378 422 407 403 302 41 116 106 0 0 0 36 84 343 1299 1982 2383 3129 3254 3507 3502 3490 3674 3868 3877 3573 3687 3584 3651
0 0 0 0 0 29 8 1 3 9 3 3 9 22 47 159 448 709 625 362 6 78 514 128 0 301 722 644 1037 1698 2066 2484 2988 3274 3252 3149 3671 3727 3863 3879 3794 3635 3713 3541
0 0 0 0 0 0 0 0 0 0 0 0 0 0 0 41 703 1034 798 898 863 951 708 944 1838 1897 1580 1866 1821 2173 2581 2912 3147 3344 3421 3262 3583 3756 3674 3713 3293 3272 3237 3417
0 0 0 0 0 0 0 0 0 0 0 0 0 0 0 80 1075 1090 1110 1069 1033 1401 1660 2162 2973 2780 2926 3384 2791 2454 2763 2869 2991 3145 3324 3398 3092 3430 3240 3137 3200 3250 2969 3200
0 0 0 0 0 0 0 0 0 0 0 0 0 0 0 130 1265 1173 1000 819 1350 1649 1965 1980 1996 1868 1855 2066 3067 3154 3283 3264 3275 3198 3240 3465 3455 2943 3108 3217 3028 3151 3189 2969
17 8 1 0 0 0 0 0 0 0 0 0 0 0 2 53 649 1245 1211 1392 1672 1765 1457 1311 1515 1625 1679 1716 1784 1966 2881 3092 2986 2865 3106 3183 3138 3420 2826 2654 2399 2281 2001 2039
27 1 4 13 14 8 0 0 0 0 0 0 0 5 34 129 447 444 532 701 1051 1358 1151 732 551 866 1258 1430 1525 1609 1729 1479 1232 817 1104 1276 1642 1855 1951 2062 2026 2138 1678 1013
0 7 27 22 32 37 8 6 0 0 0 0 0 0 16 47 211 505 763 1203 1244 946 791 690 641 966 1035 1097 1381 1383 688 482 948 884 1090 1345 1445 1243 916 630 515 386 22 0
8 1 1 11 5 1 0 23 34 26 13 24 32 12 8 37 504 745 670 571 408 359 454 508 538 693 831 773 876 610 661 715 644 303 70 138 436 515 270 97 60 0 0 0
8 2 5 17 12 4 1 13 6 2 42 1 9 0 53 285 38 42 12 45 126 65 121 109 266 490 343 532 537 453 162 15 131 419 388 506 421 344 75 7 1 0 0 0
11 7 0 2 8 3 0 8 2 41 1 7 3 4 139 27 1 10 5 25 13 4 3 20 169 303 364 292 201 169 127 117 62 164 100 126 190 161 101 68 21 0 0 0
0 0 0 0 0 29 16 52 57 14 7 9 4 1 0 0 5 23 19 14 15 7 3 3 3 1 0 60 95 208 83 36 16 8 3 5 4 4 5 2 1 0 0 3
7 7 10 41 117 43 22 9 3 2 3 2 1 2 3 2 0 0 0 0 0 0 5 4 0 0 0 0 0 6 26 16 3 0 20 22 7 1 4 2 3 2 2 3
1 3 3 2 2 2 4 4 4 3 3 0 0 2 2 11 3 0 0 0 1 0 0 0 4 1 0 0 0 1 7 1 1 0 0 2 0 1 2 0 2 2 2 3
5 4 3 4 3 2 4 3 2 0 0 0 0 0 0 0 0 0 0 0 0 0 0 0 0 2 1 4 0 0 0 0 1 3 3 1 1 2 3 2 1 3 3 1
9 4 2 2 2 2 2 0 0 0 0 0 0 0 0 0 0 0 0 0 0 0 0 0 0 0 0 0 2 2 0 0 0 0 0 0 0 0 1 0 0 0 2 2
0 0 2 0 0 0 0 0 0 0 0 0 0 0 0 0 0 0 0 0 0 0 0 0 0 0 0 0 0 0 3 4 2 0 0 0 0 0 0 0 0 0 0 0
0 4 0 0 0 0 0 0 0 0 0 0 0 0 0 0 0 0 0 0 0 0 0 0 0 0 0 0 0 0 0 0 0 1 1 0 0 1 2 1 0 0 0 0
0 0 0 0 0 0 0 0 0 0 0 0 0 0 0 0 0 0 0 0 0 0 0 0 0 0 0 0 0 0 0 0 0 0 0 0 0 0 0 0 0 0 0 1
0 0 0 0 0 0 0 0 0 0 0 0 0 0 0 0 0 0 0 0 0 0 0 0 0 0 0 0 0 0 0 0 0 0 0 0 0 0 0 0 0 0 0 0
0 0 0 0 0 0 0 0 0 0 0 0 0 0 0 0 0 0 0 0 0 0 0 0 0 0 0 0 0 0 0 0 0 0 0 0 0 0 0 0 1 1 1 0

GFSNGP_con_mlcape_030.txt.gz
CAPE
0 0 1 0 0 0 0 0 0 0 0 0 0 0 0 0 0 5 29 201 438 676 1205 1190 1474 1818 2033 1980 1975 2046 2107 2901 2977 3057 3275 3042 3036 3023 3196 2810 2866 2913 2923 3005
0 0 0 0 0 0 0 0 0 0 0 0 0 0 0 0 0 0 0 14 19 32 74 284 1575 1878 1969 2077 2298 2212 2227 2371 2689 2904 3067 3445 3260 3216 3230 3294 3216 3235 3283 3144
0 0 0 0 0 0 0 0 0 0 0 0 0 0 0 0 0 0 0 0 0 0 0 16 199 1900 2132 2114 2163 2465 2429 2588 2613 2825 2987 3228 3478 3443 3385 3419 3488 3413 3447 3465
0 0 0 0 0 0 0 0 0 0 0 0 0 0 0 0 0 0 0 0 0 0 0 0 0 248 1089 2213 2172 2092 2378 2477 3167 3033 3056 3276 3469 3626 3673 3671 3688 3624 3638 3672
0 0 0 3 0 0 0 0 0 0 0 0 0 0 0 0 0 0 0 0 0 0 0 0 0 22 279 426 1913 2215 1994 2296 2314 3248 3263 3419 3586 3742 3854 3912 3880 3884 3815 3842
0 0 0 0 0 0 0 0 112 6 0 0 0 0 278 639 560 529 573 547 510 306 145 14 10 0 0 606 1460 1742 1883 2113 2759 2649 3175 3349 3711 3928 4018 4094 4076 4054 4024 3943
0 0 0 0 0 0 0 43 43 27 32 9 118 469 473 104 231 652 743 635 524 399 257 424 337 36 110 39 372 1810 2155 2467 2863 3298 3116 3430 3625 4062 4139 4202 4191 4098 4063 4096
0 0 0 0 0 7 8 0 0 0 0 0 0 0 8 0 38 532 964 887 546 364 104 403 632 215 50 290 655 976 1749 2634 3136 3267 3498 3649 3752 4105 4170 4096 4086 4032 4121 4037
0 0 0 0 0 0 0 0 0 0 0 0 0 0 0 47 172 1106 1369 1151 1431 1400 1288 1446 1291 2064 1885 2142 2340 1847 2951 2729 2935 3576 3805 3409 3887 3947 4092 4084 4063 4059 4027 3961
0 0 0 0 0 0 0 0 0 0 0 0 0 0 0 25 210 757 1659 1371 1055 1269 1683 2910 3684 3594 3225 3597 2921 2750 3335 3513 3517 3839 3941 3912 3804 4061 3996 3943 3928 3886 3847 3892
0 0 0 0 0 0 0 0 0 0 0 0 0 0 0 0 93 251 1112 2083 2367 2286 2340 2626 2527 2463 2387 2619 3294 3430 3200 3480 3737 3691 3769 3942 3887 3400 4074 3803 3633 3712 3659 3478
0 0 0 0 0 0 0 0 0 0 0 0 0 0 0 7 95 186 481 1070 1755 2208 1919 2010 2074 2008 2150 2239 2500 3296 3792 3745 3650 3456 3578 3434 3761 3529 3361 2903 1979 1266 912 1322
0 0 0 0 0 0 0 0 0 0 0 0 0 0 0 0 18 157 395 804 908 1712 1463 1338 1188 1402 1649 1922 2141 2416 2252 2279 1545 2037 1907 3915 3530 3962 3848 1381 768 449 18 0
0 0 0 0 0 0 0 0 0 0 0 0 0 0 0 2 23 275 997 1008 1064 918 763 675 786 1189 1575 1893 1599 928 1089 879 1147 1217 1408 1315 1071 980 869 751 862 440 7 0
1 0 0 0 0 2 1 0 0 0 0 0 0 0 0 0 9 187 829 754 1047 893 859 866 828 801 1096 1376 1090 886 1182 957 566 321 323 564 714 674 413 247 262 145 12 0
0 0 1 0 0 0 0 0 0 0 0 0 0 0 9 0 1 100 374 358 363 177 230 465 495 695 998 827 540 186 186 170 548 751 640 691 558 489 229 79 5 21 0 0
4 8 0 9 12 11 9 5 0 0 0 0 0 35 19 21 40 44 1 0 3 2 0 64 158 279 498 347 278 286 211 167 163 158 120 98 74 39 16 8 6 1 0 0
8 3 0 0 0 2 2 4 13 21 26 53 60 22 22 58 16 6 1 1 3 0 0 0 0 0 0 90 147 99 50 13 2 3 1 1 0 0 0 1 1 0 0 0
2 2 3 3 8 10 9 7 3 3 2 0 3 2 2 2 2 1 0 0 0 0 0 0 0 0 0 0 1 1 6 0 0 0 0 1 1 5 2 2 2 1 2 3
2 3 2 2 1 3 6 5 4 4 3 1 2 0 2 2 2 0 0 0 0 0 0 0 0 0 0 0 0 2 1 0 0 0 0 0 0 0 0 0 0 0 3 2
27 19 8 5 8 1 4 2 0 2 1 3 3 1 1 3 1 0 0 0 0 0 0 0 0 0 0 0 0 0 3 1 0 0 0 0 0 0 0 0 0 0 2 3
32 23 13 10 7 2 3 2 1 2 1 0 0 3 0 0 0 0 0 0 0 0 0 0 0 0 0 0 0 0 0 0 0 0 0 0 0 0 0 0 0 0 1 2
30 13 7 8 0 1 0 0 0 0 0 0 1 3 0 0 0 0 0 0 0 0 0 0 0 0 0 0 0 0 0 0 0 1 1 0 2 0 0 0 0 0 0 0
8 0 20 7 0 0 1 1 2 0 0 0 0 0 0 0 0 0 0 0 0 0 0 0 0 0 0 0 0 0 0 0 0 0 0 0 0 0 0 0 0 0 0 0
0 5 0 0 3 8 8 10 1 0 0 0 0 0 0 0 0 0 0 0 0 0 0 0 0 0 0 0 0 0 0 0 0 0 0 0 0 0 0 0 0 0 0 0
0 0 3 0 0 0 0 0 0 0 0 0 0 0 0 0 0 0 0 0 0 0 0 0 0 0 0 0 0 0 0 0 0 0 0 0 0 0 1 0 0 0 0 0
0 0 3 0 0 0 0 0 0 0 0 0 0 0 0 0 0 0 0 0 0 0 0 0 0 0 0 0 0 0 0 0 0 0 0 0 0 0 0 1 1 0 0 0

GFSNGP_con_mlcape_033.txt.gz
CAPE
0 0 0 1 0 0 0 0 0 0 0 0 0 0 0 0 1 4 0 421 952 1210 1456 1552 1325 1061 1051 1066 1229 1514 2312 2500 2514 2629 2595 2597 2543 2631 2272 1433 1920 2131 2313 2263
0 0 0 0 0 0 0 0 0 0 0 0 0 4 0 0 0 2 155 373 777 988 1406 1601 1609 1385 1224 1215 1318 1451 2040 2339 2707 2765 2745 2686 2710 2576 2777 2676 1964 2177 2469 2266
0 0 0 0 0 0 0 0 0 0 0 0 1 0 0 0 0 0 0 0 14 112 1058 1545 1683 1761 1620 1525 1465 1594 1711 2177 2573 2786 2786 2825 2779 2798 2686 2693 2838 2394 2151 2653
0 0 0 0 0 1 0 0 0 0 1 0 26 50 2 0 0 0 0 0 0 0 0 0 748 1933 1895 1888 1881 1750 1812 1933 2106 2726 2866 2901 3021 2890 2969 2881 2915 3004 2905 2586
0 0 0 0 0 0 1 7 8 124 70 72 113 9 195 415 343 247 96 71 88 54 111 0 0 192 2206 2185 2241 2319 2147 2189 2199 2446 2715 2924 2980 3180 3174 3224 3168 3167 3258 3228
0 0 0 0 0 0 0 4 0 205 228 23 31 6 161 242 480 580 612 545 274 179 125 330 107 110 1286 2015 2322 2406 2617 2761 2810 2631 2775 2819 3007 3135 3288 3374 3401 3457 3388 3525
0 0 0 0 0 0 0 0 0 0 9 213 82 27 4 39 485 1115 1019 851 489 331 236 157 639 89 152 858 1518 1979 2058 2045 2415 2825 3004 3230 3197 3258 3448 3538 3624 3645 3753 3699
0 0 0 0 0 0 0 0 0 0 0 0 0 0 5 91 417 973 1554 1277 1130 1038 1084 645 241 343 132 329 1103 1701 2122 2340 2268 2325 2496 2986 3281 3593 3731 3853 3871 3895 3903 3911
0 0 0 0 0 0 0 0 0 0 0 0 0 0 0 0 80 105 984 1520 1607 1588 1811 3137 2812 2270 1276 2012 2078 2228 1535 1371 2471 2563 2821 2997 3243 3631 3871 3997 4017 4011 3977 3927
0 0 0 0 0 0 0 0 0 0 0 0 0 0 0 0 31 28 144 778 1378 1884 2597 2793 2940 2692 2552 2517 2697 2996 1975 2938 3030 3278 3379 3331 3641 3777 3957 4007 4032 3963 3808 3669
0 1 0 0 0 0 0 0 0 0 0 0 0 0 0 0 0 0 0 1 205 837 1693 2117 2167 2126 2230 2420 2761 3026 3160 3967 3605 3464 3517 3713 3629 3782 3793 3514 3572 3501 3451 3285
0 0 1 0 0 0 0 0 0 0 0 0 0 0 0 0 0 0 0 0 11 293 901 1790 1614 1451 1296 1746 1849 2642 3489 3491 3718 3673 3841 3841 3636 2606 1234 1770 1726 1554 1969 1678
0 0 0 0 0 0 0 0 0 0 0 0 0 0 0 0 0 0 0 34 350 619 1230 1423 1250 1156 1168 1624 1772 2072 2409 3360 3384 3041 3341 3398 3611 2940 1384 0 0 0 0 0
0 0 0 0 0 0 0 0 0 0 0 0 0 0 0 0 0 0 0 54 298 825 1117 725 815 880 1333 1785 1451 1240 1189 874 1475 1340 1991 2115 2164 3178 1336 784 334 0 0 0
1 0 0 0 0 0 0 0 0 0 0 0 0 0 0 0 0 0 0 61 475 1190 1094 816 729 734 956 980 854 615 530 421 359 472 512 642 381 241 352 171 32 0 0 0
0 0 0 1 0 0 0 0 0 0 0 0 0 0 0 0 0 0 0 381 814 762 563 583 563 530 891 339 235 305 283 439 373 310 278 177 132 44 23 19 0 0 0 0
13 1 1 1 0 0 0 0 0 0 0 0 0 0 0 0 0 0 50 28 1 0 0 6 2 17 577 450 238 107 43 30 13 0 0 0 0 0 0 0 0 0 0 0
3 6 1 9 4 0 0 0 0 0 0 0 0 0 0 0 2 0 0 0 0 0 0 0 0 2 58 191 4 0 0 0 0 0 0 0 0 0 0 0 1 1 1 1
4 5 4 4 1 0 0 2 1 1 0 0 1 1 2 1 2 0 0 0 0 0 0 0 0 0 0 0 0 0 0 0 0 0 0 0 0 0 0 0 0 2 1 2
0 0 0 1 2 1 3 2 1 3 3 1 2 2 2 3 1 1 1 0 3 3 0 0 0 0 0 0 0 0 0 0 0 0 0 0 0 0 0 0 1 2 3 3
0 0 0 0 9 3 0 5 3 2 3 4 2 3 4 3 3 1 2 0 5 0 0 0 0 0 0 0 0 0 0 0 0 0 0 0 0 0 0 0 0 1 3 2
0 0 0 0 0 5 11 9 5 0 2 0 1 3 1 2 1 2 2 1 1 0 0 0 0 0 0 0 0 0 0 0 0 0 0 0 0 0 0 0 0 0 0 0
27 0 1 0 0 0 0 0 0 0 0 0 0 0 0 1 0 0 0 0 0 0 0 0 0 0 0 0 0 0 0 0 0 0 0 0 0 0 0 0 0 0 0 0
1 28 0 2 0 0 0 1 0 0 0 0 0 0 0 0 0 0 0 0 0 0 0 0 0 0 0 0 0 0 0 0 0 0 0 0 0 0 0 0 0 0 0 0
11 0 0 0 11 23 1 0 0 3 1 0 0 0 0 0 0 0 0 0 0 0 0 0 0 0 0 0 0 0 0 0 0 0 0 0 0 0 0 0 0 0 0 0
0 19 0 0 0 0 0 0 0 0 0 0 0 0 0 0 0 0 0 0 0 0 0 0 0 0 0 0 0 0 0 0 0 0 0 0 0 0 0 0 0 0 0 0
0 0 0 0 0 0 0 0 0 0 0 0 0 0 0 0 0 0 0 0 0 0 0 0 0 0 0 0 0 0 0 0 0 0 0 0 0 0 0 0 0 0 0 0

GFSNGP_con_mlcape_036.txt.gz
CAPE
0 0 0 0 0 0 0 0 0 0 0 0 0 0 0 0 0 0 33 594 762 826 745 779 678 586 918 1059 1398 1740 1754 1747 1646 1520 1647 1777 1628 1343 1105 1244 1520 1264 910 1154
0 0 0 0 0 0 0 0 0 0 0 0 0 0 0 0 0 0 227 762 1038 1010 969 1019 905 782 878 1007 1256 1712 1760 1785 1856 1890 1743 1776 1889 1911 1692 1449 1219 1422 1471 1569
0 0 0 0 0 0 0 0 0 0 0 0 0 1 1 0 0 3 304 864 1165 1218 1153 1215 1111 903 890 947 1100 1633 1769 1867 2031 2039 2155 2068 2049 2144 2156 2006 1871 1368 1322 1642
0 0 0 0 0 0 0 0 0 0 0 13 104 178 98 44 0 0 27 297 581 1057 1270 1359 1246 1052 929 979 1078 1199 1550 1908 2127 2356 2304 2402 2434 2374 2365 2373 2445 2249 1853 1693
0 0 0 0 0 0 0 0 0 0 116 287 221 61 413 476 498 132 1 1 119 384 803 1221 1594 1509 1271 1169 1217 1264 1350 1455 2085 2310 2494 2591 2586 2625 2618 2644 2556 2546 2596 2394
0 0 0 0 0 0 0 0 0 0 271 220 46 58 388 530 836 807 353 113 17 47 151 34 396 1569 1740 1629 1556 1510 1486 1620 1669 2177 2425 2552 2618 2674 2769 2742 2728 2691 2658 2746
0 0 0 0 0 0 0 0 0 0 0 11 64 76 86 301 584 1105 1229 980 878 787 448 122 149 261 1545 1895 2003 1947 1828 1671 1772 1840 2068 2425 2607 2783 2846 2958 2880 2912 2927 2886
0 0 0 1 0 0 0 0 0 0 0 0 0 0 3 15 122 458 885 1436 2190 1773 1712 1702 946 644 1123 1844 2101 2020 2206 2289 2263 2308 2233 2385 2512 2665 2828 2866 3026 3091 3144 3260
2 1 1 0 2 0 0 0 0 0 0 0 0 0 0 0 0 0 56 709 1390 2160 2453 2427 2191 2034 1592 2031 2216 2155 1913 2225 2344 2540 2793 2913 2864 2853 2910 3074 3120 3233 3346 3406
0 0 0 0 0 0 0 0 0 0 0 0 0 0 0 0 0 0 0 18 429 1197 1930 1972 1965 2071 2129 2224 2346 2444 1939 1715 1663 1512 2212 2602 2840 2988 3061 3238 3443 3567 3633 3683
0 0 0 0 0 0 0 0 0 0 0 0 0 0 0 0 0 0 0 1 145 670 1208 1608 1442 1190 1034 1163 1588 2444 2584 2836 2700 2353 2461 2805 2397 2412 3360 3439 3505 3646 3786 3774
0 0 0 0 0 0 0 0 0 0 0 0 0 0 0 0 0 0 0 0 136 403 798 1190 1273 1084 907 1056 1304 1485 2257 3025 3721 3586 3429 3337 2548 1548 239 1088 2225 2941 3002 2529
2 0 0 0 0 0 0 0 0 0 0 0 0 0 0 0 0 0 0 0 0 164 614 984 709 752 976 1058 1245 1092 1638 1591 2976 3554 3690 3482 2296 1614 1289 20 4 8 10 3
2 0 0 0 0 0 0 0 0 0 0 0 0 0 0 0 0 0 0 0 21 192 426 765 613 681 1066 964 1027 831 805 1043 1939 2520 2799 3331 2334 1415 917 1068 556 0 0 0
2 3 1 0 0 0 0 0 0 0 0 0 0 0 0 0 0 0 0 0 34 583 893 870 619 595 700 533 500 491 403 529 618 603 827 1707 1487 572 254 0 0 0 0 0
1 0 0 0 0 0 0 0 0 0 0 0 0 0 0 0 0 0 0 0 15 45 57 308 208 63 360 228 182 296 109 171 249 176 35 204 296 84 0 0 0 0 0 0
3 1 0 0 0 0 0 0 0 0 0 0 0 0 0 0 0 0 0 0 0 0 0 0 0 0 121 194 63 67 18 0 0 0 0 0 0 0 0 0 2 1 0 0
2 4 4 2 20 5 10 8 0 0 0 0 0 0 0 0 0 0 0 0 0 0 0 0 0 0 222 9 2 0 0 0 0 0 0 0 0 1 0 0 2 1 1 1
0 1 2 3 2 4 3 2 1 0 0 0 1 1 1 4 3 2 0 0 0 0 0 0 0 4 3 1 0 0 0 0 0 0 0 0 0 1 1 2 2 2 2 1
0 0 0 0 1 2 2 3 3 3 2 3 2 1 1 1 2 3 1 0 4 2 1 0 0 0 0 0 0 0 0 0 0 0 0 0 0 1 3 2 2 2 1 2
0 0 0 0 0 0 0 2 3 2 2 2 3 2 3 4 3 1 2 0 1 2 1 0 0 0 0 0 0 0 0 0 0 0 0 0 0 0 0 0 0 0 0 0
0 0 0 0 0 0 0 0 0 0 1 0 1 2 0 0 1 2 3 2 0 0 1 1 1 0 0 0 0 0 0 0 0 0 0 0 0 0 0 0 0 0 0 0
5 0 0 0 0 0 0 0 0 0 1 3 1 1 1 4 2 2 1 0 0 0 0 0 0 0 0 0 0 0 0 0 0 0 0 0 0 0 0 0 0 0 0 0
29 20 4 0 0 0 0 0 0 0 0 5 8 1 3 4 3 2 0 0 0 0 0 0 0 0 0 0 0 0 0 0 0 0 0 0 0 0 0 0 0 0 0 0
0 14 27 29 8 0 0 0 0 0 0 0 0 0 0 2 2 2 0 1 0 0 0 0 0 0 0 0 0 0 0 0 0 0 0 0 0 0 0 0 0 0 0 0
0 0 0 0 0 0 0 0 0 0 0 0 0 0 0 0 0 0 0 0 0 0 0 0 0 0 0 0 0 0 0 0 0 0 0 0 0 0 0 0 0 0 0 0
0 0 0 0 0 0 0 0 0 0 0 0 0 0 0 0 0 0 0 0 0 0 0 0 0 0 0 0 0 0 0 0 0 0 0 0 0 0 0 0 0 0 0 0

GFSNGP_con_mlcape_039.txt.gz
CAPE
0 0 0 0 0 0 0 0 0 0 0 0 0 0 0 0 0 0 0 0 220 255 110 285 388 350 585 904 1133 1028 978 1094 1153 1194 1215 1127 956 876 1097 1183 930 785 921 1084
0 0 0 0 0 0 0 0 0 0 0 0 0 0 0 0 0 0 0 0 42 252 288 365 405 402 496 905 1314 1359 1259 1210 1212 1204 1303 1314 1239 1146 999 1105 1264 1072 753 894
0 0 0 0 0 0 0 0 0 0 0 0 0 0 6 1 0 0 0 1 83 242 412 473 492 451 526 806 1200 1507 1472 1452 1418 1343 1292 1358 1418 1422 1293 1068 1107 1166 1202 953
0 0 0 0 0 0 0 0 0 0 0 23 47 185 122 179 16 0 0 0 78 403 588 580 592 552 529 875 1000 1423 1600 1622 1657 1692 1594 1514 1602 1683 1686 1589 1353 1230 1112 1232
0 0 0 0 0 0 0 0 0 0 59 405 340 185 256 139 320 32 13 163 420 653 735 713 789 731 707 895 1046 1253 1498 1680 1823 1854 1842 1926 1864 1807 1874 1946 1961 1847 1735 1489
0 0 0 0 0 0 0 0 0 0 0 111 144 53 179 91 304 566 564 405 648 839 937 1012 987 859 860 965 1014 1125 1403 1679 1895 1956 2021 2057 2127 2139 2097 2198 2211 2314 2394 2434
0 2 0 0 0 0 0 0 0 0 0 0 28 18 3 0 325 728 1119 990 733 622 744 768 1061 1160 1165 1102 1164 1186 1113 1219 1565 1912 2023 2229 2248 2337 2410 2451 2519 2563 2559 2506
1 0 0 0 0 0 0 0 0 0 0 0 0 0 0 0 83 542 882 1072 1266 908 737 939 1041 1353 1388 1482 1578 1340 1230 1274 1376 1464 1957 2146 2376 2445 2511 2613 2644 2657 2663 2678
1 1 0 7 4 0 0 0 0 0 0 0 0 0 0 0 0 28 522 1217 1522 1720 1738 1778 1866 1982 2058 2225 2478 1934 1907 1902 1684 1639 1670 1829 2171 2309 2559 2670 2740 2820 2844 2857
0 0 0 0 0 0 0 0 0 0 0 0 0 0 0 0 0 0 27 451 994 1421 1438 1298 1096 1240 1483 1883 2142 2239 2132 2235 2145 2306 2311 2118 2129 2289 2432 2619 2739 2804 2904 3003
0 0 0 0 0 0 0 0 0 0 0 0 0 0 0 0 0 0 0 1 131 721 1194 1126 866 846 893 1035 1283 2085 2205 2340 2789 2492 2048 2233 1659 1915 2648 2735 2765 2972 3030 3139
0 0 0 0 0 0 0 0 0 0 0 0 0 0 0 0 0 0 0 0 6 101 543 656 622 694 813 883 896 878 1501 2073 2557 3077 2832 1826 1143 845 67 869 1848 2557 3083 3154
0 0 0 0 0 0 0 0 0 0 0 0 0 0 0 0 0 0 0 0 0 20 299 584 455 624 963 1013 1053 724 986 1311 1906 3109 3390 2351 1627 1629 1533 112 198 361 691 498
1 4 3 0 0 0 0 0 0 0 0 0 0 0 0 0 0 0 0 0 0 9 622 618 483 513 637 353 431 538 634 1031 1567 2615 3303 2461 1442 956 748 1116 1057 107 0 0
1 2 1 0 0 0 0 0 0 0 0 0 0 0 0 0 0 0 0 0 0 0 88 594 408 152 126 176 241 434 464 660 950 1403 1992 1535 737 245 64 0 2 0 0 0
2 2 2 0 0 0 0 0 0 0 0 0 0 0 0 0 0 0 0 0 0 0 0 6 104 0 9 119 148 170 104 116 383 760 962 892 371 120 0 0 0 0 0 0
2 2 2 2 3 0 0 0 0 0 0 1 2 0 0 0 0 0 0 0 0 0 0 0 0 0 29 74 110 53 3 0 6 56 97 62 0 0 0 0 0 0 0 0
2 1 2 2 2 2 2 2 4 3 0 1 0 0 0 0 0 0 0 0 0 0 0 0 0 0 184 49 12 0 0 0 0 0 2 3 2 1 0 1 1 1 4 3
0 1 0 0 1 3 3 3 3 2 2 1 0 0 0 0 0 0 0 0 0 0 0 0 0 0 26 0 0 0 0 0 0 0 1 0 0 1 3 3 4 4 2 1
0 0 0 0 0 0 1 3 2 1 2 2 2 1 2 3 1 2 4 1 2 3 1 2 1 0 0 0 0 0 0 0 0 0 2 2 2 2 2 2 2 1 1 2
0 0 0 0 0 0 0 0 0 2 2 1 1 2 3 3 2 2 0 2 1 1 1 3 2 0 0 0 0 0 0 1 0 0 0 2 3 3 2 0 0 0 0 0
0 0 0 0 0 0 0 0 0 0 0 1 0 0 1 2 1 2 1 3 2 1 3 1 1 0 0 0 0 0 0 0 0 0 1 0 0 0 0 0 0 0 0 0
4 0 0 0 0 0 0 0 0 0 0 0 0 0 1 2 2 2 1 0 2 1 2 3 1 0 0 0 0 0 0 0 0 0 0 0 0 0 0 0 0 0 0 0
9 13 4 2 4 0 0 0 0 0 0 0 0 0 0 0 2 0 3 0 0 0 1 0 0 0 0 0 0 0 0 0 0 0 0 0 0 0 0 0 0 0 0 0
0 0 0 17 13 0 0 0 0 0 0 0 0 0 0 0 1 3 2 3 4 0 0 0 0 0 0 0 0 0 0 0 0 0 0 0 0 0 0 0 0 0 0 0
0 0 0 0 0 0 0 0 0 0 0 0 0 0 0 0 0 0 0 4 3 6 1 0 0 0 0 0 0 0 0 0 0 0 0 0 0 0 0 0 0 0 0 0
0 0 0 0 0 0 0 0 0 0 0 0 0 0 0 0 0 0 0 0 0 0 0 0 0 0 0 0 0 0 0 0 0 0 0 0 0 0 0 0 0 0 0 0

GFSNGP_con_mlcape_042.txt.gz
CAPE
0 0 0 0 0 0 0 0 0 0 0 0 0 0 0 0 0 0 0 0 1 29 90 167 210 175 308 304 219 224 300 490 485 479 524 550 664 781 666 475 509 527 591 609
0 0 0 0 0 0 0 0 0 0 0 0 0 0 0 0 0 0 0 0 0 2 91 142 203 254 337 478 443 371 355 532 599 604 586 580 537 592 881 881 805 746 718 757
0 0 0 0 0 0 0 0 0 0 0 0 0 1 1 0 0 0 0 0 0 0 78 130 238 280 333 526 676 641 581 626 777 835 866 816 752 672 663 812 1002 980 871 864
0 0 0 0 0 0 0 0 0 0 0 0 1 136 101 33 0 29 0 0 0 4 90 149 256 323 288 598 931 912 877 908 1029 1094 1085 1099 1093 1034 955 887 909 1077 1127 1072
0 0 0 0 0 0 0 0 0 0 0 4 150 103 236 19 0 159 442 0 4 74 175 194 265 339 391 691 1098 1151 1106 1169 1238 1262 1210 1217 1258 1280 1273 1266 1141 1043 1083 1150
0 0 31 0 0 0 0 0 0 0 0 0 111 18 67 1 39 234 675 160 3 94 233 319 369 378 502 684 998 1153 1221 1343 1484 1488 1430 1365 1347 1349 1472 1561 1551 1526 1391 1368
2 3 1 1 0 0 0 0 0 0 0 0 0 0 0 7 139 282 860 725 368 421 492 495 499 493 616 736 861 1001 1270 1524 1562 1643 1666 1677 1664 1655 1678 1773 1854 1948 1986 1999
0 1 1 3 0 0 0 0 0 0 0 0 0 0 0 9 123 229 526 831 992 920 795 598 634 693 748 801 816 859 1098 1403 1574 1722 1863 1941 1951 2024 2114 2115 2164 2237 2283 2352
0 1 0 2 0 0 0 0 0 0 0 0 0 0 0 0 1 20 204 471 766 887 951 981 963 972 1073 1353 1386 990 993 1134 1277 1627 1836 2054 2128 2145 2258 2369 2437 2461 2521 2555
1 0 0 0 0 0 0 0 0 0 0 0 0 0 0 0 0 0 0 102 343 681 862 1031 1201 1463 1696 1966 1926 1605 1480 1308 1288 1397 1544 1867 2064 2247 2341 2391 2504 2576 2588 2619
0 0 0 0 0 0 0 0 0 0 0 0 0 0 0 0 0 0 0 0 72 354 487 492 619 806 897 1119 1824 2126 2334 2428 2058 1895 1668 1530 1021 1330 2135 2266 2419 2585 2623 2733
0 0 1 0 0 0 0 0 0 0 0 0 0 0 0 0 0 0 0 0 2 283 327 345 548 770 837 807 676 1049 1961 2206 2765 2430 1947 1529 1269 844 4 349 1105 1914 2559 2723
3 3 0 0 0 0 0 0 0 0 0 0 0 0 0 0 0 0 0 0 0 1 334 299 377 491 371 314 498 545 626 1067 1637 2837 2190 1529 1157 1210 1211 42 135 561 1161 1724
2 1 1 0 0 0 0 0 0 0 0 0 0 0 0 0 0 0 0 0 0 0 0 133 123 67 15 69 188 441 594 702 1073 2757 2508 1594 1124 896 778 1183 1364 344 0 0
2 2 1 1 0 0 0 0 0 0 0 0 0 0 0 0 0 0 0 0 0 0 0 0 2 9 0 13 110 375 469 650 947 2054 1946 1225 577 387 316 219 83 2 0 0
2 1 1 2 0 0 0 0 0 0 0 0 0 0 0 0 0 0 0 0 0 0 0 0 0 0 0 1 52 141 77 275 704 956 894 687 278 255 161 18 0 0 0 0
1 1 1 1 3 2 2 2 0 0 0 0 15 0 0 0 0 0 0 0 0 0 0 0 0 0 0 0 3 19 34 37 214 352 289 168 25 5 5 2 0 0 0 0
0 2 2 1 2 2 3 4 3 3 1 1 1 0 0 0 0 0 0 0 0 0 0 0 0 0 0 0 0 0 0 0 0 0 0 2 5 3 2 1 0 0 3 2
0 0 0 1 1 0 2 2 1 1 2 2 1 1 3 3 4 3 1 1 0 0 0 1 0 0 0 0 0 0 0 0 0 0 0 2 1 2 3 3 3 3 4 4
0 0 0 0 0 0 0 0 0 0 1 1 1 2 2 2 2 4 2 1 2 3 3 1 3 1 0 1 0 0 0 0 0 0 0 1 4 4 4 5 5 5 5 5
0 0 0 0 0 0 0 0 0 1 2 0 1 1 1 1 1 2 3 2 3 2 3 2 0 1 0 0 0 0 0 0 2 2 4 5 5 4 4 2 0 0 0 0
0 0 0 0 0 0 0 0 0 0 0 0 0 0 2 0 1 1 1 2 2 2 2 4 2 1 0 0 0 0 0 0 0 1 2 1 1 1 0 0 0 0 0 0
5 0 0 0 0 0 0 4 0 0 0 0 0 0 2 2 2 1 1 1 2 2 1 3 4 0 1 2 1 2 1 1 0 0 0 0 0 0 0 0 0 0 0 0
0 7 15 21 10 10 1 0 0 0 0 0 0 0 0 1 1 2 0 0 0 1 2 3 3 1 0 2 2 2 3 1 0 0 0 0 0 0 0 0 0 0 0 0
0 0 0 0 0 0 0 0 0 0 0 0 0 0 0 0 0 0 3 3 1 0 1 3 3 3 2 2 1 1 1 0 0 0 0 0 0 0 0 0 0 0 0 0
0 0 0 0 0 0 0 0 0 0 0 0 0 0 0 0 0 0 0 3 7 1 0 2 1 1 2 1 2 1 0 1 0 1 0 0 0 0 0 0 0 0 0 0
0 0 0 0 0 0 0 0 0 0 0 0 0 0 0 0 0 0 0 0 1 1 3 4 3 0 0 0 0 0 0 0 0 0 0 0 0 0 0 0 0 0 0 0

GFSNGP_con_mlcape_045.txt.gz
CAPE
0 0 0 0 0 0 0 0 2 0 0 0 0 0 0 0 0 0 0 0 21 45 86 138 453 433 537 549 488 445 535 515 528 559 625 685 797 826 817 740 769 806 890 932
0 0 0 0 0 0 0 0 0 0 0 0 0 0 0 0 0 0 0 0 0 47 77 107 301 415 426 522 559 571 633 652 693 716 756 794 921 958 943 825 851 1053 1034 1106
0 0 0 1 0 0 0 0 0 0 0 0 0 0 0 0 0 0 0 45 21 0 58 134 279 543 466 557 668 653 677 811 880 918 912 956 1044 1135 1151 1010 1067 1117 1129 1167
0 1 1 0 1 0 2 0 0 0 0 0 0 246 147 7 0 0 8 12 59 41 2 178 301 487 649 754 744 711 756 846 1006 1039 1036 1115 1184 1218 1295 1443 1457 1342 1366 1390
14 5 1 81 3 1 7 0 0 0 0 0 219 692 523 18 0 3 20 111 518 502 0 140 383 609 740 970 931 851 862 890 1077 1192 1207 1312 1318 1298 1280 1294 1377 1489 1638 1702
2 1 0 4 0 0 0 0 0 0 0 0 330 77 130 0 0 19 323 933 511 35 0 215 465 644 820 1079 1097 976 1028 1050 1255 1398 1416 1505 1548 1563 1589 1524 1436 1482 1530 1765
0 1 0 4 2 0 23 0 0 0 0 4 24 1 2 2 1 2 173 724 462 230 263 439 653 787 900 1217 1182 1309 1500 1517 1573 1629 1684 1731 1772 1895 1969 1902 1904 1884 1822 1898
0 0 0 2 0 0 0 0 0 0 0 6 0 0 0 0 0 1 96 407 960 681 664 568 630 795 936 1143 1656 1831 1914 1790 1798 1876 1859 1972 1958 2017 2077 2158 2197 2250 2269 2347
0 0 1 6 3 0 0 0 0 0 0 0 0 0 0 0 0 0 21 360 745 1112 1169 1122 920 1003 1072 1207 1552 1622 1791 1851 1970 2117 2131 2241 2238 2245 2268 2359 2343 2502 2572 2622
0 2 5 2 1 1 0 0 0 0 0 0 0 0 0 0 0 0 0 77 426 818 974 1111 1405 1615 1726 1808 1354 1455 1565 1758 2006 2081 2174 2314 2446 2536 2558 2650 2676 2762 2840 2879
0 2 1 0 0 2 1 0 0 0 0 0 0 0 0 0 0 0 0 0 105 382 680 871 1068 1108 1176 1595 2195 1664 1467 1521 1687 1993 2011 2408 2561 2224 2751 2807 2773 2977 3091 3150
0 3 4 2 1 4 0 0 0 0 0 0 0 0 0 0 0 0 0 0 0 30 377 498 485 447 414 416 963 2196 2868 2312 1838 1732 1803 2319 1364 910 43 471 1084 2112 2679 3093
4 3 2 1 0 1 1 0 0 0 0 0 0 0 0 0 0 0 0 0 0 0 0 115 173 106 78 183 358 675 1291 1684 2489 1962 1572 1848 1350 1173 940 43 67 627 1272 1900
5 1 0 0 1 4 0 0 0 0 0 0 0 0 0 0 0 0 0 0 0 0 0 0 1 6 0 72 333 585 769 263 1 2127 1509 1435 1436 1615 1129 1156 1230 890 30 525
4 1 2 3 4 2 1 0 0 0 0 0 0 0 0 1 0 0 0 0 0 0 0 0 0 0 0 0 200 215 601 1117 1915 1903 1702 1685 1498 1343 1260 920 692 381 37 2
3 2 2 2 4 4 2 1 2 2 1 1 0 2 4 2 2 0 0 0 0 0 0 0 0 0 1 3 35 262 383 365 843 1010 1068 1135 925 784 604 506 272 84 8 7
1 1 1 1 3 3 4 3 3 3 4 2 2 2 0 2 1 0 0 0 0 0 0 0 0 0 0 2 5 171 193 211 312 479 419 299 276 187 13 4 1 0 0 0
0 2 2 3 3 4 3 4 3 4 4 5 4 1 0 0 3 3 3 2 0 0 0 0 0 0 0 1 4 63 63 121 112 119 51 7 5 4 4 1 1 0 2 2
0 0 0 0 1 2 5 4 4 3 4 4 4 4 4 3 3 3 3 4 2 1 0 0 0 0 0 0 0 6 0 0 1 0 4 4 4 6 2 2 1 2 3 4
0 0 0 0 0 0 0 2 6 3 3 3 4 4 1 2 2 2 2 3 4 3 3 0 0 0 0 0 0 1 2 2 2 1 4 4 6 6 6 5 4 4 6 6
0 0 0 0 0 0 0 0 0 3 5 2 3 4 3 2 1 2 2 3 1 2 1 3 4 0 0 0 0 2 1 0 3 5 4 4 5 7 4 3 5 3 3 2
13 6 4 1 1 1 9 1 0 0 4 9 3 3 3 2 2 2 2 2 1 2 1 2 3 3 0 0 0 0 1 1 3 3 6 6 5 5 3 1 0 0 0 0
36 57 47 38 47 52 30 5 3 0 0 2 8 7 3 1 1 1 2 0 2 1 4 2 3 3 0 1 0 1 2 2 2 2 3 0 0 0 0 0 0 0 0 0
23 2 23 79 4 50 2 0 0 3 0 0 0 5 2 5 5 0 1 2 1 0 3 5 4 7 0 1 2 3 2 3 1 0 0 0 0 0 0 0 0 0 0 0
8 0 0 2 2 0 0 0 0 0 3 3 0 0 1 7 9 9 2 1 2 0 1 4 3 3 2 1 2 2 2 2 1 0 0 0 0 0 0 0 0 0 0 0
0 0 0 0 0 0 0 0 0 0 0 0 0 0 0 1 8 15 19 1 0 3 1 1 1 2 2 2 1 1 2 1 1 0 0 0 0 0 0 0 0 0 0 0
0 0 0 0 0 0 0 0 0 0 0 0 0 0 0 0 0 2 1 18 4 0 4 1 0 0 1 1 1 2 1 0 0 0 0 0 0 0 0 0 0 0 0 0

GFSNGP_con_mlcape_048.txt.gz
CAPE
0 0 0 0 0 0 0 0 0 0 5 0 0 0 0 0 0 0 0 1 60 108 273 735 979 1330 1262 945 867 733 927 754 965 1116 1090 1105 1279 1369 1391 1522 1613 1698 1512 1483
0 0 0 0 0 0 0 0 0 0 0 0 0 0 0 0 0 0 0 0 0 13 99 352 804 1312 1519 1402 1138 1042 1281 1127 1203 1511 1460 1439 1561 1672 1644 1643 1741 1822 1601 1587
0 0 0 0 0 0 0 0 0 0 0 0 1 0 0 0 0 7 31 54 91 40 22 126 501 1079 1257 1510 1345 1252 1457 1454 1500 1688 1715 1744 1732 1882 1810 1766 1870 1937 1816 1737
1 0 19 0 0 0 0 0 0 0 0 0 5 6 628 358 217 180 123 125 187 247 287 32 224 490 993 1156 1488 1512 1628 1667 1743 1900 1861 1969 2005 2037 2134 1986 2004 2001 1965 2042
26 2 0 0 0 0 0 0 0 0 0 0 0 31 758 361 141 223 185 276 431 513 531 671 70 290 841 974 1330 1564 1680 1821 1877 1974 1933 1977 2013 2103 2101 2125 2125 2098 2100 2232
14 7 3 0 0 0 3 2 49 13 42 4 1 51 93 65 0 79 148 294 525 1008 1233 973 949 219 567 1075 1227 1637 1718 1802 2052 2129 2102 2092 2171 2168 2257 2241 2271 2243 2326 2426
4 13 5 0 0 2 0 22 0 0 0 29 74 13 0 0 0 0 19 265 827 1192 1233 1085 796 253 871 1226 1347 1709 1576 1689 1959 2189 2248 2291 2445 2465 2366 2219 2155 2328 2308 2412
11 6 0 0 1 2 6 0 1 0 0 0 0 0 0 0 0 0 8 636 1360 875 463 331 147 734 1434 1514 1710 1830 1824 1891 2131 2376 2133 2199 2610 2647 2561 2510 2465 2583 2491 2462
0 0 0 0 2 19 2 4 2 0 0 0 0 0 0 0 0 0 0 113 1350 1360 913 813 987 1013 1459 1794 1881 1921 1999 2228 2333 2430 2411 2486 2729 2880 2761 2875 2587 2583 2596 2513
0 1 1 4 13 25 11 4 1 0 0 0 0 0 0 0 0 0 0 0 349 1122 1692 1625 1336 1340 1515 1857 2257 2307 2367 2460 2560 2714 2672 2507 2760 2785 2670 2682 2680 2607 2665 2695
0 1 3 10 11 25 13 3 1 0 0 0 0 0 0 0 0 0 0 0 0 174 680 856 1037 1299 2023 2268 2166 2410 2536 2644 2757 2797 2702 2807 2785 1943 2753 2726 2500 2778 2825 2958
0 3 4 2 14 24 13 2 1 0 0 1 0 0 0 0 0 0 0 0 0 0 28 113 194 489 843 1562 2437 1904 2076 2285 2434 2482 2774 2802 2916 1774 278 168 498 1555 2085 2814
4 3 13 17 8 8 4 0 2 0 3 0 0 0 0 2 0 0 0 0 0 0 0 3 5 17 200 1118 1612 2621 2567 2470 2166 2219 2424 2167 1836 1617 1584 1344 403 808 1305 2121
3 1 2 6 3 3 9 5 4 0 0 0 11 4 4 7 3 0 0 0 0 0 0 0 1 4 2 87 982 1383 1897 2265 2759 2241 1725 1107 141 13 5 49 1379 2380 384 796
6 6 7 4 2 2 2 2 4 3 6 12 3 5 6 4 1 0 0 0 0 0 0 0 0 0 0 0 127 1048 1375 1044 1113 711 364 211 0 0 0 7 1920 410 129 112
6 6 7 4 3 2 3 4 4 5 4 5 6 5 2 3 2 0 0 0 0 0 0 0 0 0 0 1 42 609 766 480 765 1185 1059 1171 1415 576 834 1839 816 220 85 186
5 2 0 4 4 4 4 6 6 5 3 3 4 6 5 3 1 0 1 0 0 0 0 0 0 0 0 0 4 70 722 577 295 422 684 942 1582 1822 1817 796 224 4 5 0
12 10 11 8 2 3 6 8 6 8 5 6 6 7 4 3 4 5 3 0 0 0 0 0 0 0 0 0 0 59 294 455 494 280 147 141 81 69 2 4 6 4 4 0
5 15 15 15 15 7 5 5 10 6 4 7 4 5 5 4 4 4 5 3 3 1 1 0 0 0 0 0 0 16 21 240 121 63 2 3 5 5 5 6 5 4 1 0
28 18 18 22 27 25 16 10 7 6 6 3 5 3 3 3 5 3 3 3 5 4 4 1 0 0 0 0 0 3 3 1 22 8 5 1 0 5 5 4 3 5 5 1
32 36 27 21 19 22 22 22 14 13 2 7 2 3 3 4 4 4 3 0 3 5 4 2 2 0 0 0 0 9 0 0 0 0 0 0 4 6 5 4 4 4 6 5
28 29 12 22 27 20 23 20 22 19 14 8 6 9 6 3 3 4 3 3 2 2 4 4 3 2 1 0 0 3 9 1 0 0 0 3 4 8 6 4 2 1 1 0
28 26 24 26 14 19 7 5 13 24 20 16 10 4 3 1 2 2 2 1 3 2 2 2 3 1 1 7 3 3 3 3 3 3 1 0 0 0 0 0 0 0 0 0
24 20 15 23 17 4 5 5 8 21 30 22 15 9 5 3 8 1 0 1 2 2 3 4 3 5 4 3 4 4 5 5 3 2 0 0 0 0 0 0 0 0 0 0
26 9 3 15 6 3 3 1 4 7 9 17 21 12 6 3 17 12 2 1 1 1 2 4 4 3 3 3 3 2 2 2 2 2 1 0 0 0 0 0 0 0 0 0
45 26 26 0 0 1 2 1 4 1 5 8 12 15 5 5 2 15 9 2 1 1 3 4 4 3 3 3 3 3 3 1 0 0 0 0 0 0 0 0 0 0 0 0
25 0 29 16 15 7 0 0 4 8 3 7 14 18 20 19 4 12 17 7 5 1 1 9 1 0 0 0 0 0 0 0 0 0 0 0 0 0 0 0 0 0 0 0

GFSNGP_con_mlcape_051.txt.gz
CAPE
0 0 0 0 0 0 0 0 0 0 0 2 2 4 16 1 0 0 0 18 101 310 550 973 1078 1454 1473 1069 1036 739 820 826 1111 1461 1370 1385 1234 1679 1852 2105 2222 2396 2447 2296
2 0 0 0 0 0 0 0 0 0 0 0 0 0 0 0 11 0 0 0 10 88 195 734 1207 1536 1750 1463 1332 1060 1090 983 1023 1396 1395 1371 1381 1775 2056 2212 2331 2469 2449 2491
7 10 0 0 0 0 0 0 0 0 0 0 0 0 0 0 13 1 4 0 2 0 81 157 575 1395 1514 1805 1481 1473 1506 1302 1355 1668 1706 1708 1742 1967 2146 2230 2484 2653 2635 2633
12 18 2 1 0 0 0 0 0 0 0 0 0 0 0 14 595 520 317 79 74 101 62 36 229 523 1121 1557 1880 1840 1641 2073 1617 1984 2066 2105 2155 2189 2289 2405 2344 2551 2763 2822
23 19 4 1 0 0 2 0 0 0 0 0 0 0 0 0 779 602 604 615 564 545 440 399 114 134 810 1262 2183 1951 2231 2087 2157 2141 2335 2508 2498 2519 2645 2660 2616 2675 2931 2945
64 15 11 0 1 29 0 0 0 0 0 0 0 0 0 319 926 715 586 517 614 709 725 775 848 486 356 1065 1534 2129 2356 2287 2438 2312 2544 2689 2736 2807 3001 2943 2903 2567 2827 3079
26 8 12 0 33 0 0 0 0 0 0 0 0 0 15 117 193 125 358 582 730 1014 1014 1171 1318 1001 550 841 1423 2009 2272 2487 2687 2605 2809 2893 2991 3072 3131 3103 2535 2963 2768 2957
14 26 16 8 0 0 0 0 0 1 10 3 135 422 40 0 0 0 9 92 457 1693 1737 1728 1660 1734 1484 959 1552 1867 2257 2396 2662 2899 2740 2715 3144 3215 3228 3233 3078 3222 3111 3138
19 8 12 22 1 1 0 2 0 23 262 471 252 61 0 0 0 0 1 2 196 1641 1998 1084 1064 1694 1822 1028 2063 2078 2300 2470 2649 2962 3064 2784 3151 3369 3162 3217 2634 2675 2863 2595
0 0 1 3 0 8 4 3 15 2 0 0 0 0 0 0 0 2 3 1 1 734 2362 2180 1942 1081 1061 2602 2277 2565 2617 2597 2877 2939 3088 2887 2950 3156 2717 2633 2674 2424 2327 2140
0 1 1 5 9 8 18 27 17 3 4 4 3 1 4 4 0 0 1 0 3 5 98 534 1095 1699 1906 2233 2444 2515 2676 2846 2791 2771 2769 2887 3111 2697 2750 1445 1813 2336 1719 1363
0 1 3 4 6 14 17 4 2 10 0 0 0 11 20 10 0 0 0 0 0 1 2 2 4 22 398 1170 2588 2517 2694 2673 2792 2548 2849 2957 2066 1543 677 734 827 843 802 1488
2 6 5 7 6 4 11 18 11 1 0 15 9 8 35 15 10 0 0 0 1 2 1 3 2 2 12 466 1605 2556 2837 3013 2799 2700 2880 3035 2798 2373 2115 753 296 613 1216 1363
16 9 3 4 6 6 3 3 9 3 2 2 1 1 2 1 21 2 0 5 1 0 0 0 0 1 0 17 728 2392 2543 2491 2734 2945 2921 3163 3194 2974 2522 2151 1548 1181 361 569
3 15 9 10 11 10 14 6 2 2 2 3 4 2 2 6 0 1 4 0 0 0 0 0 0 0 0 0 83 1213 2321 2590 2683 2678 2878 2618 2208 1636 966 739 491 194 38 69
6 4 7 5 11 12 10 8 5 5 3 3 3 4 2 2 3 8 1 1 0 0 0 0 0 0 0 0 14 143 685 885 1193 1103 865 582 359 279 132 138 90 136 58 51
17 11 8 8 8 2 2 10 12 16 15 4 2 3 3 1 2 4 2 1 0 0 0 0 0 0 0 0 0 97 440 549 839 1375 1224 713 224 313 1062 377 27 47 22 100
22 20 18 16 10 8 3 11 13 9 12 17 7 4 2 3 2 3 2 1 0 0 0 0 0 0 0 0 0 26 190 238 138 182 201 467 663 528 301 146 49 43 3 32
8 7 9 8 10 22 12 12 4 5 3 3 2 3 4 4 4 2 5 3 4 2 1 0 0 0 0 0 0 0 82 130 47 0 1 2 12 26 10 15 6 0 0 0
23 8 13 17 1 17 7 19 16 14 9 5 2 1 4 6 4 4 6 5 4 3 4 1 0 0 0 0 0 0 0 30 13 1 1 2 4 2 3 3 2 0 0 0
28 30 17 7 11 7 12 3 3 11 14 6 4 0 3 4 5 6 3 2 4 1 3 1 0 0 0 0 0 6 0 21 2 0 0 0 0 2 0 2 3 1 0 0
17 7 24 11 6 7 12 9 1 3 6 9 7 9 6 3 2 4 4 2 1 1 1 2 4 3 2 0 0 0 6 0 0 0 0 0 1 3 2 0 0 0 0 0
47 42 29 34 18 12 13 14 8 8 7 11 11 15 8 18 2 2 3 2 3 3 2 3 4 6 3 3 3 2 1 0 0 0 0 0 0 0 0 0 0 0 0 0
39 28 25 32 21 15 12 13 14 19 17 11 15 22 20 21 8 0 1 2 3 2 5 5 3 4 3 2 4 5 5 4 2 0 0 0 0 0 0 0 0 0 0 0
27 31 24 32 18 8 7 6 5 5 11 17 9 6 24 2 6 3 0 3 4 2 3 7 6 3 2 1 1 2 2 1 1 1 0 0 0 0 0 0 0 0 0 0
59 27 28 7 11 12 5 5 8 5 12 16 9 6 24 17 5 14 0 1 2 0 0 1 2 3 1 1 0 0 0 0 0 0 0 0 0 0 0 0 0 0 0 0
45 0 38 24 28 14 6 8 15 14 4 22 20 8 10 29 4 7 7 9 0 0 6 5 0 0 0 1 2 0 0 0 0 0 0 0 0 0 0 0 0 0 0 0

GFSNGP_con_mlcape_054.txt.gz
CAPE
0 0 0 0 0 0 0 0 0 0 0 0 0 0 0 0 0 6 4 0 6 124 138 512 1171 1003 953 1074 979 1015 1153 1347 1534 1694 1423 1217 1106 1335 935 1425 1921 2147 2121 2335
1 0 0 0 0 0 0 0 0 0 0 0 0 0 0 0 0 0 0 29 13 9 721 1127 1326 1216 1178 1079 1128 1020 977 1231 1368 1586 1584 1468 1206 1388 1573 1441 1836 2155 2361 2343
1 1 0 0 0 0 0 0 0 0 0 0 0 0 0 0 0 0 0 1 16 1 29 88 1163 1542 1467 1330 1244 1169 1106 1178 1280 1624 1792 1559 1719 1293 1708 1703 1844 2160 2399 2594
3 18 14 0 0 0 0 0 0 0 0 0 0 0 0 0 0 0 0 0 484 42 58 231 76 99 2011 1776 1440 1496 1296 1470 1344 1557 1713 1889 1698 1816 1515 1887 1911 2125 2438 2628
6 19 0 0 0 0 2 0 0 0 0 0 0 0 0 0 0 0 0 0 614 461 312 284 383 631 1630 2128 1820 1628 1703 1579 1626 1472 1742 1809 1818 1766 1771 2000 2214 2234 2513 2678
14 18 5 0 0 0 0 0 0 0 0 0 0 0 0 0 0 0 46 729 554 513 506 509 476 640 698 1572 2298 1785 1770 1938 2069 1593 1961 1944 1934 1933 2021 2175 2344 2444 2495 2724
11 21 2 3 0 21 0 0 0 0 0 0 0 0 0 0 0 247 262 270 673 765 892 769 784 981 958 813 1473 2477 1988 2074 2200 2215 1977 2399 2419 2418 2434 2552 2644 2662 2567 2743
13 29 8 46 21 28 2 0 0 0 0 0 0 0 0 0 107 275 323 259 354 720 924 1519 1884 1348 1027 1357 1286 1938 2588 2164 2728 2631 2391 2643 2765 2939 2859 2849 2967 2905 3026 3076
0 1 0 0 8 0 3 0 0 0 0 0 0 0 0 388 287 102 13 53 62 440 1303 2805 2298 2578 1550 1632 1905 1969 2391 2447 2577 2797 2913 2753 2989 3097 3195 3153 3170 3093 3145 3153
0 0 1 0 0 1 3 0 0 0 0 2 0 0 259 142 0 1 3 4 1 149 473 478 633 1257 2795 2029 2174 1925 2399 2714 2685 3052 3068 2910 3099 3197 3314 3250 3273 3220 2958 3040
0 0 1 3 5 6 4 3 0 5 11 0 3 78 1 0 1 3 2 3 3 4 9 18 43 462 912 1261 2319 1835 2885 2862 2847 2988 3037 3165 2877 3279 3280 3161 3131 3090 2958 2745
0 2 2 1 6 5 2 8 15 17 2 1 1 3 0 0 0 1 3 2 1 2 2 2 4 5 192 618 1458 3124 2993 3016 2928 3003 3077 3187 2821 2204 886 1854 1415 2139 2186 2692
1 5 5 4 7 7 5 4 25 4 4 1 2 5 15 0 0 4 1 0 0 0 1 0 4 5 6 12 825 2395 3182 2973 2939 2946 2952 3034 2811 2041 1813 464 37 255 812 1306
2 0 2 3 4 8 2 0 5 3 2 2 1 2 3 1 0 3 0 7 0 0 0 3 2 5 6 0 147 1276 2696 2729 2820 2619 2876 2942 2771 2316 1648 1510 1518 1003 281 639
5 0 1 7 13 8 6 6 2 1 2 1 0 3 2 2 2 3 1 0 0 0 0 1 1 2 2 3 2 686 1626 1772 2082 2915 2707 3004 2912 2633 2518 2135 2195 1450 609 275
8 13 5 0 4 7 3 5 5 6 6 6 1 1 5 1 1 1 1 0 0 1 0 0 0 0 0 0 3 92 547 821 1363 2056 2235 2320 2681 2414 2257 1684 1347 915 273 160
12 3 2 5 2 14 4 2 8 8 7 8 5 2 2 2 1 4 0 0 0 0 0 0 0 0 0 0 1 0 151 423 421 683 1034 1093 1125 1212 1003 736 542 447 156 33
3 2 3 4 11 4 3 10 2 9 7 8 9 8 4 1 2 1 2 1 0 0 0 0 0 0 0 0 0 0 1 22 59 47 122 189 240 508 335 318 35 0 0 0
9 11 19 7 22 16 9 2 1 10 8 12 6 10 9 2 2 2 0 1 0 1 0 0 0 0 0 0 0 0 10 0 0 2 4 1 1 0 3 2 2 2 2 1
46 29 22 23 28 17 20 18 8 1 4 3 8 3 1 3 3 1 1 2 2 1 1 1 0 0 0 0 0 0 3 0 0 0 0 5 3 2 2 0 0 0 0 0
56 66 72 33 21 17 20 12 4 11 10 1 4 10 4 0 1 1 1 3 2 1 2 2 3 3 0 0 0 0 0 0 0 0 0 3 5 4 3 4 1 0 0 0
33 33 54 42 29 25 33 16 9 4 3 8 7 6 0 0 1 1 2 3 2 1 2 2 3 5 1 0 0 0 1 0 0 0 0 0 0 1 1 3 5 4 0 0
71 67 23 56 34 30 8 4 9 25 7 17 2 5 0 1 1 1 2 2 1 4 3 3 3 5 4 0 0 0 0 0 0 0 0 0 0 0 0 0 0 0 0 0
31 38 41 35 33 7 30 27 29 45 21 10 5 0 0 1 1 2 2 1 2 4 6 4 2 1 2 2 3 1 0 0 0 0 0 0 0 0 0 0 0 0 0 0
49 47 36 15 8 9 8 18 7 37 11 13 0 0 0 0 0 0 0 0 0 0 0 2 0 0 0 0 0 1 2 0 0 0 0 0 0 0 0 0 0 0 0 0
45 53 20 25 27 16 2 10 9 7 39 26 10 2 2 0 0 0 0 0 0 0 0 0 0 0 0 0 0 0 0 0 0 0 0 0 0 0 0 0 0 0 0 0
6 0 30 43 14 4 0 5 25 8 11 19 54 28 4 3 3 1 7 7 10 3 3 3 0 0 0 0 0 0 0 0 0 0 0 0 0 0 0 0 0 0 0 0

GFSNGP_con_mlcape_057.txt.gz
CAPE
0 0 0 0 0 0 0 0 0 0 0 0 0 0 0 0 0 0 3 197 65 32 8 92 91 301 601 648 529 941 1175 1267 1153 900 670 636 166 89 0 806 278 1271 1228 1565
0 0 0 0 0 0 0 0 0 0 0 0 0 0 0 0 0 0 0 0 0 0 0 61 54 183 57 472 712 630 1221 1391 1329 1108 895 748 770 766 259 0 1402 782 902 1398
0 0 0 0 0 0 0 0 0 0 0 0 0 0 0 0 0 0 0 0 0 0 57 35 20 0 0 199 837 824 836 1342 1374 1224 1184 916 837 720 946 467 278 1587 1452 1381
0 0 0 0 0 0 0 0 0 0 0 0 0 0 0 0 0 0 0 0 0 155 197 46 106 122 183 189 436 943 951 1052 1313 1330 1298 1284 1086 891 846 1004 727 607 1229 1667
0 0 0 0 0 0 0 0 0 0 0 0 0 0 0 0 0 0 0 0 0 0 5 331 27 33 122 19 2 246 1040 1040 1232 1265 1314 1430 1230 1171 921 1059 1222 1043 1291 1657
1 0 0 0 0 1 0 0 0 0 0 0 0 0 0 0 0 0 0 0 0 0 0 0 534 47 0 1 1 226 537 1263 1169 1202 1381 1387 1358 1227 1370 989 1069 1482 1316 1609
0 8 5 0 0 9 0 0 0 0 0 0 0 0 0 0 0 0 0 0 10 69 1 35 361 786 624 22 29 469 1080 1440 1489 1262 1360 1414 1498 1439 1340 1452 1263 1290 1576 1611
0 5 0 0 0 0 1 0 0 0 0 0 0 0 0 0 0 0 0 0 46 0 10 77 615 843 1245 1138 929 980 1900 1776 1543 1605 1428 1586 1456 1540 1469 1436 1474 1487 1704 1866
0 0 0 0 0 0 0 0 0 0 0 0 0 0 0 0 0 0 0 0 2 0 0 80 200 351 752 1301 1860 1765 1333 2136 2100 2080 1622 1738 1637 1569 1636 1672 1654 1787 1882 1977
0 0 0 0 0 0 0 2 0 0 0 3 1 0 0 0 0 0 0 0 0 12 32 39 7 75 257 640 1208 1683 2055 2010 2145 2279 2207 1680 2154 1955 2010 2071 2085 2033 2171 2188
0 0 2 1 0 2 2 1 2 3 0 0 0 0 0 0 0 8 0 0 1 1 5 0 0 17 21 27 351 1218 1940 2444 2319 2346 2407 2262 2287 2454 2418 2441 2385 2308 2322 2388
0 0 4 2 2 2 2 1 1 2 3 1 24 11 4 1 20 7 0 0 0 1 2 1 0 1 1 1 15 536 1313 2251 2662 2351 2623 2624 2452 1812 767 1414 2008 2277 2382 2510
0 0 1 0 2 7 5 4 3 4 1 6 2 0 1 2 32 19 6 0 0 1 0 2 0 0 3 4 5 195 1167 1888 2698 2474 2587 2703 2633 2208 2112 747 361 997 1614 2226
0 0 0 0 1 2 6 7 9 4 0 4 3 2 3 2 3 2 1 1 0 0 0 0 0 0 0 6 7 12 793 1992 2796 2587 2480 2728 2769 2493 1867 1518 1777 1610 337 935
0 0 0 0 0 0 2 4 4 5 5 3 1 2 1 2 3 2 2 0 0 0 0 0 1 0 0 2 8 0 473 1289 1953 2418 2508 2609 2746 2348 1496 1326 1515 1659 659 322
0 0 2 3 0 2 3 0 0 4 4 2 3 2 3 2 2 3 0 0 1 0 0 0 0 0 1 2 8 3 21 527 1097 1847 2041 2069 2224 2318 1328 1361 1359 1083 975 838
0 0 0 0 3 0 0 0 0 1 2 4 4 5 7 2 1 1 2 0 0 0 0 0 0 0 2 3 6 3 0 100 687 1233 1436 1631 1417 1382 1587 1402 1091 808 500 148
0 0 0 0 6 0 1 0 3 0 2 2 3 2 5 5 2 1 1 2 0 0 0 0 1 0 0 3 4 5 1 4 14 24 1 142 269 199 58 41 70 73 46 0
2 0 21 15 0 7 6 0 2 4 0 1 3 5 5 8 5 2 1 2 2 1 2 2 5 2 0 1 4 1 3 1 4 1 3 1 1 3 4 2 0 0 1 0
6 16 8 7 4 1 4 1 0 0 3 4 10 6 6 6 6 2 2 3 3 3 2 4 6 2 0 1 0 0 5 4 6 5 6 6 6 6 4 3 0 0 0 0
28 18 32 8 8 0 1 0 0 5 6 0 1 0 1 2 7 6 2 2 1 2 3 5 5 4 3 1 1 4 1 0 1 6 6 6 5 6 6 5 5 5 4 3
27 5 3 2 15 9 16 16 3 6 7 3 0 0 0 2 4 5 5 4 3 2 2 5 3 4 2 0 0 0 0 0 0 1 2 6 3 4 2 4 3 3 3 0
31 51 56 4 0 28 11 12 27 6 0 1 0 0 0 0 0 2 3 4 5 4 2 2 3 2 2 1 0 0 0 0 0 5 5 4 5 6 5 5 5 2 2 3
1 59 41 36 2 0 15 17 47 1 0 0 0 0 0 0 0 0 0 0 0 0 0 1 1 0 0 1 2 1 0 0 0 0 0 0 0 0 0 0 0 0 0 0
152 45 28 51 75 0 55 27 10 5 0 0 0 0 0 0 0 0 0 0 0 0 0 0 0 0 0 0 0 0 1 0 0 0 0 0 0 0 0 0 0 0 0 0
39 0 0 71 29 8 7 21 9 9 2 0 0 0 0 0 0 1 0 0 0 0 0 0 0 0 0 0 0 0 0 0 0 0 0 0 0 0 0 0 0 0 0 0
8 0 0 0 0 1 7 3 3 16 38 21 1 3 0 2 0 3 2 0 0 0 0 0 0 0 0 0 0 0 0 0 0 0 0 0 0 0 0 0 0 0 0 0

GFSNGP_con_mlcape_060.txt.gz
CAPE
0 0 0 0 0 0 0 0 0 0 0 0 0 0 0 0 0 0 6 135 0 0 0 0 0 0 44 182 393 570 495 479 352 465 567 240 0 4 2 52 20 0 133 835
0 0 0 0 0 0 0 0 0 0 0 0 0 0 0 0 0 0 0 0 0 0 41 198 44 0 0 8 323 746 771 745 724 476 612 608 345 31 0 0 63 50 72 198
0 0 0 0 0 0 0 0 0 0 0 0 0 0 0 0 0 0 0 0 0 0 0 0 80 30 19 2 61 408 879 921 976 965 749 658 627 390 124 20 0 109 218 497
1 0 0 0 0 0 0 0 0 0 0 0 0 0 0 0 0 0 0 0 0 0 0 0 0 55 88 46 14 158 396 1074 1233 1205 1096 875 692 688 527 363 69 0 289 493
6 0 0 0 0 0 0 0 0 0 0 0 0 0 0 0 0 0 0 0 0 0 0 3 0 0 1 183 342 85 339 336 988 1461 1294 1104 944 816 750 739 640 170 184 846
0 0 0 0 0 0 0 0 0 0 0 0 0 0 0 0 0 0 0 0 0 0 0 9 185 49 124 212 37 174 195 400 243 524 1364 1227 1152 989 894 751 791 814 482 376
0 4 0 0 0 0 2 0 0 0 0 0 0 0 0 0 0 0 0 0 0 0 0 0 0 248 258 292 173 17 0 3 151 101 558 1294 1247 1187 1090 974 841 928 932 806
0 1 0 0 0 0 0 0 1 0 0 0 0 0 0 0 0 0 0 0 0 0 0 0 3 33 310 520 440 179 0 1 31 73 460 1061 1283 1289 1199 1164 1042 910 1064 1190
0 0 0 0 2 0 0 2 0 0 1 1 0 0 0 0 0 0 0 0 0 0 0 0 88 11 0 62 466 166 21 667 437 703 1182 1121 1233 1251 1270 1189 1296 1205 989 1052
0 0 0 1 0 2 3 2 1 0 0 2 2 0 0 0 0 0 0 0 0 0 0 0 0 0 0 1 33 46 0 136 1032 1400 1591 1325 1204 1171 1319 1289 1260 1316 1320 1258
0 0 0 0 0 2 3 6 0 2 2 2 3 0 0 0 0 0 1 0 0 0 0 0 0 0 0 0 1 2 17 221 758 1472 1429 1572 1361 1397 1324 1383 1328 1325 1330 1382
0 0 0 0 0 11 5 2 7 1 2 0 2 2 5 3 1 0 0 0 4 0 0 0 0 0 0 0 1 3 3 106 615 1708 1743 1922 1685 1331 433 671 1178 1237 1197 1482
0 0 0 0 0 3 2 3 6 4 5 5 0 3 2 0 1 1 0 38 22 0 0 0 0 0 0 0 0 2 1 5 179 878 2249 2290 2333 1751 1784 603 400 823 1153 1385
0 0 0 0 0 0 3 0 0 1 3 2 3 0 0 0 1 1 2 2 1 0 0 0 0 0 0 0 0 2 3 1 12 637 1820 2480 2503 2510 1856 1835 1898 1771 825 1388
0 0 0 0 0 1 7 4 0 0 3 4 2 2 5 1 1 1 2 1 1 0 0 0 0 0 0 0 0 1 6 3 12 536 1422 2528 2582 2626 2252 1816 1896 2012 954 672
0 0 0 0 0 0 3 11 5 0 4 6 5 6 7 9 9 0 1 2 0 0 0 0 0 0 0 0 0 3 6 4 0 235 1077 2117 2416 2418 2124 1702 1543 1231 1301 1449
0 0 0 0 0 0 1 8 6 0 1 3 3 4 5 4 4 1 1 1 2 1 0 0 0 0 0 0 0 1 6 3 12 230 1006 1552 1822 1564 1441 1521 1351 923 752 365
0 0 0 0 12 2 2 1 3 0 0 0 2 4 4 5 4 2 2 3 2 2 2 2 2 1 0 0 0 2 5 2 8 107 474 951 1290 1383 1041 919 399 326 128 42
0 9 1 2 18 17 12 2 0 0 2 0 15 3 3 3 5 2 1 2 2 4 2 2 5 3 0 0 3 2 2 2 2 2 6 88 371 340 324 238 28 20 12 33
14 7 6 9 4 0 2 1 0 0 4 5 1 1 4 3 6 2 1 2 2 2 2 1 3 6 2 0 4 4 2 5 5 2 3 4 2 1 0 2 1 3 1 1
23 25 29 39 5 8 1 6 0 0 1 0 0 1 4 3 5 3 3 3 2 1 2 3 4 7 5 5 5 5 6 5 5 5 7 7 6 6 3 1 4 5 5 5
0 0 0 2 2 2 0 2 0 0 0 0 0 0 0 1 3 4 6 6 4 4 2 1 2 4 4 3 3 7 6 6 7 8 8 2 0 4 7 7 5 5 6 7
3 12 14 2 0 0 0 0 0 0 0 0 0 0 0 0 0 3 5 9 10 7 2 3 4 4 5 2 2 5 8 8 7 8 8 8 8 7 2 7 7 6 6 6
0 0 0 0 0 0 0 0 0 0 0 0 0 0 0 0 9 7 10 13 12 9 5 5 4 2 1 2 3 2 4 5 6 4 4 4 5 5 8 7 6 5 6 6
29 0 0 0 0 0 1 3 0 0 0 0 0 0 0 0 1 10 12 15 19 8 8 6 2 2 0 0 0 1 2 2 2 2 2 1 0 1 1 0 0 0 0 0
0 0 0 0 0 0 1 0 0 0 0 0 0 0 0 0 0 1 2 0 0 0 1 0 0 0 1 1 0 0 0 0 0 0 0 0 0 0 0 0 0 0 0 0
1 0 0 0 0 0 0 0 0 0 0 0 6 2 0 0 0 0 4 0 0 0 0 0 0 0 0 0 0 0 0 0 0 0 0 0 0 0 0 0 0 0 0 0

GFSNGP_con_mlcape_063.txt.gz
CAPE
0 0 0 0 0 0 0 0 0 0 0 0 0 0 0 0 0 0 0 0 0 0 0 0 0 0 0 2 20 47 48 131 248 233 131 0 0 0 0 0 0 0 1 257
0 0 0 0 0 0 0 0 0 0 0 0 0 0 0 0 0 0 0 0 0 0 0 0 0 11 0 0 15 110 169 136 182 271 265 135 9 0 0 0 0 0 0 0
0 0 0 0 0 0 0 0 0 0 0 0 0 0 0 0 0 0 0 0 0 0 0 0 0 0 25 4 0 120 292 241 231 264 285 367 239 35 0 0 0 0 0 0
0 0 0 0 0 0 0 0 0 0 0 0 0 0 0 0 0 0 0 0 0 0 0 0 0 0 61 57 27 16 466 494 452 443 339 380 448 298 115 15 2 0 0 0
0 0 0 0 0 0 0 0 0 0 0 0 0 0 0 0 0 0 0 0 0 0 0 0 0 0 0 110 113 157 37 273 732 713 705 525 532 525 434 216 61 35 0 0
0 0 0 0 0 0 0 0 0 0 0 0 1 0 0 0 0 0 0 0 0 0 0 0 0 0 0 8 175 177 87 78 129 725 948 929 796 664 564 494 391 237 74 0
0 2 0 0 0 0 0 0 0 0 0 0 1 0 0 0 0 0 0 0 0 0 0 0 0 0 0 0 0 111 160 48 0 30 363 1112 1075 852 702 667 625 597 581 256
0 0 0 0 0 0 0 0 0 0 0 0 0 0 0 0 0 0 0 0 0 0 0 0 0 0 0 0 0 52 335 209 66 22 11 36 346 1129 948 838 676 725 698 701
0 0 0 0 0 0 1 2 0 0 0 0 1 1 2 0 0 0 0 0 0 0 0 0 0 0 0 0 0 0 0 36 119 102 301 141 73 382 1063 1105 1001 900 824 831
0 0 0 0 0 0 0 0 1 4 5 3 1 1 1 2 0 0 0 0 0 0 0 0 0 0 0 0 0 0 0 0 0 14 210 867 949 879 755 1173 1228 1138 1050 951
0 0 0 0 0 0 0 4 4 6 8 2 3 2 2 3 8 1 4 2 0 0 0 0 0 0 0 0 0 0 0 0 0 5 145 772 1185 1234 1086 1162 1215 1231 1187 1138
0 0 0 0 0 0 0 2 6 4 1 6 6 2 2 1 1 0 6 1 0 0 0 0 0 0 0 0 0 0 0 0 0 0 0 192 1010 1253 570 883 1053 1054 1067 1143
0 0 0 0 0 0 2 14 13 10 2 4 3 2 3 2 4 0 0 0 1 1 0 0 0 0 0 0 0 0 0 0 0 0 0 10 414 1474 1355 657 388 636 709 850
0 0 0 0 0 0 1 11 25 16 5 4 5 1 2 2 1 0 0 0 1 3 1 0 0 0 0 0 0 0 0 1 0 0 0 0 134 1021 1605 1224 1142 1301 650 660
0 0 0 0 0 1 4 12 16 4 0 0 2 4 3 3 1 0 0 1 1 0 0 1 0 0 0 0 0 0 0 0 0 0 0 4 58 677 1936 2049 1772 1719 1137 476
0 0 0 0 0 0 10 4 5 0 0 0 0 2 4 4 3 1 3 0 2 0 0 1 1 0 0 0 0 0 0 0 0 0 0 1 25 579 1547 2324 2181 1988 1616 1513
0 0 0 0 0 0 11 0 1 0 0 3 4 1 0 1 2 1 1 2 0 1 0 2 3 2 2 2 1 0 0 0 0 0 0 2 39 599 1329 2041 2120 1991 1793 1239
0 0 0 0 0 0 7 6 0 0 0 2 2 4 3 3 3 4 2 0 0 1 1 1 2 2 2 1 0 2 1 0 0 0 0 6 161 713 1312 1698 1770 1645 1167 769
0 0 0 2 2 14 0 1 0 0 1 0 0 1 3 4 4 3 2 2 2 2 2 1 2 3 3 2 4 2 0 0 0 0 2 1 150 498 860 1180 1164 902 714 492
0 10 7 5 11 32 5 1 0 0 0 0 0 2 2 2 3 3 3 3 4 4 2 0 1 2 2 3 6 3 2 2 1 0 0 0 0 56 155 342 448 453 300 101
10 23 38 37 16 5 0 2 0 0 0 0 0 0 1 2 4 5 4 3 4 9 1 2 2 1 2 4 5 5 4 4 3 6 3 4 4 4 3 2 3 2 3 8
10 13 19 12 5 0 0 0 0 0 0 0 0 0 0 1 2 7 6 6 5 12 4 3 3 7 3 4 4 2 5 4 4 4 4 5 9 11 10 8 9 7 6 9
2 0 0 1 10 0 0 0 0 0 0 0 0 0 0 2 5 3 5 4 7 9 6 6 8 6 4 2 3 3 2 1 0 2 2 4 6 4 5 7 6 5 6 7
0 0 0 0 0 0 0 0 0 0 0 0 0 0 0 0 3 7 2 13 7 6 6 10 5 4 3 2 2 4 1 3 2 0 1 1 3 5 6 5 5 4 5 3
0 0 0 0 0 0 0 0 0 0 0 0 0 0 0 0 0 0 5 0 6 1 2 5 4 1 1 1 1 3 2 2 3 0 1 1 0 4 4 4 4 5 5 4
0 0 0 0 0 0 0 0 0 0 0 2 0 0 0 0 0 0 0 0 0 0 0 0 0 0 1 1 1 1 1 1 2 1 1 1 1 3 4 2 2 3 3 3
0 0 0 0 0 0 0 0 0 3 1 0 1 0 0 0 0 0 0 0 0 0 0 0 0 0 0 0 0 0 1 2 3 2 1 0 0 0 0 0 0 0 0 0

GFSNGP_con_mlcape_066.txt.gz
CAPE
0 0 0 0 0 0 0 0 0 0 0 0 0 0 0 0 0 0 0 0 0 0 0 0 0 7 35 1 19 3 44 60 36 2 0 0 0 0 0 0 0 0 0 1
0 0 0 0 0 0 0 0 0 0 0 0 0 0 0 0 0 0 0 0 0 0 0 0 0 0 0 20 0 21 38 64 141 85 20 0 0 0 0 0 0 0 0 0
0 0 0 0 0 0 0 0 0 0 0 0 0 0 0 0 0 0 0 0 0 0 0 0 0 0 0 0 51 3 41 78 62 150 152 102 29 0 0 0 0 0 0 0
0 0 0 0 0 0 0 0 0 0 0 0 0 0 0 0 0 0 0 0 0 0 0 0 0 0 0 0 27 52 0 88 113 96 138 186 171 43 3 0 0 0 0 0
0 0 0 0 0 0 0 0 0 0 0 0 0 0 0 0 0 0 0 0 0 0 0 0 0 0 0 0 0 39 82 72 327 201 173 188 232 299 166 10 0 0 0 0
0 0 0 0 0 0 0 0 0 0 0 0 0 0 0 0 0 0 0 0 0 0 0 0 0 0 0 0 0 0 53 170 20 222 521 405 305 340 368 269 126 13 24 0
0 0 0 0 0 0 0 0 0 0 1 1 1 0 0 0 0 0 0 0 0 0 0 0 0 0 0 0 0 0 0 38 94 0 26 698 686 492 460 460 414 280 169 128
0 0 0 0 0 0 0 0 0 0 0 0 0 0 0 0 0 0 0 0 0 0 0 0 0 0 0 0 0 1 0 0 0 38 26 11 512 953 741 644 610 604 510 438
0 0 0 0 0 0 0 0 0 1 0 0 2 0 0 0 0 0 1 0 0 0 0 0 0 0 0 0 0 0 0 0 0 0 7 96 164 86 969 931 917 807 717 682
0 0 0 0 0 0 0 0 0 2 2 3 3 1 0 0 0 3 2 4 0 0 0 0 0 0 0 0 0 0 0 0 0 0 0 12 180 318 221 450 800 913 733 715
0 0 0 0 0 0 0 0 0 4 0 0 1 1 4 7 3 4 0 2 2 2 1 0 1 0 0 0 5 0 0 0 0 0 0 0 98 445 811 451 552 869 897 936
0 0 0 0 0 0 0 0 0 0 0 5 5 2 1 4 2 2 4 0 1 0 0 0 0 1 0 0 6 0 0 0 0 0 0 0 0 6 458 784 691 389 849 1059
0 0 0 0 0 0 0 0 0 0 0 0 0 3 6 9 3 4 6 2 1 0 0 1 0 2 1 4 1 0 0 1 0 0 0 0 0 0 0 186 498 596 461 535
0 0 0 0 0 0 0 0 0 0 0 0 0 0 0 4 4 5 3 4 3 1 1 2 2 0 1 2 0 0 2 3 4 1 0 0 0 0 0 126 588 1179 651 569
0 0 0 0 0 0 0 0 0 0 0 0 2 3 0 2 2 3 6 2 2 5 0 2 2 2 0 0 0 1 1 1 4 0 0 0 0 0 0 0 104 764 1373 659
0 0 0 0 0 0 0 0 0 0 0 0 0 1 4 8 1 1 4 4 4 2 2 2 3 2 1 1 3 2 1 2 1 2 1 1 0 0 0 0 186 724 1341 1519
0 0 0 0 0 0 0 0 0 0 0 0 0 0 1 2 5 3 3 1 2 2 1 0 1 1 2 1 1 2 3 1 1 1 1 0 0 0 0 0 49 530 1036 1796
0 0 0 0 0 0 0 0 0 0 0 0 0 0 2 4 2 1 2 2 2 2 2 1 1 2 1 2 2 2 2 3 3 0 0 0 0 0 0 0 25 294 801 1465
0 0 0 0 0 0 0 0 1 0 0 0 0 0 1 4 5 3 2 2 2 2 2 2 3 7 1 2 4 3 4 3 2 2 0 0 0 0 2 7 21 466 1151 1139
0 0 0 0 0 0 0 1 0 0 0 0 0 0 0 4 4 12 2 5 3 5 4 2 2 0 0 1 3 2 4 4 2 0 0 2 0 0 1 3 31 226 557 495
0 1 0 0 1 5 3 0 0 0 0 0 0 0 0 2 3 2 2 3 3 10 4 6 4 0 1 2 1 2 2 2 3 2 2 1 1 1 0 0 0 2 0 0
2 4 7 4 9 5 0 0 0 0 0 0 0 0 0 0 1 0 1 6 2 10 6 3 6 10 6 5 1 2 3 4 4 3 3 5 3 3 3 3 5 6 8 11
0 13 2 0 0 1 0 0 0 0 0 0 0 0 0 0 0 0 0 2 8 6 5 4 8 7 5 1 2 2 2 3 3 4 4 4 4 5 4 5 6 9 13 13
0 0 0 0 0 0 0 0 0 0 0 0 0 0 0 0 1 0 1 0 2 3 5 10 7 5 4 3 4 2 1 1 2 2 3 3 3 3 2 3 5 4 6 7
0 0 0 3 0 0 0 0 0 0 0 0 0 0 1 0 2 1 0 1 0 0 3 6 6 5 3 3 2 2 3 2 1 2 3 3 3 2 2 2 1 2 2 3
0 0 2 5 0 0 0 0 3 0 0 0 0 0 0 0 0 0 0 0 0 0 0 3 5 3 4 4 3 3 2 1 1 3 2 2 1 3 1 2 2 2 1 1
0 0 0 0 0 0 0 3 12 0 0 0 0 0 0 0 0 0 0 0 0 0 0 0 1 1 2 4 4 2 2 1 1 1 2 3 2 0 1 0 0 2 2 1

GFSNGP_con_mlcape_069.txt.gz
CAPE
0 0 0 0 0 0 0 0 0 0 0 0 0 0 0 0 0 0 0 0 0 0 0 0 0 0 1 23 38 155 274 314 309 347 195 110 203 470 430 320 195 137 386 605
0 0 0 0 0 0 0 0 0 0 0 0 0 0 0 0 0 0 0 0 0 0 0 0 0 0 0 0 5 50 69 358 447 496 500 415 252 161 379 402 329 269 204 178
0 0 0 0 0 0 0 0 0 0 0 0 0 0 0 0 0 0 0 0 0 0 0 0 0 0 0 0 3 84 133 81 312 495 578 481 423 361 322 313 368 301 204 207
0 0 0 0 0 0 0 0 0 0 0 0 0 0 0 0 0 0 0 0 0 0 0 0 0 0 0 0 0 0 245 105 205 422 524 655 603 497 403 356 311 366 341 284
0 0 0 0 0 0 0 0 0 0 0 0 0 0 0 0 0 0 0 0 0 0 0 0 0 0 0 0 0 0 6 274 454 442 493 543 692 744 692 530 440 395 414 425
0 0 0 0 0 0 0 0 0 0 0 0 0 0 0 0 0 0 0 0 0 0 0 0 0 0 0 0 0 0 0 3 84 371 243 903 715 713 782 864 604 504 395 414
0 0 0 0 0 0 0 0 0 0 0 0 0 0 0 0 0 0 0 0 0 0 0 0 0 0 0 0 0 0 0 4 0 0 155 139 362 1131 904 914 896 830 640 535
0 0 0 0 0 0 0 0 0 0 0 0 0 0 0 0 0 0 0 0 0 0 0 0 0 0 0 0 0 0 0 0 0 0 2 118 143 111 978 1035 980 1013 1011 920
0 0 0 0 0 0 0 0 0 0 0 0 0 0 0 0 0 0 1 0 1 0 0 0 0 0 0 0 0 0 0 0 0 0 0 2 80 152 183 577 1093 1068 1149 1198
0 0 0 0 0 0 0 0 0 0 0 0 1 1 0 0 2 3 4 4 3 5 6 1 0 0 0 0 2 0 0 0 0 0 0 0 0 81 188 275 564 1143 1132 1135
0 0 0 0 0 0 0 0 0 0 0 0 4 1 5 5 3 1 2 1 1 1 5 9 7 0 0 0 0 4 0 0 1 0 0 1 0 0 175 478 497 398 829 1146
0 0 0 0 0 0 0 0 0 0 0 1 6 3 2 8 2 0 0 2 6 6 6 6 6 6 0 0 4 8 6 0 3 1 0 0 1 0 0 0 20 267 395 380
0 0 0 0 0 0 0 0 0 0 0 0 0 0 4 9 11 9 4 7 4 6 3 1 1 1 6 2 5 4 4 12 5 5 2 0 0 0 0 0 0 0 78 430
0 0 0 0 0 0 0 0 0 0 0 0 0 1 6 9 9 8 9 1 2 4 4 3 2 9 7 5 3 2 1 0 4 4 2 2 1 3 0 0 0 0 11 214
0 0 0 0 0 0 0 0 0 0 0 1 0 3 2 4 4 11 9 2 4 3 7 3 2 2 2 4 3 3 3 2 2 2 1 1 2 2 6 0 0 0 0 39
0 0 0 0 0 0 0 0 0 0 0 0 0 1 0 0 0 4 5 1 2 2 1 2 2 3 6 7 4 2 1 3 2 1 1 2 3 2 3 2 0 0 0 12
0 0 0 0 0 0 0 0 0 0 0 0 0 0 0 0 3 4 2 5 5 3 5 3 2 1 0 5 3 3 3 2 1 4 3 2 1 0 1 4 3 0 0 36
0 0 0 0 0 0 0 0 0 3 4 0 0 0 0 1 4 2 1 5 3 4 4 2 6 4 6 5 4 3 7 3 4 2 3 4 2 2 2 2 6 6 0 1
0 0 0 0 0 0 0 8 5 13 0 0 0 0 0 3 3 6 12 3 3 3 2 5 6 12 0 4 11 6 3 4 3 3 3 3 4 2 3 0 2 6 10 6
6 1 3 0 0 0 12 32 22 2 0 0 0 0 0 4 5 10 5 0 17 4 9 2 5 1 1 0 5 4 2 3 4 3 4 4 4 3 4 3 2 7 13 18
5 29 34 36 22 19 11 46 19 0 0 0 0 0 0 8 0 13 3 2 3 9 8 7 5 3 3 14 1 2 1 2 4 4 3 3 4 1 1 1 0 0 1 4
2 1 1 32 45 68 61 23 9 9 0 0 0 0 0 7 9 17 11 1 0 9 6 7 7 10 5 3 1 1 1 1 2 4 4 2 2 2 2 1 2 1 1 3
0 0 0 0 0 4 11 1 20 26 11 0 0 0 0 19 15 24 16 0 2 3 6 10 11 7 4 2 2 3 2 2 1 1 2 2 3 3 2 2 3 4 8 9
8 16 3 4 0 1 6 0 2 37 4 0 0 0 0 27 36 34 39 7 0 0 3 13 12 7 4 2 2 1 1 2 2 2 1 1 2 3 4 4 5 6 6 6
5 7 0 0 0 4 0 1 5 16 0 0 0 11 24 31 17 21 17 34 1 0 0 3 10 7 3 2 1 2 2 1 1 2 2 3 1 2 2 3 3 3 3 3
4 39 30 3 3 5 5 11 24 18 5 9 8 0 15 7 10 18 1 1 22 9 4 2 2 3 3 3 3 2 2 1 1 0 0 1 2 2 1 1 1 2 1 2
0 2 28 41 22 1 4 9 20 17 20 10 0 0 0 0 0 4 0 0 4 12 17 9 3 3 3 1 2 2 2 2 1 1 0 0 0 1 2 2 2 2 3 3

GFSNGP_con_mlcape_075.txt.gz
CAPE
0 0 0 0 0 0 0 0 16 67 17 0 0 0 0 0 0 0 0 0 0 0 0 0 0 0 0 0 1 0 155 882 1083 1324 1453 1298 1439 1637 1574 1623 1596 1534 1414 1458
0 0 0 0 0 0 0 0 0 43 4 0 0 0 0 0 0 0 0 0 0 0 0 0 0 0 0 0 0 0 0 66 971 1133 1158 1456 1514 1584 1722 1800 1786 1822 1625 1411
3 0 0 0 0 0 0 0 1 20 0 0 0 0 0 0 0 0 0 0 0 0 0 0 0 0 0 0 0 0 0 0 15 407 997 1024 1364 1501 1630 1730 1902 2023 1863 1714
8 11 0 0 0 0 0 0 0 0 0 0 0 0 0 0 0 0 0 0 0 0 0 0 0 0 0 0 0 0 0 0 0 0 90 560 925 1114 1402 1643 1641 1693 1893 2104
0 49 6 0 0 0 0 0 0 0 0 0 0 0 0 0 0 0 0 0 0 0 0 0 0 0 0 0 0 0 0 0 0 0 0 3 138 770 1262 1455 1443 1543 1683 1917
0 0 12 2 0 0 0 0 0 0 0 0 0 0 0 0 0 0 0 0 0 0 0 0 0 0 0 0 0 0 0 0 0 0 0 0 0 0 341 1152 1597 1537 1580 1606
1 0 17 0 0 0 0 0 0 0 0 0 0 0 0 0 0 0 0 0 0 0 0 0 0 0 0 0 0 0 0 0 0 0 0 0 0 0 2 223 980 1433 1457 1556
8 13 8 0 0 0 0 0 0 0 0 0 0 0 0 0 0 0 0 0 0 0 0 0 0 0 0 0 0 0 0 0 0 0 0 0 0 0 0 7 95 1262 1379 1428
17 42 4 0 0 0 0 0 0 0 0 0 0 0 0 0 0 0 0 0 0 0 0 0 0 0 0 0 0 0 0 0 0 0 0 0 0 0 0 0 0 17 988 992
0 0 0 0 0 0 0 0 0 0 0 0 0 0 0 0 0 0 0 0 0 0 0 0 0 0 0 0 0 0 0 0 0 0 0 0 0 0 0 0 0 0 150 394
0 0 0 0 0 0 0 0 0 0 0 0 0 0 0 0 0 1 0 0 0 0 0 1 1 0 1 0 0 0 0 0 0 0 0 0 0 0 0 0 0 0 0 30
1 10 4 0 0 0 0 0 0 0 0 0 0 0 0 3 8 0 6 2 0 0 1 1 0 1 1 3 4 2 0 0 0 0 0 0 0 0 0 0 0 0 0 0
12 19 12 11 0 0 0 0 0 0 0 0 0 1 5 10 9 1 12 4 1 1 0 0 0 0 1 2 3 7 4 3 0 0 0 0 0 0 0 0 0 0 0 0
11 9 5 1 0 0 0 0 0 1 1 1 4 9 11 9 10 13 15 4 2 6 4 2 1 0 1 3 3 3 6 3 4 1 0 0 0 0 0 0 0 0 0 0
10 19 23 15 0 0 0 0 1 1 1 6 14 12 7 6 3 16 12 6 2 4 2 0 1 2 4 5 5 6 4 6 5 1 4 5 1 1 0 0 0 0 0 0
19 18 37 16 16 3 7 9 10 13 20 17 20 13 7 5 5 7 14 7 6 7 3 1 2 4 1 6 8 3 3 8 11 10 1 0 5 7 0 1 0 0 0 0
0 12 29 18 11 10 10 17 30 28 21 25 17 19 21 13 17 14 12 12 12 6 4 3 4 11 12 13 11 8 4 4 6 9 2 3 6 3 6 7 2 0 0 0
37 42 41 29 10 6 12 18 17 20 22 42 30 21 30 12 12 16 11 7 5 10 10 5 4 9 13 10 7 7 5 3 3 5 2 1 7 8 2 7 14 7 1 0
106 118 87 53 60 35 27 35 21 28 23 27 36 38 41 17 15 8 7 7 11 15 7 6 0 7 6 9 20 15 7 5 3 4 4 3 7 5 5 6 6 16 11 1
191 208 146 124 94 68 21 41 44 50 19 28 33 58 31 26 6 9 13 19 20 4 0 6 4 8 14 11 16 7 6 6 5 3 2 8 10 16 13 7 7 3 16 9
114 132 144 150 148 145 161 152 172 145 119 23 25 43 37 36 22 19 26 22 5 0 1 10 7 8 9 10 6 4 3 2 2 2 3 4 2 4 4 2 11 18 9 7
27 10 13 24 33 62 71 90 138 166 72 29 84 29 47 28 17 18 25 35 20 0 0 12 8 4 9 9 5 2 2 2 2 1 1 2 2 3 5 4 3 6 10 10
21 29 32 38 51 37 34 17 49 73 47 50 40 24 28 23 11 19 15 12 8 4 0 12 0 0 2 24 10 1 1 0 1 1 1 1 2 3 2 3 4 5 6 4
24 16 28 35 33 29 20 20 13 63 26 0 54 35 22 26 15 17 10 0 0 0 0 1 0 0 0 15 8 2 2 1 1 1 2 1 1 1 2 2 2 4 4 5
24 25 22 23 31 25 13 0 3 12 21 29 17 14 29 33 22 17 19 35 8 7 42 3 0 0 24 23 12 2 2 2 1 2 1 1 2 1 2 2 2 1 2 2
23 31 21 60 72 6 5 4 6 28 42 0 0 4 31 35 32 18 30 5 15 18 25 55 34 28 25 16 10 4 2 2 1 1 2 3 3 1 1 2 2 1 1 1
23 3 10 44 58 2 0 3 0 0 0 0 14 19 15 21 13 6 4 9 9 14 34 34 32 41 38 19 18 21 15 1 3 2 2 1 1 0 0 0 2 1 1 1

GFSNGP_con_mlcape_078.txt.gz
CAPE
0 0 0 0 0 0 0 0 39 224 190 3 0 0 0 0 0 0 0 0 0 0 0 0 0 0 0 0 0 0 0 35 83 97 1625 1903 1410 1450 1711 1793 1870 1899 1723 1462
0 0 0 0 0 2 0 0 19 103 84 0 0 0 0 0 0 0 0 0 0 0 0 0 0 0 0 0 0 0 0 1 0 279 432 862 1031 1257 1729 1687 1649 1864 1953 1892
0 0 0 0 0 0 0 0 272 202 21 0 0 0 0 0 0 0 0 0 0 0 0 0 0 0 0 0 0 0 0 0 0 0 0 241 957 1474 1599 1526 1596 1717 1941 1992
8 0 0 0 0 0 0 8 113 79 1 0 0 0 0 0 0 0 0 0 0 0 0 0 0 0 0 0 0 0 0 0 0 0 0 3 122 218 738 1173 1291 1479 1781 2050
0 0 0 0 0 0 0 10 42 2 0 0 0 0 0 0 0 0 0 0 0 0 0 0 0 0 0 0 0 0 0 0 0 0 0 0 6 2 15 388 1018 1157 1268 1552
13 1 6 2 0 0 0 14 0 0 0 0 0 0 0 0 0 0 0 0 0 0 0 0 0 0 0 0 0 0 0 0 0 0 0 0 0 0 0 0 118 799 1177 1396
6 39 102 0 0 0 0 0 0 0 0 0 0 0 0 0 0 0 0 0 0 0 0 0 0 0 0 0 0 0 0 0 0 0 0 0 0 0 0 0 0 103 330 1099
9 20 65 0 0 0 0 0 0 0 0 0 0 0 0 0 0 0 0 0 0 0 0 0 0 0 0 0 0 0 0 0 0 0 0 0 0 0 0 0 0 0 17 354
53 112 26 0 0 0 0 0 0 0 0 0 0 0 0 0 0 0 0 0 0 0 0 0 0 0 0 0 0 0 0 0 0 0 0 0 0 0 0 0 0 0 0 0
1 26 5 8 1 0 0 0 0 0 0 0 0 0 0 0 0 0 0 0 0 0 0 0 0 0 0 0 0 0 0 0 0 0 0 0 0 0 0 0 0 0 0 0
2 0 0 0 0 0 0 0 0 0 0 0 0 0 0 0 0 0 0 0 0 0 0 0 1 0 0 0 0 0 0 0 0 0 0 0 0 0 0 0 0 0 0 0
55 30 32 22 7 4 0 0 0 0 0 0 0 0 0 0 0 0 0 2 0 0 0 0 1 2 1 2 0 0 0 0 0 0 0 0 0 0 0 0 0 0 0 0
40 79 84 26 37 13 1 0 0 0 1 0 0 0 0 3 1 3 0 6 0 0 0 0 0 2 2 2 3 2 1 0 0 0 0 0 0 0 0 0 0 0 0 0
68 51 60 90 16 3 0 2 0 0 1 1 1 3 4 10 3 3 3 0 0 0 0 0 0 0 4 2 3 1 1 1 1 0 0 0 0 0 0 0 0 0 0 0
37 61 6 37 2 1 0 9 3 0 2 5 4 2 7 0 1 3 11 2 0 0 2 1 3 3 1 1 2 1 0 0 1 1 1 2 4 1 0 0 0 0 0 0
91 52 6 4 2 1 0 10 19 14 9 5 10 17 8 5 3 4 4 2 0 1 0 4 1 1 0 0 4 3 4 1 3 4 2 4 4 3 6 4 0 2 0 0
74 25 34 24 19 2 21 31 24 12 21 14 19 12 7 3 3 7 1 4 0 0 0 0 2 0 0 0 1 2 4 4 4 1 0 3 2 6 10 11 7 5 0 0
140 84 47 0 0 1 0 20 37 36 29 14 17 16 22 3 0 2 9 1 0 0 1 1 0 0 2 0 2 1 1 6 6 5 6 4 3 2 6 8 9 11 5 0
91 84 30 9 23 60 52 75 54 60 31 11 8 24 21 14 3 0 1 0 0 8 9 1 0 0 4 1 1 0 0 0 1 2 1 2 1 1 7 8 8 9 7 5
143 123 176 176 25 84 49 74 113 27 21 24 77 34 30 25 0 0 3 0 1 11 0 0 0 2 5 2 1 0 0 1 1 1 1 3 2 3 4 3 2 6 19 12
80 101 11 0 17 60 87 37 38 19 0 0 0 0 85 34 0 0 2 1 26 1 0 0 1 3 0 0 0 1 1 1 2 2 2 2 1 2 2 2 5 8 10 7
4 2 4 1 4 2 5 3 8 12 89 202 260 61 13 20 13 1 0 0 12 1 0 0 1 0 0 0 4 7 2 1 1 2 1 2 2 1 2 2 2 2 4 6
14 11 7 11 12 12 14 15 15 24 20 9 72 106 4 0 23 6 14 7 12 0 0 0 0 0 0 0 8 3 5 4 2 2 1 1 1 2 2 2 1 2 2 2
12 15 15 23 44 41 35 16 23 16 13 5 45 77 19 0 19 8 1 21 2 0 0 6 0 0 0 0 9 0 0 3 1 2 3 1 1 1 1 1 1 2 3 2
2 21 16 29 100 51 13 0 0 3 1 29 3 100 0 1 9 0 18 1 2 0 9 10 2 0 0 19 12 5 0 1 1 0 1 1 1 1 1 2 1 1 3 3
26 32 30 39 25 2 2 5 7 6 15 0 0 3 6 0 26 18 19 5 0 13 4 29 35 33 36 19 7 2 12 2 1 0 0 1 1 1 1 1 1 1 2 3
9 1 6 31 4 2 2 0 2 24 18 1 0 0 3 23 1 1 0 7 1 2 13 11 4 7 7 8 5 25 19 13 0 0 0 0 1 1 1 1 1 1 3 2

GFSNGP_con_mlcape_081.txt.gz
CAPE
0 0 0 0 0 0 0 0 20 42 9 0 0 0 0 0 0 0 0 0 0 0 0 0 0 0 0 0 0 0 0 0 3 37 35 76 368 1018 1677 1786 1838 1694 1339 1456
0 0 0 0 0 0 0 105 206 232 39 0 0 0 0 0 0 0 0 0 0 0 0 0 0 0 0 0 0 0 0 0 0 2 27 24 4 196 1116 1392 1687 1670 1547 1515
0 0 0 0 0 0 74 221 179 47 0 0 0 0 0 0 0 0 0 0 0 0 0 0 0 0 0 0 0 0 0 0 0 0 0 1 54 75 305 1070 1315 1474 1614 1840
0 0 0 0 0 0 0 85 45 0 0 0 0 0 0 0 0 0 0 0 0 0 0 0 0 0 0 0 0 0 0 0 0 0 0 0 15 43 35 216 643 1348 1278 1378
0 0 0 0 0 0 0 0 149 16 0 0 0 0 0 0 0 0 0 0 0 0 0 0 0 0 0 0 0 0 0 0 0 0 0 0 0 0 0 0 13 253 910 1097
0 0 0 0 0 0 0 0 186 37 0 0 0 0 0 0 0 0 0 0 0 0 0 0 0 0 0 0 0 0 0 0 0 0 0 0 0 0 0 0 0 0 65 274
0 12 16 0 0 0 0 8 23 3 0 0 0 0 0 0 0 0 0 0 0 0 0 0 0 0 0 0 0 0 0 0 0 0 0 0 0 0 0 0 0 0 0 0
0 0 8 0 0 0 0 0 0 0 0 0 0 0 0 0 0 0 0 0 0 0 0 0 0 0 0 0 0 0 0 0 0 0 0 0 0 0 0 0 0 0 0 0
24 0 0 0 0 0 0 0 0 0 0 0 0 0 0 0 0 0 0 0 0 0 0 0 0 0 0 0 0 0 0 0 0 0 0 0 0 0 0 0 0 0 0 0
0 32 15 0 0 0 0 0 0 0 0 0 0 0 0 0 0 0 0 0 0 0 0 0 0 0 0 0 0 0 0 0 0 0 0 0 0 0 0 0 0 0 0 0
0 0 0 0 0 0 0 0 0 0 0 0 0 0 0 0 0 0 0 0 0 0 0 0 0 0 0 0 0 0 0 0 0 0 0 0 0 0 0 0 0 0 0 0
0 43 82 11 1 0 0 0 0 0 0 0 0 0 0 0 0 0 0 0 0 0 0 0 0 0 0 0 0 0 0 0 0 0 0 0 0 0 0 0 0 0 0 0
1 17 48 44 54 66 0 0 0 0 0 0 0 0 0 0 0 0 0 0 0 0 0 0 0 0 0 0 0 0 0 0 0 0 0 0 0 0 0 0 0 0 0 0
0 0 62 51 97 55 60 0 0 0 0 0 0 0 0 0 0 0 0 0 0 0 0 0 0 0 0 0 0 0 0 0 0 0 0 0 0 0 0 0 0 0 0 0
7 39 16 65 54 47 28 37 0 0 0 0 0 0 0 0 0 0 0 0 0 0 0 0 0 0 0 0 0 0 0 0 0 0 0 0 0 0 0 0 0 0 0 0
5 2 62 36 19 17 2 3 0 0 0 9 4 0 0 0 0 0 0 0 0 0 0 0 0 0 0 0 0 0 0 0 0 0 0 0 0 0 1 1 0 0 0 0
0 5 7 7 3 6 9 0 11 17 3 0 0 0 5 7 0 0 0 0 0 0 0 0 0 0 0 0 0 0 0 0 0 0 0 0 3 5 5 3 1 2 3 1
1 34 72 44 13 11 2 3 4 9 34 80 45 29 11 8 0 0 0 0 0 0 0 0 0 0 0 0 0 0 0 0 0 0 0 0 0 0 0 1 2 2 3 4
30 84 30 38 13 2 3 0 1 25 28 39 40 35 20 20 9 0 0 0 0 0 0 0 0 0 0 0 0 0 0 0 0 0 0 0 0 1 1 3 2 1 5 5
22 11 18 78 37 3 16 26 48 29 8 10 8 0 6 46 25 5 1 0 0 0 0 0 0 0 0 0 0 0 0 0 0 0 0 1 1 1 2 2 3 3 3 2
1 14 3 11 5 6 11 3 1 10 21 22 0 0 0 0 13 0 0 0 0 0 0 0 0 0 0 0 0 0 0 0 0 0 0 0 0 1 0 2 3 3 2 2
0 0 0 0 0 0 0 0 5 1 6 6 2 0 7 0 0 12 0 6 13 1 0 0 0 0 0 0 0 0 0 0 0 0 0 0 0 1 0 1 2 2 1 2
0 0 0 1 0 2 7 12 8 6 12 15 7 9 28 32 2 7 0 0 4 0 0 0 0 0 0 0 0 0 0 0 0 0 0 0 1 1 1 2 1 2 2 1
0 0 0 10 20 15 5 0 0 0 0 0 0 11 6 24 7 0 0 0 0 0 0 0 0 0 0 0 0 0 0 0 0 0 0 1 0 1 1 2 0 2 2 2
2 2 6 8 0 0 0 0 0 0 1 0 0 11 111 42 0 0 0 1 0 6 0 0 0 4 0 0 0 0 0 0 0 0 0 1 1 2 1 1 1 1 2 1
2 5 2 0 0 0 1 2 2 2 4 1 9 18 19 0 0 7 13 9 1 0 2 3 0 0 0 5 7 1 0 0 0 0 0 0 1 1 1 2 1 2 2 2
0 0 0 0 0 0 0 0 8 2 0 2 6 7 3 19 11 11 18 12 1 15 10 11 14 10 6 4 2 0 3 0 0 0 0 0 0 0 2 3 3 2 1 1

GFSNGP_con_mlcape_084.txt.gz
CAPE
0 0 0 0 0 0 0 0 0 0 0 0 0 0 0 0 0 0 0 0 0 0 0 0 0 2 2 0 0 0 6 19 2 26 20 51 108 2 33 439 896 651 585 505
0 0 0 0 0 0 7 25 0 0 0 0 0 0 0 0 0 0 0 0 0 0 0 0 0 0 0 0 0 0 0 0 1 11 4 0 7 9 0 13 575 978 1056 1190
0 0 0 0 0 0 97 191 1 0 0 0 0 0 0 0 0 0 0 0 0 0 0 0 0 0 0 0 0 0 0 0 0 0 0 0 11 40 1 2 180 643 1034 1079
0 0 0 0 0 0 8 83 45 0 0 0 0 0 0 0 0 0 0 0 0 0 0 0 0 0 0 0 0 0 0 0 0 0 0 0 0 0 0 9 43 145 446 892
0 0 0 0 0 0 0 7 1 0 0 0 0 0 0 0 0 0 0 0 0 0 0 0 0 0 0 0 0 0 0 0 0 0 0 0 0 0 0 0 0 0 3 96
0 0 0 0 0 0 0 0 1 0 0 0 0 0 0 0 0 0 0 0 0 0 0 0 0 0 0 0 0 0 0 0 0 0 0 0 0 0 0 0 0 0 0 0
0 0 0 0 0 0 0 0 0 0 0 0 0 0 0 0 0 0 0 0 0 0 0 0 0 0 0 0 0 0 0 0 0 0 0 0 0 0 0 0 0 0 0 0
0 0 0 0 0 0 0 0 0 0 0 0 0 0 0 0 0 0 0 0 0 0 0 0 0 0 0 0 0 0 0 0 0 0 0 0 0 0 0 0 0 0 0 0
0 0 0 0 0 0 0 0 0 0 0 0 0 0 0 0 0 0 0 0 0 0 0 0 0 0 0 0 0 0 0 0 0 0 0 0 0 0 0 0 0 0 0 0
0 0 0 0 0 0 0 0 0 0 0 0 0 0 0 0 0 0 0 0 0 0 0 0 0 0 0 0 0 0 0 0 0 0 0 0 0 0 0 0 0 0 0 0
0 0 0 0 0 0 0 0 0 0 0 0 0 0 0 0 0 0 0 0 0 0 0 0 0 0 0 0 0 0 0 0 0 0 0 0 0 0 0 0 0 0 0 0
0 0 0 0 0 0 0 0 0 0 0 0 0 0 0 0 0 0 0 0 0 0 0 0 0 0 0 0 0 0 0 0 0 0 0 0 0 0 0 0 0 0 0 0
0 0 0 0 5 3 0 0 0 0 0 0 0 0 0 0 0 0 0 0 0 0 0 0 0 0 0 0 0 0 0 0 0 0 0 0 0 0 0 0 0 0 0 0
0 0 0 0 0 27 13 0 0 0 0 0 0 0 0 0 0 0 0 0 0 0 0 0 0 0 0 0 0 0 0 0 0 0 0 0 0 0 0 0 0 0 0 0
0 0 0 0 0 0 0 0 0 0 0 0 0 0 0 0 0 0 0 0 0 0 0 0 0 0 0 0 0 0 0 0 0 0 0 0 0 0 0 0 0 0 0 0
0 1 0 0 0 0 0 0 0 0 0 0 0 0 0 0 0 0 0 0 0 0 0 0 0 0 0 0 0 0 0 0 0 0 0 0 0 0 0 0 0 0 0 0
1 0 0 0 1 6 0 9 1 1 0 0 0 0 0 0 0 0 0 0 0 0 0 0 0 0 0 0 0 0 0 0 0 0 0 0 0 0 0 0 0 0 0 0
0 0 0 1 5 11 2 0 1 2 0 0 0 0 5 0 0 0 0 0 0 0 0 0 0 0 0 0 0 0 0 0 0 0 0 0 0 0 0 0 0 0 0 1
0 3 6 16 22 16 9 0 0 0 1 2 3 11 9 6 1 0 0 0 0 0 0 0 0 0 0 0 0 0 0 0 0 0 0 0 0 0 0 0 0 1 0 0
0 1 13 18 52 14 12 3 1 0 0 1 13 5 7 0 1 0 0 0 0 0 0 0 0 0 0 0 0 0 0 0 0 0 0 0 0 0 0 0 0 0 0 1
0 1 3 9 28 52 62 36 22 19 23 33 33 3 0 0 0 3 0 0 0 0 0 0 0 0 0 0 0 0 0 0 0 0 0 0 0 0 0 0 1 1 1 1
0 0 0 0 0 4 2 0 0 0 1 19 30 21 16 1 0 3 0 0 0 0 0 0 0 0 0 0 0 0 0 0 0 0 0 0 0 0 0 0 1 1 2 2
0 0 0 0 0 3 3 0 0 0 0 0 10 32 22 13 11 4 0 0 0 0 0 0 0 0 0 0 0 0 0 0 0 0 0 0 0 0 1 1 0 1 1 1
0 0 0 0 0 0 0 0 0 0 0 0 0 0 3 2 3 8 0 0 0 0 0 0 0 0 0 0 0 0 0 0 0 0 0 0 0 0 0 0 1 1 1 2
0 0 0 0 0 0 0 0 0 0 0 1 1 0 0 28 0 0 0 0 0 2 10 5 5 0 0 0 0 0 0 0 0 0 0 0 0 0 0 1 1 1 3 3
0 0 0 0 0 0 0 0 0 0 0 1 0 19 12 57 30 5 2 4 23 27 51 22 4 2 0 0 0 0 0 0 0 0 0 0 0 0 1 1 0 2 2 3
0 0 0 0 0 0 0 0 0 0 0 0 3 3 2 9 13 16 22 37 45 44 23 19 10 8 4 0 0 0 0 0 0 0 0 0 0 0 0 0 2 0 0 3

GFSNGP_con_mlcape_087.txt.gz
CAPE
0 0 0 0 0 0 0 0 0 0 0 0 0 0 0 0 0 0 0 0 0 0 0 0 0 0 0 0 6 17 7 17 3 3 0 0 6 4 0 11 183 560 624 457
0 0 0 0 0 0 0 0 0 0 0 0 0 0 0 0 0 0 0 0 0 0 0 0 0 1 2 1 0 0 0 0 0 0 5 0 15 0 0 0 15 99 439 702
0 0 8 0 0 0 10 26 0 0 0 0 0 0 0 0 0 0 0 0 0 0 0 0 0 0 0 0 0 0 0 1 1 1 0 0 0 0 0 0 0 0 26 276
0 0 0 0 0 0 0 0 0 0 0 0 0 0 0 0 0 0 0 0 0 0 0 0 0 0 0 0 0 0 0 0 0 0 0 0 0 0 0 0 0 0 0 0
0 0 0 0 0 0 0 0 0 0 0 0 0 0 0 0 0 0 0 0 0 0 0 0 0 0 0 0 0 0 0 0 0 0 0 0 0 0 0 0 0 0 0 0
0 0 0 0 0 0 0 0 0 0 0 0 0 0 0 0 0 0 0 0 0 0 0 0 0 0 0 0 0 0 0 0 0 0 0 0 0 0 0 0 0 0 0 0
0 0 0 0 0 0 0 0 2 1 0 0 0 0 0 0 0 0 0 0 0 0 0 0 0 0 0 0 0 0 0 0 0 0 0 0 0 0 0 0 0 0 0 0
0 0 0 0 0 0 0 0 0 0 0 0 0 0 0 0 0 0 0 0 0 0 0 0 0 0 0 0 0 0 0 0 0 0 0 0 0 0 0 0 0 0 0 0
0 0 0 0 0 0 0 0 0 0 0 0 0 0 0 0 0 0 0 0 0 0 0 0 0 0 0 0 0 0 0 0 0 0 0 0 0 0 0 0 0 0 0 0
0 0 0 0 0 0 0 0 0 0 0 0 0 0 0 0 0 0 0 0 0 0 0 0 0 0 0 0 0 0 0 0 0 0 0 0 0 0 0 0 0 0 0 0
0 0 0 0 0 0 0 0 0 0 0 0 0 0 0 0 0 0 0 0 0 0 0 0 0 0 0 0 0 0 0 0 0 0 0 0 0 0 0 0 0 0 0 0
0 0 0 0 0 0 0 0 0 0 0 0 0 0 0 0 0 0 0 0 0 0 0 0 0 0 0 0 0 0 0 0 0 0 0 0 0 0 0 0 0 0 0 0
0 0 0 0 0 0 0 0 0 0 0 0 0 0 0 0 0 0 0 0 0 0 0 0 0 0 0 0 0 0 0 0 0 0 0 0 0 0 0 0 0 0 0 0
0 0 0 0 0 0 3 3 0 0 0 0 0 0 0 0 0 0 0 0 0 0 0 0 0 0 0 0 0 0 0 0 0 0 0 0 0 0 0 0 0 0 0 0
0 0 0 0 0 0 0 0 0 0 0 0 0 0 0 0 0 0 0 0 0 0 0 0 0 0 0 0 0 0 0 0 0 0 0 0 0 0 0 0 0 0 0 0
0 0 0 0 0 0 0 0 0 0 0 0 0 0 0 0 0 0 0 0 0 0 0 0 0 0 0 0 0 0 0 0 0 0 0 0 0 0 0 0 0 0 0 0
0 0 0 0 0 0 0 0 0 0 0 0 0 0 0 0 0 0 0 0 0 0 0 0 0 0 0 0 0 0 0 0 0 0 0 0 0 0 0 0 0 0 0 0
0 0 0 0 0 0 0 0 0 0 0 1 0 0 0 0 0 0 0 0 0 0 0 0 0 0 0 0 0 0 0 0 0 0 0 0 0 0 0 0 0 0 0 0
0 0 0 0 0 9 16 12 7 3 0 1 8 0 0 0 0 0 0 0 0 0 0 0 0 0 0 0 0 0 0 0 0 0 0 0 0 0 0 0 0 0 0 0
0 0 0 2 10 28 37 30 9 0 0 0 2 3 0 4 0 0 0 0 0 0 0 0 0 0 0 0 0 0 0 0 0 0 0 0 0 0 0 0 0 0 0 0
0 0 1 3 3 25 50 48 44 36 27 9 5 3 0 1 9 3 0 0 0 0 0 0 0 0 0 0 0 0 0 0 0 0 0 0 0 0 0 0 0 0 0 0
0 0 0 0 0 6 4 0 0 2 1 1 4 21 13 15 12 10 4 3 0 0 0 0 0 0 0 0 0 0 0 0 0 0 0 0 0 0 0 0 0 0 0 0
0 0 0 0 0 0 0 0 0 0 0 0 0 0 0 8 5 12 3 13 0 0 0 0 0 0 0 1 1 0 0 0 0 0 0 0 0 0 0 0 0 0 0 0
0 0 0 0 0 0 0 0 0 0 0 0 0 0 0 0 0 0 0 9 0 0 0 0 0 0 0 2 0 0 0 0 0 0 0 0 0 0 0 0 0 0 0 1
0 0 0 0 0 0 0 0 0 0 0 0 1 0 0 0 0 0 3 2 0 0 0 0 4 15 8 11 0 0 0 0 0 0 0 0 0 0 0 0 0 0 0 1
0 0 0 0 0 0 0 0 0 0 0 2 1 1 4 0 0 1 9 12 0 0 17 12 20 22 18 2 0 0 0 0 0 0 0 0 0 0 0 0 0 0 0 1
0 0 0 0 0 0 0 0 0 0 0 0 0 0 1 4 0 0 0 0 0 5 8 15 23 31 11 5 1 0 0 0 0 0 0 0 0 0 0 0 0 0 1 1

GFSNGP_con_mlcape_090.txt.gz
CAPE
0 0 0 0 0 0 0 0 0 0 0 0 0 0 0 0 0 0 0 0 0 0 0 1 0 4 33 33 29 36 46 41 23 3 0 0 0 0 0 0 25 220 477 443
0 0 0 0 0 0 15 0 0 0 0 0 0 0 0 0 0 0 0 0 0 0 1 1 2 1 1 0 0 6 1 0 3 0 5 1 0 0 0 0 0 0 85 303
0 0 8 0 0 0 0 0 0 0 0 0 0 0 0 0 0 0 0 0 0 0 0 0 0 0 1 1 0 0 1 1 1 0 0 0 0 0 0 0 0 0 0 0
0 0 0 0 0 0 0 0 0 0 0 0 0 0 0 0 0 0 0 0 0 0 0 0 0 0 0 0 0 0 0 0 0 0 0 0 0 0 0 0 0 0 0 0
0 0 0 0 0 0 0 0 0 0 0 0 0 0 0 0 0 0 0 0 0 0 0 0 0 0 0 0 0 0 0 0 0 0 0 0 0 0 0 0 0 0 0 0
0 0 0 0 0 0 0 0 0 0 0 0 0 14 0 0 0 0 0 0 0 0 0 0 0 0 0 0 0 0 0 0 0 0 0 0 0 0 0 0 0 0 0 0
0 0 0 0 0 0 0 0 0 0 1 0 0 0 0 0 0 0 0 0 0 0 0 0 0 0 0 0 0 0 0 0 0 0 0 0 0 0 0 0 0 0 0 0
0 0 0 0 0 0 0 0 0 0 0 0 0 0 0 0 0 0 0 0 0 0 0 0 0 0 0 0 0 0 0 0 0 0 0 0 0 0 0 0 0 0 0 0
0 0 0 0 0 0 0 0 0 0 0 0 0 0 0 0 0 0 0 0 0 0 0 0 0 0 0 0 0 0 0 0 0 0 0 0 0 0 0 0 0 0 0 0
0 0 0 0 0 0 0 0 0 0 0 0 0 0 0 0 0 0 0 0 0 0 0 0 0 0 0 0 0 0 0 0 0 0 0 0 0 0 0 0 0 0 0 0
0 0 0 0 0 0 0 0 0 0 0 0 0 0 0 0 0 0 0 0 0 0 0 0 0 0 0 0 0 0 0 0 0 0 0 0 0 0 0 0 0 0 0 0
0 0 0 0 0 0 0 0 0 0 0 0 0 0 0 0 0 0 0 0 0 0 0 0 0 0 0 0 0 0 0 0 0 0 0 0 0 0 0 0 0 0 0 0
0 0 0 0 0 0 0 0 0 0 0 0 0 0 0 0 0 0 0 0 0 0 0 0 0 0 0 0 0 0 0 0 0 0 0 0 0 0 0 0 0 0 0 0
0 0 0 0 0 0 0 0 0 0 0 0 0 0 0 0 0 0 0 0 0 0 0 0 0 0 0 0 0 0 0 0 0 0 0 0 0 0 0 0 0 0 0 0
0 0 0 0 0 0 0 0 0 0 0 0 0 0 0 0 0 0 0 0 0 0 0 0 0 0 0 0 0 0 0 0 0 0 0 0 0 0 0 0 0 0 0 0
0 0 0 0 0 0 0 0 0 0 0 0 0 0 0 0 0 0 0 0 0 0 0 0 0 0 0 0 0 0 0 0 0 0 0 0 0 0 0 0 0 0 0 0
0 0 0 0 0 0 0 0 0 0 0 0 0 0 0 0 0 0 0 0 0 0 0 0 0 0 0 0 0 0 0 0 0 0 0 0 0 0 0 0 0 0 0 0
0 0 0 0 0 0 0 0 0 0 0 0 0 0 0 0 0 0 0 0 0 0 0 0 0 0 0 0 0 0 0 0 0 0 0 0 0 0 0 0 0 0 0 0
0 0 0 0 0 0 1 6 8 12 8 5 1 0 0 0 0 0 0 0 0 0 0 0 0 0 0 0 0 0 0 0 0 0 0 0 0 0 0 0 0 0 0 0
0 0 0 0 0 10 16 10 3 12 15 11 5 5 8 1 0 0 0 0 0 0 0 0 0 0 0 0 0 0 0 0 0 0 0 0 0 0 0 0 0 0 0 0
0 0 0 1 3 0 0 0 4 22 1 10 26 30 30 33 21 1 0 3 0 0 0 0 0 0 0 0 0 0 0 0 0 0 0 0 0 0 0 0 0 0 0 0
0 0 0 0 0 0 0 0 0 0 0 0 0 0 0 10 28 20 0 0 5 0 0 0 0 0 0 0 0 0 0 0 0 0 0 0 0 0 0 0 0 0 0 0
0 0 0 0 0 0 0 0 0 0 0 0 0 0 0 0 0 14 18 12 20 17 0 0 0 0 0 0 0 0 0 0 0 0 0 0 0 0 0 0 0 0 0 0
0 0 0 0 0 0 0 0 0 0 0 0 0 0 0 0 0 0 0 3 22 3 0 0 0 0 2 0 0 0 0 0 0 0 0 0 0 0 0 0 0 0 0 0
0 0 0 0 0 0 0 0 0 0 0 1 0 0 0 0 0 0 0 0 3 1 1 1 1 3 1 0 0 0 0 0 0 0 0 0 0 0 0 0 0 0 0 0
0 0 0 0 0 0 0 0 0 0 0 0 0 0 3 0 0 0 3 10 11 0 0 3 8 12 1 0 0 0 7 2 0 0 0 0 0 0 0 0 0 0 0 0
0 0 0 0 0 0 0 0 0 0 0 0 0 0 0 0 0 4 17 27 53 33 13 18 30 34 24 16 10 10 0 0 0 0 0 0 0 0 0 0 0 0 0 0

GFSNGP_con_mlcape_093.txt.gz
CAPE
0 0 0 0 0 0 0 0 0 0 0 6 46 21 0 1 0 0 1 0 0 1 2 6 37 96 108 91 63 41 51 49 40 18 92 148 167 119 110 164 286 654 949 920
0 0 0 0 0 68 0 0 0 0 0 0 13 0 0 1 0 0 0 0 0 1 3 2 1 1 0 1 10 94 94 68 21 18 0 0 33 2 6 47 81 140 326 505
1 0 3 0 0 0 0 0 0 0 2 0 0 0 0 0 0 0 0 0 0 1 0 0 1 1 1 1 1 1 1 1 0 1 3 0 0 0 0 0 0 0 0 32
0 0 0 0 0 0 0 0 0 0 0 0 0 0 0 0 0 0 0 0 0 1 3 1 1 0 0 0 0 0 0 0 0 0 0 0 0 0 0 0 0 0 0 0
0 0 0 0 0 0 0 0 0 0 0 0 0 0 0 0 0 0 0 0 0 0 0 0 0 0 0 0 0 0 0 0 0 0 0 0 0 0 0 0 0 0 0 0
0 0 0 0 0 0 0 0 0 1 8 3 0 116 43 0 0 0 0 0 0 0 0 0 0 0 0 0 0 0 0 0 0 0 0 0 0 0 0 0 0 0 0 0
0 0 0 0 0 0 0 0 0 1 4 0 18 27 0 0 0 0 0 0 0 0 0 0 0 0 0 0 0 0 0 0 0 0 0 0 0 0 0 0 0 0 0 0
0 0 0 0 0 0 0 0 0 0 0 0 0 0 0 0 0 0 0 0 0 0 0 0 0 0 0 0 0 0 0 0 0 0 0 0 0 0 0 0 0 0 0 0
0 0 0 0 0 0 0 0 0 0 1 0 0 0 0 0 0 0 0 0 0 0 0 0 0 0 0 0 0 0 0 0 0 0 0 0 0 0 0 0 0 0 0 0
0 0 0 0 0 0 0 0 0 0 0 0 0 0 0 0 0 0 0 0 0 0 0 0 0 0 0 0 0 0 0 0 0 0 0 0 0 0 0 0 0 0 0 0
0 0 0 0 0 0 0 0 0 0 0 0 0 0 0 0 0 0 0 0 0 0 0 0 0 0 0 0 0 0 0 0 0 0 0 0 0 0 0 0 0 0 0 0
0 0 0 0 0 0 0 0 0 0 0 0 0 0 0 0 0 0 0 0 0 0 0 0 0 0 0 0 0 0 0 0 0 0 0 0 0 0 0 0 0 0 0 0
0 0 0 0 0 0 0 0 0 0 0 0 0 0 0 0 0 0 0 0 0 0 0 0 0 0 0 0 0 0 0 0 0 0 0 0 0 0 0 0 0 0 0 0
0 0 0 0 0 0 0 0 0 0 0 0 0 0 0 0 0 0 0 0 0 0 0 0 0 0 0 0 0 0 0 0 0 0 0 0 0 0 0 0 0 0 0 0
0 0 0 0 0 0 0 0 0 0 0 0 0 0 0 0 0 0 0 0 0 0 0 0 0 0 0 0 0 0 0 0 0 0 0 0 0 0 0 0 0 0 0 0
0 0 0 0 0 0 0 0 0 0 0 0 0 0 0 0 0 0 0 0 0 0 0 0 0 0 0 0 0 0 0 0 0 0 0 0 0 0 0 0 0 0 0 0
0 0 0 0 0 0 0 0 0 0 0 0 0 0 0 0 0 0 0 0 0 0 0 0 0 0 0 0 0 0 0 0 0 0 0 0 0 0 0 0 0 0 0 0
0 0 0 0 0 0 0 0 0 0 0 0 0 0 0 0 0 0 0 0 0 0 0 0 0 0 0 0 0 0 0 0 0 0 0 0 0 0 0 0 0 0 0 0
0 0 0 0 0 0 0 0 5 9 8 10 16 16 15 1 0 0 0 0 0 0 0 0 0 0 0 0 0 0 0 0 0 0 0 0 0 0 0 0 0 0 0 0
0 0 0 0 0 0 12 16 17 13 11 11 35 29 29 40 32 4 0 0 0 0 0 0 0 0 0 0 0 0 0 0 0 0 0 0 0 0 0 0 0 0 0 0
0 0 0 0 0 0 0 0 0 0 0 0 0 6 23 49 69 77 21 1 0 0 0 0 0 0 0 0 0 0 0 0 0 0 0 0 0 0 0 0 0 0 0 0
0 0 0 0 0 0 0 0 0 0 0 0 0 0 0 0 1 15 67 54 1 0 0 0 0 0 0 0 0 0 0 0 0 0 0 0 0 0 0 0 0 0 0 0
0 0 0 0 0 0 0 0 0 0 0 0 0 1 1 2 2 0 0 85 83 1 0 0 0 0 1 2 0 0 0 0 0 0 0 0 0 0 0 0 0 0 0 0
0 0 0 0 0 0 0 0 0 0 0 3 6 5 4 1 1 7 2 1 13 38 76 68 5 3 12 2 2 1 0 0 9 17 2 0 0 0 0 0 0 0 0 0
0 0 0 0 0 0 0 0 0 0 0 1 1 7 10 1 2 3 20 11 13 29 68 28 1 2 5 2 2 1 1 9 1 5 25 0 1 1 0 0 0 0 0 0
0 0 0 0 0 0 0 0 0 0 0 0 0 0 2 7 4 10 37 53 156 48 41 23 2 3 1 1 1 0 0 8 1 0 17 16 17 14 3 0 0 0 0 0
0 0 0 0 0 0 0 0 0 0 0 0 4 9 2 7 10 70 98 214 128 109 14 21 6 4 9 4 3 10 17 23 23 52 38 15 14 14 6 0 0 0 0 0

GFSNGP_con_mlcape_096.txt.gz
CAPE
25 1 0 1 0 0 0 0 11 33 43 328 614 642 434 135 95 50 92 104 34 18 31 60 269 674 558 409 296 320 160 76 77 80 61 46 239 585 742 858 920 970 1187 1335
28 17 0 47 71 8 0 0 2 11 36 72 592 640 491 249 34 108 108 69 9 2 2 7 13 109 336 327 217 305 164 109 49 93 68 89 145 294 388 418 524 823 983 1207
32 19 62 28 19 28 41 53 79 9 213 218 334 325 343 310 84 108 113 46 3 5 3 3 1 1 0 0 0 12 6 2 2 5 14 0 0 1 60 141 167 166 297 616
32 33 35 44 0 0 23 22 31 75 102 184 239 271 294 299 269 59 14 0 1 4 4 3 2 1 2 1 1 0 0 0 1 2 3 3 0 0 0 5 90 91 112 89
64 26 28 0 0 0 0 9 12 87 159 250 285 130 63 59 100 58 40 1 0 0 2 2 1 1 0 0 0 0 0 0 0 0 0 0 0 0 0 1 12 24 63 11
0 47 51 1 0 0 0 0 11 88 136 141 132 311 209 7 18 6 0 1 4 0 0 0 0 0 0 0 0 0 0 0 0 0 0 0 0 0 0 0 1 2 3 0
8 0 0 0 0 0 0 7 3 118 164 137 208 15 33 1 0 0 0 0 0 0 0 0 0 0 0 0 0 0 0 0 0 0 0 0 0 0 0 0 0 0 0 0
0 0 0 0 0 0 0 0 0 82 158 138 28 0 0 0 0 0 0 0 0 0 0 0 0 0 0 0 0 0 0 0 0 0 0 0 0 0 0 0 0 0 0 0
0 0 0 0 0 0 0 0 0 10 77 119 33 0 0 0 0 0 0 0 0 0 0 0 0 0 0 0 0 0 0 0 0 0 0 0 0 0 0 0 0 0 0 0
0 0 0 0 0 0 0 0 0 0 74 88 44 10 0 0 0 0 0 0 0 0 0 0 0 0 0 0 0 0 0 0 0 0 0 0 0 0 0 0 0 0 0 0
0 0 7 0 0 0 0 0 0 0 24 83 87 33 10 0 0 0 0 0 0 0 0 0 0 0 0 0 0 0 0 0 0 0 0 0 0 0 0 0 0 0 0 0
0 0 0 0 0 0 0 0 0 0 0 8 65 67 32 11 0 0 0 0 0 0 0 0 0 0 0 0 0 0 0 0 0 0 0 0 0 0 0 0 0 0 0 0
0 0 0 0 0 0 0 0 0 0 0 0 0 1 41 72 9 0 0 0 0 0 0 0 0 0 0 0 0 0 0 0 0 0 0 0 0 0 0 0 0 0 0 0
0 0 0 0 0 0 0 0 0 0 0 0 0 0 0 7 43 0 0 0 0 0 0 0 0 0 0 0 0 0 0 0 0 0 0 0 0 0 0 0 0 0 0 0
0 0 0 0 0 0 0 0 0 0 0 0 0 0 0 0 0 0 6 2 0 0 0 0 0 0 0 0 0 0 0 0 0 0 0 0 0 0 0 0 0 0 0 0
0 0 0 0 0 0 0 0 0 0 0 0 0 0 0 0 0 3 14 9 5 0 0 0 0 0 0 0 0 0 0 0 0 0 0 0 0 0 0 0 0 0 0 0
0 0 0 0 0 0 0 0 0 0 0 0 0 0 0 0 0 0 0 6 23 29 23 8 0 0 0 0 0 0 0 0 0 0 0 0 0 0 0 0 0 0 0 0
0 0 0 5 1 0 0 0 0 0 2 2 0 0 1 1 0 0 0 0 7 5 11 12 0 0 0 0 0 0 0 0 0 0 0 0 0 0 0 0 0 0 0 0
0 0 0 0 0 0 0 2 3 1 6 14 21 21 22 17 28 26 13 12 13 9 3 12 7 0 0 0 0 0 0 0 0 0 0 0 0 0 0 0 0 0 0 0
0 1 7 13 17 21 52 14 13 26 22 19 32 36 31 33 39 36 26 21 23 21 12 12 2 0 0 0 0 0 0 0 0 0 0 0 0 0 0 0 0 0 0 0
17 38 51 35 2 0 0 0 0 0 0 0 0 0 0 0 4 25 25 6 20 72 7 0 0 0 0 0 0 0 0 0 0 0 0 0 0 0 0 0 0 0 0 0
14 4 1 0 0 0 0 0 0 0 0 0 0 0 0 0 0 0 1 15 28 33 37 8 13 1 0 0 0 0 0 0 0 0 0 0 0 0 0 0 0 0 0 0
0 0 0 0 0 0 0 0 0 0 1 3 3 4 4 4 6 2 1 5 15 70 21 23 22 0 1 1 1 0 0 0 0 0 0 2 0 0 0 0 1 2 6 6
0 0 0 0 0 0 0 0 0 0 2 4 8 4 13 4 2 3 13 14 0 4 117 100 44 0 1 4 1 1 0 0 0 0 3 1 2 1 1 2 3 9 13 10
0 0 0 0 0 0 0 0 0 3 3 10 12 14 22 22 2 3 12 21 10 13 164 186 114 41 1 3 2 2 2 1 0 2 5 8 3 1 9 8 15 21 24 21
0 1 1 0 0 0 0 0 9 5 7 17 22 21 24 33 49 73 87 38 119 99 189 212 212 84 28 2 1 1 1 1 1 4 9 2 19 31 20 18 25 30 29 22
0 1 0 0 0 0 1 2 10 23 16 16 21 22 14 31 26 158 128 132 97 211 116 28 1 1 1 2 2 3 14 4 1 11 16 25 25 31 38 34 27 25 20 12

GFSNGP_con_mlcape_099.txt.gz
CAPE
12 14 9 0 0 0 0 5 26 29 154 574 787 797 779 593 447 303 302 212 116 125 231 427 843 861 600 342 297 369 286 271 204 57 65 48 68 208 375 797 692 819 811 939
65 2 10 15 20 3 0 0 0 23 178 8 714 991 870 698 657 625 436 345 118 37 41 50 172 979 933 832 511 418 658 485 337 284 383 298 241 88 371 498 668 936 943 1229
3 27 16 54 68 44 31 36 31 114 286 185 632 886 950 752 582 521 401 205 98 32 22 8 5 53 272 520 661 738 466 350 281 228 194 254 228 143 161 202 343 538 654 329
133 44 28 58 22 31 112 92 79 226 233 388 495 672 800 718 690 551 254 159 91 6 5 3 2 1 2 2 32 71 46 26 20 23 19 8 31 1 0 26 186 238 257 60
23 0 18 62 46 57 68 98 91 201 251 384 548 722 696 658 638 447 213 169 67 2 4 3 1 0 1 2 1 0 3 1 0 0 0 1 1 22 19 55 135 196 164 37
92 5 141 0 0 0 0 186 75 106 331 502 538 569 574 416 391 328 167 19 0 2 1 2 2 0 0 0 0 0 0 0 0 0 0 0 1 0 1 0 35 50 0 0
98 19 0 1 0 0 0 106 99 165 195 408 612 619 379 405 217 126 47 0 0 0 0 0 0 0 0 0 0 0 0 0 0 0 0 0 0 0 0 0 5 2 3 1
118 10 52 0 0 2 106 44 96 217 296 374 268 250 267 227 104 73 16 2 3 1 0 0 0 0 0 0 0 0 0 0 0 0 0 0 0 0 0 0 0 1 2 0
137 314 70 36 152 75 45 36 27 95 151 248 184 199 229 182 79 26 3 0 0 0 0 0 0 0 0 0 0 0 0 0 0 0 0 0 0 0 0 0 0 0 0 0
113 45 1 0 0 0 0 0 0 7 70 123 126 176 227 183 107 37 1 0 0 0 0 0 0 0 0 0 0 0 0 0 0 0 0 0 0 0 0 0 0 0 0 0
55 109 54 16 0 0 0 0 0 0 14 82 137 160 223 213 157 91 12 0 0 0 0 0 0 0 0 0 0 0 0 0 0 0 0 0 0 0 0 0 0 0 0 0
0 3 11 0 0 0 0 0 0 0 0 51 172 218 227 222 203 142 72 1 0 0 0 0 0 0 0 0 0 0 0 0 0 0 0 0 0 0 0 0 0 0 0 0
2 0 1 0 1 0 0 0 0 0 0 0 19 159 258 269 213 127 105 29 1 0 0 0 0 0 0 0 0 0 0 0 0 0 0 0 0 0 0 0 0 0 0 0
2 32 0 2 0 0 0 2 0 0 0 0 1 0 3 132 291 277 179 146 57 3 0 0 0 0 0 0 0 0 0 0 0 0 0 0 0 0 0 0 0 0 0 0
4 0 0 8 4 6 2 1 0 0 1 2 2 2 6 5 17 171 148 151 161 56 9 1 0 0 0 0 0 0 0 0 0 0 0 0 0 0 0 0 0 0 0 0
0 0 0 9 12 13 3 0 0 0 0 0 0 0 8 20 23 34 65 123 135 112 75 67 8 0 0 0 0 0 0 0 0 0 0 0 0 0 0 0 0 0 0 0
11 7 0 12 13 13 12 4 0 0 0 0 0 2 1 0 1 8 34 76 91 175 209 178 82 25 3 0 0 0 0 0 0 0 0 0 0 0 0 0 0 0 0 0
22 23 13 14 12 6 10 6 4 3 5 10 4 1 1 3 7 10 17 28 37 68 168 267 157 105 4 0 0 0 0 0 0 0 0 0 0 0 0 0 0 0 0 0
6 9 18 21 10 11 22 24 23 15 6 7 10 11 10 15 14 13 23 24 28 35 47 141 177 95 28 3 0 0 0 0 0 0 0 0 0 0 0 0 0 0 0 0
2 22 10 6 15 26 35 28 2 6 18 14 11 11 10 12 14 17 12 5 18 25 34 25 42 79 115 45 0 0 0 0 0 0 0 0 0 0 0 0 0 0 0 0
8 20 19 69 116 71 20 0 0 3 4 1 1 1 1 0 0 0 0 0 4 23 57 74 59 101 128 91 8 0 1 0 0 0 0 0 0 0 0 0 0 0 0 0
23 45 78 47 3 0 0 0 0 0 0 0 1 2 2 1 3 3 3 5 1 12 69 120 67 55 89 65 33 1 0 0 0 0 2 0 0 0 0 0 0 0 0 0
25 25 10 3 0 0 0 0 0 0 0 1 1 3 1 8 4 1 0 0 8 2 37 78 126 101 52 39 54 22 0 0 0 0 0 3 0 0 0 0 1 2 2 1
17 9 1 0 0 0 0 0 0 1 3 2 11 9 3 26 28 15 8 2 0 0 7 168 132 94 23 26 78 28 2 0 0 0 0 0 0 0 0 0 0 4 3 1
1 0 0 0 0 0 3 2 0 2 3 11 17 18 27 41 38 31 38 72 53 12 39 70 78 50 72 82 111 4 1 0 0 0 0 0 3 0 0 2 1 0 6 8
0 0 0 0 0 0 0 1 2 5 3 16 13 17 13 34 37 79 141 70 225 158 246 265 208 220 214 158 32 0 1 1 1 0 1 5 4 1 0 1 3 6 9 8
0 0 0 0 0 0 0 0 1 7 5 17 11 19 23 18 51 42 65 120 163 49 7 3 1 0 15 23 6 0 1 1 1 2 1 0 0 0 0 7 27 29 18 27

GFSNGP_con_mlcape_102.txt.gz
CAPE
3 0 1 0 0 0 0 0 7 98 486 378 530 1023 896 667 646 644 524 477 827 545 705 1206 1178 909 771 651 392 208 151 111 81 61 13 6 48 59 80 53 321 597 669 665
10 2 3 0 1 0 0 0 14 49 475 327 290 280 622 512 399 465 435 382 231 224 349 367 752 1137 807 517 415 446 283 247 248 284 145 91 74 26 29 42 164 367 258 584
126 136 57 10 62 52 4 0 10 514 323 68 0 0 952 692 632 619 455 293 207 121 64 5 2 253 588 1100 738 631 617 548 359 302 415 355 234 147 72 32 84 73 268 79
35 0 33 20 9 22 67 31 627 575 247 270 289 990 962 921 711 504 328 185 101 21 2 2 2 1 12 127 374 368 327 384 297 278 132 108 85 37 0 21 59 105 117 0
1 0 0 96 8 8 87 152 127 243 267 463 496 956 935 871 736 425 285 230 69 4 3 4 1 2 1 0 0 3 2 4 10 16 7 0 10 44 44 2 4 89 88 0
58 40 21 12 0 0 5 0 10 9 369 482 582 628 758 541 481 378 48 0 0 2 3 1 1 2 1 1 0 0 0 0 0 0 0 0 0 0 0 0 67 2 0 0
0 2 0 0 0 0 0 22 27 230 367 653 857 860 565 366 261 234 118 0 0 0 0 0 0 0 0 0 0 0 0 0 0 0 0 0 0 0 0 0 0 0 0 0
104 26 44 10 1 6 85 65 175 383 511 526 457 785 528 292 131 78 6 0 0 0 0 0 0 0 0 0 0 0 0 0 0 0 0 0 0 0 0 0 0 0 0 0
258 129 127 103 198 155 191 113 89 187 183 361 314 445 446 250 137 0 4 3 2 0 0 0 0 0 0 0 0 0 0 0 0 0 0 0 0 0 0 0 0 0 0 0
136 274 43 0 31 22 6 0 0 29 81 134 212 275 383 331 186 61 3 2 0 0 0 0 0 0 0 0 0 0 0 0 0 0 0 0 0 0 0 0 0 0 0 0
23 87 27 0 0 0 0 0 0 0 10 109 171 244 387 394 254 120 43 2 1 0 0 0 0 0 0 0 0 0 0 0 0 0 0 0 0 0 0 0 0 0 0 0
10 176 167 25 19 2 0 0 0 0 0 32 107 175 273 360 260 121 72 14 1 0 0 0 0 0 0 0 0 0 0 0 0 0 0 0 0 0 0 0 0 0 0 0
56 62 70 36 60 56 0 0 0 0 0 0 34 75 98 259 219 198 114 60 42 19 10 0 0 0 0 0 0 0 0 0 0 0 0 0 0 0 0 0 0 0 0 0
7 119 128 63 101 21 0 1 0 0 1 0 0 0 10 370 157 178 176 120 106 62 12 4 0 0 0 0 0 0 0 0 0 0 0 0 0 0 0 0 0 0 0 0
31 17 31 25 19 62 3 4 0 0 8 9 1 1 7 10 221 399 335 287 233 128 57 21 13 2 0 0 0 0 0 0 0 0 0 0 0 0 0 0 0 0 0 0
101 57 5 33 31 29 9 8 4 10 12 4 1 5 4 5 9 14 55 175 138 154 121 90 80 30 0 0 0 0 0 0 0 0 0 0 0 0 0 0 0 0 0 0
116 67 32 20 27 18 15 15 9 1 4 0 0 0 0 0 0 0 0 4 43 86 162 193 173 197 42 0 0 0 0 0 0 0 0 0 0 0 0 0 0 0 0 0
109 51 13 37 14 9 4 2 3 4 9 21 10 0 1 4 3 3 3 3 4 19 58 53 95 214 130 1 0 0 0 0 0 0 0 0 0 0 0 0 0 0 0 0
51 23 19 16 11 9 7 3 9 25 13 3 2 4 2 1 4 12 13 6 6 6 6 24 24 83 150 52 23 0 0 0 0 0 0 0 0 0 0 0 0 0 0 0
76 32 21 14 8 8 12 36 15 20 6 4 0 0 0 0 0 1 1 0 0 2 13 24 20 22 137 180 118 44 16 3 0 0 0 0 0 0 0 0 0 0 0 0
44 4 7 10 45 107 87 26 0 0 0 0 0 0 0 0 0 0 0 0 2 14 4 16 110 126 53 36 140 95 33 14 4 2 0 0 0 0 0 0 0 0 0 0
8 11 20 24 22 8 2 0 0 0 0 0 0 0 0 0 3 1 0 0 0 0 0 2 84 78 42 114 214 139 78 8 0 0 1 0 2 0 0 0 2 0 0 0
14 21 16 13 13 5 0 0 0 0 0 0 1 0 0 0 5 9 9 6 0 0 0 0 21 44 70 123 104 191 117 37 0 0 0 0 0 0 1 4 2 7 6 1
8 5 9 4 11 5 0 0 1 0 0 0 2 0 2 8 11 8 13 11 0 0 0 0 1 13 50 84 114 189 214 199 152 0 0 0 0 0 0 0 0 3 4 0
10 12 7 0 0 0 0 0 0 0 0 1 2 9 10 18 10 8 32 44 96 33 128 85 23 19 103 115 146 189 185 99 29 1 0 0 0 0 0 0 0 0 0 1
0 0 0 0 0 0 0 0 0 2 1 0 5 5 2 9 24 13 66 58 134 60 89 155 135 169 273 238 190 221 162 81 2 0 2 0 0 0 0 0 0 0 0 0
0 0 1 0 0 0 0 0 0 0 0 0 0 0 1 15 10 8 28 97 80 11 0 5 1 0 4 11 43 68 51 20 10 0 1 0 0 0 0 0 0 0 0 2

GFSNGP_con_mlcape_105.txt.gz
CAPE
4 28 0 0 2 11 0 0 0 236 211 147 54 396 632 430 483 475 436 400 244 123 167 13 132 453 433 403 235 174 83 46 50 54 22 24 29 22 20 4 12 150 473 277
22 65 94 17 71 72 25 0 536 752 608 438 566 465 334 183 229 297 446 367 436 330 289 163 545 434 460 526 436 347 169 144 165 97 46 19 10 15 0 2 0 37 39 24
79 62 97 128 13 84 157 152 246 587 463 322 167 42 0 45 208 393 305 102 150 91 120 145 257 425 612 644 551 451 343 353 323 298 202 276 196 154 67 1 0 4 0 0
33 81 166 28 0 7 106 139 146 207 25 0 0 0 0 384 517 474 275 172 25 7 1 1 4 135 238 528 587 598 703 580 425 308 177 119 59 27 0 13 17 0 0 0
1 10 33 72 0 0 5 2 0 289 389 216 38 513 591 556 376 324 252 70 0 0 1 1 1 1 18 144 181 202 159 183 164 120 41 11 0 29 7 0 10 3 0 0
6 31 13 0 0 0 0 19 0 3 201 293 437 149 466 246 243 143 55 3 0 0 1 0 1 1 0 0 0 0 0 0 0 0 0 0 0 0 0 0 6 0 0 0
44 22 0 0 0 0 0 17 2 111 0 0 0 214 287 249 111 55 2 0 0 0 0 0 0 0 0 0 0 0 0 0 0 0 0 0 0 0 0 0 0 0 0 0
0 3 0 3 0 0 3 27 33 373 15 277 59 341 473 262 258 43 0 0 0 0 0 0 0 0 0 0 0 0 0 0 0 0 0 0 0 0 0 0 0 0 0 0
30 0 0 42 139 151 65 1 0 15 273 284 390 387 331 267 127 38 0 0 0 0 0 0 0 0 0 0 0 0 0 0 0 0 0 0 0 0 0 0 0 0 0 0
87 50 70 132 3 5 0 0 0 0 1 255 472 441 296 199 114 44 7 0 0 0 0 0 0 0 0 0 0 0 0 0 0 0 0 0 0 0 0 0 0 0 0 0
122 63 16 1 0 0 0 0 0 0 0 14 228 520 463 281 132 42 1 0 0 0 0 0 0 0 0 0 0 0 0 0 0 0 0 0 0 0 0 0 0 0 0 0
34 70 40 2 0 0 0 0 0 0 0 0 9 334 255 136 59 33 15 3 2 0 0 0 0 0 0 0 0 0 0 0 0 0 0 0 0 0 0 0 0 0 0 0
79 50 7 7 22 0 0 0 0 0 0 0 0 218 225 215 118 58 41 24 8 1 0 0 0 0 0 0 0 0 0 0 0 0 0 0 0 0 0 0 0 0 0 0
62 40 2 2 4 1 0 0 0 0 0 0 0 0 143 132 141 76 75 94 80 76 19 0 0 0 0 0 0 0 0 0 0 0 0 0 0 0 0 0 0 0 0 0
22 47 92 16 15 0 0 0 0 0 0 0 0 0 33 134 137 136 188 163 133 99 40 12 13 0 0 0 0 0 0 0 0 0 0 0 0 0 0 0 0 0 0 0
83 86 26 19 9 0 0 0 0 3 2 2 0 0 0 0 0 0 3 12 149 49 47 40 25 16 3 0 0 0 0 0 0 0 0 0 0 0 0 0 0 0 0 0
133 85 35 28 42 7 6 1 0 0 1 0 0 0 0 0 0 0 0 0 0 4 10 63 37 60 41 0 0 0 0 0 0 0 0 0 0 0 0 0 0 0 0 0
167 68 38 31 6 8 0 1 3 6 2 0 0 0 0 0 0 0 0 0 0 0 0 0 0 0 66 59 5 0 0 0 0 0 0 0 0 0 0 0 0 0 0 0
69 21 2 6 0 0 0 0 0 0 0 0 0 0 0 0 0 0 0 0 0 0 0 0 0 0 0 17 61 25 0 1 0 0 0 0 0 0 0 0 0 0 0 0
99 42 2 0 0 0 0 0 0 0 0 0 0 0 0 0 0 0 0 0 0 0 0 0 0 0 7 35 64 100 85 12 0 0 0 0 0 0 0 0 0 0 0 0
22 3 0 0 0 0 14 6 1 0 0 0 0 0 0 0 0 0 0 0 0 0 0 0 0 0 22 85 50 53 62 67 13 0 0 0 0 0 0 0 0 0 0 0
0 0 3 4 15 11 2 0 0 0 0 0 0 0 0 0 0 0 1 2 0 0 0 0 0 0 0 20 57 21 28 41 14 0 0 0 0 0 0 0 0 0 0 0
0 0 3 6 5 0 0 0 0 0 0 0 0 0 0 0 0 2 0 0 0 0 0 0 0 0 0 3 46 62 33 36 30 13 21 0 0 0 0 0 0 1 0 0
0 0 0 6 1 0 0 0 0 0 0 0 0 0 0 0 0 0 0 4 2 0 0 0 0 0 0 0 6 37 153 80 88 17 0 0 0 0 0 0 0 0 0 0
0 0 0 0 1 0 0 0 0 0 0 0 0 3 1 4 0 0 2 10 34 0 0 2 1 0 3 1 2 50 112 51 45 13 0 0 0 0 0 2 0 0 0 0
0 0 0 0 0 0 0 0 0 0 0 0 1 6 0 0 2 8 11 17 23 0 0 0 0 0 15 24 54 67 105 92 15 0 0 0 0 0 0 0 0 1 0 0
0 0 0 0 0 0 0 0 0 0 0 0 0 0 0 0 7 5 11 22 26 0 0 0 0 0 0 0 0 1 3 11 13 3 0 0 0 0 0 0 0 0 0 0

GFSNGP_con_mlcape_111.txt.gz
CAPE
0 50 66 92 101 42 0 0 0 0 0 0 98 94 101 70 62 31 11 38 47 89 93 93 49 14 0 9 43 80 164 109 52 80 217 125 66 90 81 85 47 87 219 153
34 19 1 28 52 76 38 40 29 67 11 282 526 534 440 238 170 52 17 23 32 40 59 74 81 98 47 78 90 128 66 104 108 114 154 124 98 83 61 11 4 44 39 25
14 0 0 0 0 20 34 209 128 30 107 380 417 638 491 629 477 286 111 107 92 117 100 95 82 126 180 131 104 123 126 87 74 79 134 117 73 46 9 2 29 17 3 0
2 3 0 0 0 0 0 5 239 261 127 231 373 404 339 351 269 187 94 76 56 50 111 89 80 79 47 37 93 72 141 84 142 102 129 210 216 169 102 77 35 4 0 0
0 0 0 1 0 0 0 2 86 239 158 520 540 448 242 146 106 86 53 1 1 0 1 0 0 1 31 35 8 42 181 197 183 212 228 226 156 53 62 44 0 0 0 0
0 0 0 0 0 0 0 4 133 342 471 555 307 229 218 66 0 0 0 0 0 1 1 1 1 2 1 39 1 3 6 84 233 283 239 150 72 11 9 11 0 0 0 0
0 0 0 0 0 0 12 11 158 331 408 358 262 214 75 56 2 0 0 0 0 0 0 2 3 1 0 1 0 2 2 1 1 39 25 10 0 0 12 17 0 0 0 0
0 0 0 0 0 0 1 179 140 214 267 130 36 41 0 0 0 0 0 0 0 0 0 0 0 0 1 1 2 1 2 2 1 0 0 0 0 0 1 2 0 0 0 0
0 0 0 0 17 24 132 199 110 54 19 0 1 23 0 0 0 0 0 0 0 0 0 0 0 0 0 0 0 0 0 0 0 0 0 0 0 0 0 0 0 0 0 0
0 1 1 0 3 47 146 151 234 34 3 0 0 1 4 9 0 0 0 0 0 0 0 0 0 0 0 0 0 0 0 0 0 0 0 0 0 0 0 0 0 0 0 0
4 23 16 0 0 0 9 95 234 252 67 183 280 268 61 0 0 0 0 0 0 0 0 0 0 0 0 0 0 0 0 0 0 0 0 0 0 0 0 0 0 0 0 0
0 46 3 0 0 0 0 0 86 169 308 497 534 303 90 25 0 0 0 0 0 0 0 0 0 0 0 0 0 0 0 0 0 0 0 0 0 0 0 0 0 0 0 0
0 27 0 0 0 0 0 0 0 13 310 475 468 315 149 74 22 0 0 0 0 0 0 0 0 0 0 0 0 0 0 0 0 0 0 0 0 0 0 0 0 0 0 0
19 26 1 0 0 0 0 0 0 0 149 493 324 220 142 71 14 0 0 0 0 0 0 0 0 0 0 0 0 0 0 0 0 0 0 0 0 0 0 0 0 0 0 0
1 7 10 0 0 0 0 0 0 0 5 79 90 71 63 91 56 34 19 19 23 0 0 0 0 0 0 0 0 0 0 0 0 0 0 0 0 0 0 0 0 0 0 0
0 0 0 0 0 0 0 0 0 0 0 0 0 0 0 0 0 0 0 1 5 7 4 0 0 0 0 0 0 0 0 0 0 0 0 0 0 0 0 0 0 0 0 0
0 5 0 0 0 0 0 0 0 0 0 0 0 0 0 0 0 0 0 0 0 0 0 0 0 0 0 0 0 0 0 0 0 0 0 0 0 0 0 0 0 0 0 0
0 2 1 0 0 0 0 0 0 0 0 0 0 0 0 0 0 0 0 0 0 0 0 0 0 0 0 0 0 0 0 0 0 0 0 0 0 0 0 0 0 0 0 0
0 11 0 0 0 0 0 0 0 0 0 0 0 0 0 0 0 0 0 0 0 0 0 0 0 0 0 0 0 0 0 0 0 0 0 0 0 0 0 0 0 0 0 0
16 1 0 0 0 0 0 0 0 0 0 0 0 0 0 0 0 0 0 0 0 0 0 0 0 0 0 0 0 0 0 0 0 0 0 0 5 3 0 0 0 0 0 0
24 0 0 0 0 0 0 0 0 0 0 0 0 0 0 0 0 0 0 0 0 0 0 0 0 0 0 0 0 0 0 0 0 6 6 3 0 0 0 0 0 0 0 0
0 0 0 0 0 0 0 0 0 0 0 0 0 0 0 0 0 0 0 0 0 0 0 0 0 0 0 0 0 0 0 0 0 0 0 4 0 0 0 0 0 0 0 0
0 0 0 0 0 0 0 0 0 0 0 0 0 0 0 0 0 0 0 0 0 0 0 0 0 0 0 0 0 0 0 0 0 0 0 0 0 0 0 0 0 0 0 0
0 0 0 0 0 0 0 0 0 0 0 0 0 0 0 0 0 0 0 0 0 0 0 0 0 0 0 0 0 0 0 0 0 0 0 0 0 0 0 0 0 0 0 0
0 0 0 0 0 0 0 0 0 0 0 0 0 0 0 0 0 0 0 0 0 0 0 0 0 0 0 0 0 0 0 0 0 0 0 0 0 0 0 0 0 0 0 1
0 0 0 0 0 0 0 0 0 0 0 0 0 0 0 0 0 0 0 0 0 0 0 0 0 0 0 0 0 0 0 0 0 0 0 0 0 0 0 0 0 0 0 0
0 0 0 0 0 0 0 0 0 0 0 0 0 0 0 0 0 0 0 0 0 0 0 0 0 0 0 0 0 0 0 0 0 0 0 0 0 0 0 0 0 0 0 0

GFSNGP_con_mlcape_114.txt.gz
CAPE
0 131 65 47 132 171 1 0 0 0 0 116 230 210 83 80 110 76 35 74 98 132 137 65 102 156 162 174 165 211 242 250 223 144 157 104 86 36 30 64 52 38 94 120
31 33 57 0 2 138 201 209 55 52 116 485 563 591 248 170 109 138 103 87 100 83 120 127 187 160 85 48 0 73 203 164 137 48 42 56 94 108 35 56 79 49 25 19
0 9 8 0 0 45 86 171 242 38 193 352 548 489 318 336 145 105 157 126 139 137 139 85 107 96 58 31 7 14 62 66 65 72 96 91 107 88 77 58 24 14 0 0
7 3 0 0 0 0 17 45 331 376 350 543 450 309 270 251 263 181 133 67 56 92 112 47 90 176 122 78 72 40 43 65 66 76 47 65 86 85 61 25 13 6 0 0
1 0 0 12 6 0 0 55 221 325 411 519 467 160 100 62 42 67 39 14 5 1 2 1 7 41 78 102 79 65 44 51 76 53 43 86 92 66 56 38 1 0 0 0
0 0 0 5 0 0 0 36 255 346 579 762 228 180 128 22 1 0 0 0 1 2 2 1 2 1 26 46 109 40 55 87 89 90 103 55 24 14 2 11 0 0 0 0
0 0 0 0 0 3 0 13 344 558 696 602 287 200 158 32 0 0 0 0 0 0 1 1 3 1 0 0 0 0 0 0 0 36 62 18 2 0 3 0 0 0 0 0
0 0 0 0 0 24 3 130 432 494 465 299 159 137 64 0 0 0 0 0 0 0 0 1 2 1 1 1 2 1 1 0 0 0 1 1 0 4 7 0 0 0 0 0
0 0 0 0 0 0 104 285 236 440 254 167 68 34 0 0 0 0 0 0 0 0 0 0 0 0 0 1 0 0 1 1 1 2 1 0 0 0 12 0 0 0 0 0
0 0 0 1 51 219 421 245 167 147 30 54 23 1 0 0 0 0 0 0 0 0 0 0 0 0 0 0 0 0 0 0 0 0 0 0 0 0 0 0 0 0 0 0
0 0 0 2 12 40 165 306 326 166 33 25 11 12 0 0 0 0 0 0 0 0 0 0 0 0 0 0 0 0 0 0 0 0 0 0 0 0 0 0 0 0 0 0
0 0 1 6 0 21 39 224 273 183 148 166 254 47 1 0 0 0 0 0 0 0 0 0 0 0 0 0 0 0 0 0 0 0 0 0 0 0 0 0 0 0 0 0
0 0 0 0 2 13 12 93 454 447 515 501 327 127 44 0 0 0 0 0 0 0 0 0 0 0 0 0 0 0 0 0 0 0 0 0 0 0 0 0 0 0 0 0
0 0 0 0 0 1 0 0 18 239 398 438 260 195 79 17 0 0 0 0 0 0 0 0 0 0 0 0 0 0 0 0 0 0 0 0 0 0 0 0 0 0 0 0
0 0 0 0 0 0 0 0 0 87 508 336 195 157 87 28 8 0 0 0 0 0 0 0 0 0 0 0 0 0 0 0 0 0 0 0 0 0 0 0 0 0 0 0
0 0 0 0 0 0 0 0 0 0 72 95 79 23 6 5 1 0 0 0 0 0 0 0 0 0 0 0 0 0 0 0 0 0 0 0 0 0 0 0 0 0 0 0
0 0 0 0 0 0 0 0 0 0 0 0 0 0 0 0 0 0 0 0 0 0 0 0 0 0 0 0 0 0 0 0 0 0 0 0 0 0 0 0 0 0 0 0
0 0 0 0 0 0 0 0 0 0 0 0 0 0 0 0 0 0 0 0 0 0 0 0 0 0 0 0 0 0 0 0 0 0 0 0 0 0 0 0 0 0 0 0
0 0 0 0 0 0 0 0 0 0 0 0 0 0 0 0 0 0 0 0 0 0 0 0 0 0 0 0 0 0 0 0 0 0 0 0 0 0 0 0 0 0 0 0
0 0 0 0 0 0 0 0 0 0 0 0 0 0 0 0 0 0 0 0 0 0 0 0 0 0 0 0 0 0 0 0 0 0 0 0 0 0 0 0 0 0 0 0
0 0 0 0 0 0 0 0 0 0 0 0 0 0 0 0 0 0 0 0 0 0 0 0 0 0 0 0 0 0 0 0 0 0 0 0 0 0 0 0 0 0 0 0
0 0 0 0 0 0 0 0 0 0 0 0 0 0 0 0 0 0 0 0 0 0 0 0 0 0 0 0 0 0 0 0 0 0 0 0 0 0 0 0 0 0 0 0
0 0 0 0 0 0 0 0 0 0 0 0 0 0 0 0 0 0 0 0 0 0 0 0 0 0 0 0 0 0 0 0 0 0 0 0 0 0 0 0 0 0 0 0
0 0 0 0 0 0 0 0 0 0 0 0 0 0 0 0 0 0 0 0 0 0 0 0 0 0 0 0 0 0 0 0 0 0 0 0 0 0 0 0 0 0 0 0
0 0 0 0 0 0 0 0 0 0 0 0 0 0 0 0 0 0 0 0 0 0 0 0 0 0 0 0 0 0 0 0 0 0 0 0 0 0 0 0 0 0 0 0
0 0 0 0 0 0 0 0 0 0 0 0 0 0 0 0 0 0 0 0 0 0 0 0 0 0 0 0 0 0 0 0 0 0 0 0 0 0 1 0 0 0 0 2
0 0 0 0 0 0 0 0 0 0 0 0 0 0 0 0 0 0 0 0 0 0 0 0 0 0 0 0 0 0 0 0 0 0 0 0 0 0 0 0 0 0 0 0

GFSNGP_con_mlcape_117.txt.gz
CAPE
3 151 166 124 157 337 256 100 0 1 38 259 417 459 410 249 198 165 128 130 124 130 165 56 87 151 261 175 162 307 255 366 384 413 545 656 340 179 74 89 171 190 223 253
130 204 69 136 26 274 546 551 485 313 321 548 589 857 464 306 288 258 209 215 182 164 132 103 94 97 153 281 238 243 465 486 352 363 352 298 175 125 90 100 51 163 132 22
128 146 59 2 27 11 298 389 414 417 593 479 560 631 570 435 370 369 268 270 268 203 107 84 27 47 67 108 141 121 171 235 216 119 149 29 28 98 123 77 58 94 60 2
177 116 7 17 33 83 113 94 392 573 544 483 444 350 309 418 315 265 174 171 196 223 120 63 89 94 61 62 53 55 17 28 88 74 7 5 39 82 87 67 56 43 1 0
54 42 8 88 62 35 25 98 236 501 605 557 391 256 256 153 138 100 62 21 6 8 17 28 82 265 167 153 133 106 74 83 76 46 51 52 12 11 65 78 36 4 0 0
15 2 1 36 33 10 5 15 181 742 687 755 556 289 93 63 49 41 4 3 1 2 2 5 1 23 158 148 145 141 99 74 66 76 94 58 48 36 18 29 4 1 0 0
8 30 2 0 4 15 8 29 414 886 697 994 522 463 108 2 1 2 4 1 1 1 0 2 2 1 39 35 26 20 17 14 1 0 29 45 35 18 3 0 2 0 0 0
0 0 0 0 0 65 22 125 661 902 689 530 127 78 19 2 6 2 3 1 2 1 2 2 2 1 1 0 3 2 1 1 0 0 0 0 0 4 0 1 3 0 0 0
0 0 0 0 0 0 5 511 568 702 441 147 106 5 8 18 27 8 2 1 1 0 0 1 1 0 0 1 0 1 2 2 1 1 0 0 0 2 11 3 4 0 0 0
0 4 10 10 10 20 310 392 615 648 450 210 44 58 73 40 20 1 0 0 0 0 0 0 0 0 0 0 0 0 0 1 0 0 0 0 0 1 1 2 1 0 0 0
0 19 90 115 111 169 331 502 425 398 366 245 119 20 5 7 6 0 0 0 0 0 0 0 0 0 0 0 0 0 0 0 0 0 0 0 0 0 0 0 0 0 0 0
0 34 149 204 38 216 386 657 419 243 252 348 140 10 0 0 0 0 0 0 0 0 0 0 0 0 0 0 0 0 0 0 0 0 0 0 0 0 0 0 0 0 0 0
12 8 0 36 27 49 127 505 482 418 466 541 238 38 3 0 0 0 0 0 0 0 0 0 0 0 0 0 0 0 0 0 0 0 0 0 0 0 0 0 0 0 0 0
0 0 0 0 1 54 75 343 473 612 808 676 382 166 69 1 0 0 0 0 0 0 0 0 0 0 0 0 0 0 0 0 0 0 0 0 0 0 0 0 0 0 0 0
0 6 8 6 10 0 0 105 190 542 775 620 483 280 151 55 20 10 0 0 0 0 0 0 0 0 0 0 0 0 0 0 0 0 0 0 0 0 0 0 0 0 0 0
0 0 0 0 0 0 7 108 87 495 742 577 479 358 148 74 38 8 2 1 14 11 0 0 0 0 0 0 0 0 0 0 0 0 0 0 0 0 0 0 0 0 0 0
0 0 0 0 0 0 0 15 57 226 437 485 336 110 24 10 3 0 0 0 0 0 0 0 0 0 0 0 0 0 0 0 0 0 0 0 0 0 0 0 0 0 0 0
0 0 0 0 0 0 5 13 21 51 101 51 1 0 0 0 0 0 0 0 0 0 0 0 0 0 0 0 0 0 0 0 0 0 0 0 0 0 0 0 0 0 0 0
0 0 0 0 0 0 0 1 0 27 0 0 0 0 0 0 0 0 0 0 0 0 0 0 0 0 0 0 0 0 0 0 0 0 0 0 0 0 0 0 0 0 0 0
0 0 0 0 0 0 0 0 0 0 0 0 0 0 0 0 0 0 0 0 0 0 0 0 0 0 0 0 0 0 0 0 0 0 0 0 0 3 5 0 0 0 0 0
0 0 0 0 0 0 0 0 0 0 0 0 0 0 0 0 0 0 0 0 0 0 0 0 0 0 0 0 0 0 0 0 0 0 0 0 0 0 2 3 0 0 0 0
0 0 0 0 0 0 0 0 0 0 0 0 0 0 0 0 0 0 0 0 0 0 0 0 0 0 0 0 0 0 0 0 0 0 0 0 0 0 0 2 3 1 1 1
0 0 0 0 0 0 0 0 0 0 0 0 0 0 0 0 0 0 0 0 0 0 0 0 0 0 0 0 0 0 0 0 0 0 1 2 2 0 0 3 3 3 4 17
0 0 0 0 0 0 0 0 0 0 0 0 0 0 0 0 0 0 0 0 0 0 0 0 0 0 0 0 0 0 0 0 0 0 0 0 0 0 0 6 23 16 16 27
0 0 0 0 0 0 0 0 0 0 0 0 0 0 0 0 0 0 0 0 0 0 0 0 0 0 0 0 0 0 0 0 0 0 0 0 0 0 3 0 1 10 4 13
0 0 0 0 0 0 0 0 0 0 0 0 0 0 0 0 0 0 0 0 0 0 0 0 0 0 0 0 0 0 0 0 0 0 0 0 0 0 1 3 0 13 25 35
0 0 0 0 0 0 0 0 0 0 0 0 0 0 0 0 0 0 0 0 0 0 0 0 0 0 0 0 0 0 0 0 0 0 0 0 0 0 0 2 4 1 2 7

GFSNGP_con_mlcape_120.txt.gz
CAPE
0 0 49 49 171 278 319 235 131 59 94 170 742 559 970 637 596 496 462 396 276 46 17 46 44 83 445 732 847 876 858 805 848 809 761 933 800 1020 1064 920 760 725 735 734
0 23 86 149 139 131 420 549 598 600 473 1001 836 857 1178 738 617 482 494 382 413 288 85 50 35 38 110 669 1035 750 433 284 667 1011 993 961 710 946 856 572 465 476 461 596
70 103 160 167 137 189 230 393 476 449 624 836 996 819 754 972 784 688 624 573 386 412 301 257 85 61 61 393 752 479 229 297 722 873 642 673 773 818 372 117 290 240 375 387
70 106 81 180 299 171 128 197 329 293 653 950 789 541 523 715 667 445 502 613 623 556 420 114 78 93 52 70 174 486 254 244 341 254 369 541 152 85 44 81 103 116 141 150
129 85 75 146 263 243 229 105 24 76 962 893 709 724 365 155 64 91 54 40 57 76 120 170 86 52 57 38 24 45 97 89 138 70 125 108 36 17 41 62 91 12 0 0
42 101 43 428 440 291 169 84 196 358 1213 1095 1122 854 267 10 2 5 3 5 4 3 11 35 127 259 162 82 83 117 111 128 154 179 132 66 24 23 38 17 0 0 0 0
30 114 74 155 231 223 115 322 891 1222 1422 1266 1013 493 41 10 3 4 6 4 4 3 4 5 19 158 358 325 249 208 119 54 27 12 5 79 52 32 3 0 0 1 1 0
108 114 67 63 115 232 336 810 1111 1491 1414 796 418 239 107 87 44 23 7 3 4 3 4 4 3 0 1 15 8 11 12 2 1 1 2 5 2 0 1 1 0 2 1 0
101 245 378 260 150 214 204 891 1265 1263 1133 932 350 213 177 86 100 61 10 1 1 0 0 0 1 1 0 1 3 2 0 0 1 2 1 1 1 0 0 1 0 0 0 0
141 358 341 395 262 219 767 1112 1317 862 968 442 156 54 19 84 120 76 36 6 0 0 0 0 0 0 1 0 0 1 1 1 1 4 1 1 0 0 1 3 3 5 6 1
0 132 449 547 766 840 937 1326 1186 846 479 317 153 209 292 323 268 99 0 0 1 0 0 0 0 0 0 0 0 0 0 0 0 0 0 0 0 0 0 0 0 1 1 2
21 21 585 530 593 971 1148 1038 978 778 462 247 196 142 59 6 0 0 0 0 0 0 0 0 0 0 0 0 0 0 0 0 0 0 0 0 0 0 0 0 0 0 0 0
36 86 436 296 327 513 838 936 750 875 521 294 160 47 0 0 0 0 0 0 0 0 0 0 0 0 0 0 0 0 0 0 0 0 0 0 0 0 0 0 0 0 0 0
99 255 225 147 115 420 733 1056 865 1002 657 381 224 123 57 3 6 3 0 0 0 0 0 0 0 0 0 0 0 0 0 0 0 0 0 0 0 0 0 0 0 0 0 0
19 132 55 100 173 141 297 529 945 938 778 534 354 237 144 128 78 54 24 9 1 1 6 21 3 0 0 0 0 0 0 0 0 0 0 0 0 0 0 0 0 0 0 0
39 178 116 179 131 71 190 261 322 551 856 674 547 350 294 293 299 222 172 90 102 90 44 17 4 4 5 7 8 16 1 0 0 0 0 0 0 0 0 0 0 0 0 0
99 138 133 121 110 69 139 133 276 812 829 637 598 589 368 369 363 345 289 200 84 5 0 0 0 0 0 0 0 0 0 0 0 0 0 0 0 0 1 0 0 0 0 2
109 131 123 109 78 87 106 107 201 411 741 813 750 536 427 361 144 19 0 0 0 0 0 0 0 0 0 0 0 0 0 0 0 0 0 0 0 0 0 0 1 1 0 0
137 112 124 83 65 115 92 113 118 267 826 825 763 640 390 122 3 0 0 0 0 0 0 0 0 0 0 0 0 0 0 0 0 0 0 0 0 0 0 0 0 0 0 0
127 196 193 90 59 98 143 146 131 342 480 472 400 187 40 0 0 0 0 0 0 0 0 0 0 0 0 0 0 0 0 0 0 0 0 0 0 0 0 0 0 1 3 2
184 168 187 223 183 177 192 224 303 265 257 222 116 25 0 0 0 0 0 0 0 0 0 0 0 0 0 0 0 0 0 0 0 0 0 0 0 0 0 0 0 0 0 1
261 219 193 230 266 266 247 262 202 211 135 82 25 0 0 0 0 0 0 0 0 0 0 0 0 0 0 0 0 0 0 0 0 0 0 0 0 0 0 0 0 0 0 4
256 246 228 213 235 311 268 190 167 94 54 33 1 0 0 0 0 0 0 0 0 0 0 0 0 0 0 0 0 0 0 0 0 0 0 0 0 0 0 0 0 3 5 4
315 283 288 303 301 302 188 122 133 59 30 7 3 0 0 0 0 0 0 0 0 0 0 0 0 0 0 0 0 0 0 0 0 0 0 0 0 0 0 0 0 1 11 14
433 383 332 290 311 276 214 83 34 1 0 0 0 0 0 0 0 0 0 0 0 0 0 0 0 0 0 0 0 0 0 0 0 0 0 0 0 0 0 0 5 11 7 22
491 379 304 294 265 163 91 7 3 0 0 0 0 0 0 0 0 0 0 0 0 0 0 0 0 0 0 0 0 0 0 0 0 0 0 0 0 0 0 0 0 8 20 20
465 283 244 187 141 74 22 8 4 0 0 0 0 0 0 0 0 0 0 0 0 0 0 0 0 0 0 0 0 0 0 0 0 0 0 0 0 0 0 0 0 0 3 13

GFSNGP_con_mlcape_123.txt.gz
CAPE
0 0 0 0 11 0 18 68 53 10 6 104 0 179 579 688 758 608 106 248 79 18 11 312 755 922 925 1127 1122 1089 1064 1006 842 852 788 851 866 905 881 886 925 723 623 776
0 0 0 0 2 3 0 17 62 71 32 777 1159 1332 1124 929 857 685 641 495 422 311 176 85 269 442 268 503 1042 1270 1207 1233 1165 1204 1060 907 1124 1165 1241 1071 871 783 556 657
44 33 17 15 12 10 57 20 68 58 177 362 1030 1258 855 1082 1084 494 668 632 475 610 212 131 57 179 349 268 442 819 957 1065 979 948 1136 1173 937 941 1123 1020 773 778 622 332
0 6 23 39 0 2 1 14 0 0 160 991 1202 693 476 408 496 430 359 507 233 392 468 152 23 91 122 140 353 566 853 885 1058 1081 1104 1014 846 886 850 832 442 199 109 124
46 87 56 45 61 59 199 50 9 24 43 1474 1201 708 218 49 47 3 2 5 10 184 388 279 158 112 71 41 54 170 559 476 618 242 231 230 295 304 342 323 201 66 21 0
7 30 2 51 0 0 20 241 304 219 187 640 1309 1017 225 3 75 26 5 2 2 8 118 251 236 177 83 25 10 13 30 48 130 224 235 227 208 311 209 134 36 0 0 0
33 39 95 146 237 278 176 328 556 484 313 1449 1252 811 231 107 27 4 2 1 3 3 3 23 84 265 180 48 28 44 96 76 47 46 7 16 35 39 0 0 0 1 4 4
103 129 119 231 238 60 633 565 385 1554 1464 1345 989 650 340 235 143 45 3 4 3 2 3 3 2 32 47 22 58 65 50 54 30 8 23 7 4 0 0 0 0 1 0 2
157 156 431 431 153 473 451 724 1103 1503 1572 1310 872 720 523 357 249 53 1 2 1 2 1 2 2 1 0 2 1 2 1 1 1 1 0 6 0 0 1 0 0 2 2 1
135 166 244 351 419 313 666 1271 1675 1694 1400 1018 963 703 509 353 235 105 1 0 0 0 0 0 0 1 1 1 1 0 1 1 0 1 1 1 0 0 3 3 1 4 2 0
0 0 190 431 642 933 1243 1278 1387 1477 1116 912 741 574 513 383 185 35 26 0 0 0 0 0 0 0 0 0 0 0 0 0 0 0 0 0 0 2 0 0 0 1 3 0
56 41 403 563 862 1164 1301 1143 995 944 847 804 684 472 382 143 12 13 22 0 0 0 0 0 0 0 0 0 0 0 0 0 0 0 0 0 0 0 0 0 0 0 0 0
97 29 453 480 849 1231 1107 1087 937 948 658 413 179 52 4 0 0 0 0 0 0 0 0 0 0 0 0 0 0 0 0 0 0 0 0 0 0 0 0 0 0 0 0 0
0 79 316 148 206 420 852 932 1030 874 692 377 169 79 18 4 0 0 0 0 0 0 0 0 0 0 0 0 0 0 0 0 0 0 0 0 0 0 0 0 0 0 0 0
0 4 123 171 254 296 594 703 905 818 689 575 383 209 132 119 60 31 8 6 10 9 8 9 6 6 6 8 6 5 10 2 0 0 0 0 0 0 0 0 0 0 0 0
0 0 106 102 167 167 136 443 877 735 710 655 487 391 322 207 124 85 62 44 47 74 49 32 29 27 32 27 16 18 0 0 0 6 2 3 2 0 0 0 0 0 0 0
18 0 28 72 166 145 129 186 229 614 785 633 658 510 368 317 237 250 236 194 134 70 16 4 0 0 0 0 0 0 0 0 0 0 0 0 0 0 0 0 0 0 0 0
74 36 32 82 161 147 83 148 364 376 804 795 684 722 561 390 294 267 235 107 0 0 0 0 0 0 0 0 0 0 0 0 0 0 0 0 0 0 0 0 0 0 0 0
86 28 35 24 77 144 69 144 256 418 521 847 955 708 448 402 328 136 0 0 0 0 0 0 0 0 0 0 0 0 0 0 0 0 0 0 0 0 0 0 0 0 0 0
18 17 83 60 25 46 77 142 208 439 645 709 760 668 430 292 68 0 0 0 0 0 0 0 0 0 0 0 0 0 0 0 0 0 0 0 0 0 0 0 0 0 0 0
6 32 123 142 68 14 89 150 235 508 489 415 452 480 315 90 0 0 0 0 0 0 0 0 0 0 0 0 0 0 0 0 0 0 0 0 0 0 0 0 0 0 0 0
36 92 97 249 156 101 107 207 278 406 383 385 389 340 128 0 0 0 0 0 0 0 0 0 0 0 0 0 0 0 0 0 0 0 0 0 0 0 0 0 0 0 0 0
87 151 176 287 291 316 316 326 439 479 439 512 404 246 63 0 0 0 0 0 0 0 0 0 0 0 0 0 0 0 0 0 0 0 0 0 0 0 0 0 0 0 0 6
185 362 387 413 414 450 505 536 537 627 602 565 423 201 35 0 0 0 0 0 0 0 0 0 0 0 0 0 0 0 0 0 0 0 0 0 0 0 0 0 0 1 5 3
285 392 506 515 500 550 631 610 534 633 609 479 273 131 1 0 0 0 0 0 0 0 0 0 0 0 0 0 0 0 0 0 0 0 0 0 0 0 0 0 0 0 2 4
609 543 500 633 553 571 668 601 543 538 484 355 216 44 0 0 0 0 0 0 0 0 0 0 0 0 0 0 0 0 0 0 0 0 0 0 0 0 0 1 2 0 1 7
845 655 598 666 643 575 600 545 489 433 290 169 100 9 0 0 0 0 0 0 0 0 0 0 0 0 0 0 0 0 0 0 0 0 0 0 2 3 5 3 8 11 8 11